<?xml version="1.0" encoding="UTF-8" standalone="no" ?>
<gpx xmlns="http://www.topografix.com/GPX/1/1" xmlns:xsi="http://www.w3.org/2001/XMLSchema-instance" xsi:schemaLocation="http://www.topografix.com/GPX/1/1 http://www.topografix.com/GPX/1/1/gpx.xsd" version="1.1" creator="VisuGPX - https://www.visugpx.com">
  <metadata>
    <name>Tournefeuille Gravel bike</name>
  </metadata>
  <trk>
    <name><![CDATA[Tournefeuille Gravel bike_1]]></name>
    <trkseg>
      <trkpt lat="43.58627" lon="1.32209">
        <ele>186</ele>
        <time>2023-02-10T05:47:58Z</time>
      </trkpt>
      <trkpt lat="43.58681" lon="1.32238">
        <ele>187.2</ele>
        <time>2023-02-10T05:49:53Z</time>
      </trkpt>
      <trkpt lat="43.5868" lon="1.32247">
        <ele>187.2</ele>
        <time>2023-02-10T05:49:55Z</time>
      </trkpt>
      <trkpt lat="43.58679" lon="1.32275">
        <ele>187</ele>
        <time>2023-02-10T05:50:00Z</time>
      </trkpt>
      <trkpt lat="43.5868" lon="1.32284">
        <ele>186.8</ele>
        <time>2023-02-10T05:50:02Z</time>
      </trkpt>
      <trkpt lat="43.58683" lon="1.32287">
        <ele>186.8</ele>
        <time>2023-02-10T05:50:03Z</time>
      </trkpt>
      <trkpt lat="43.58686" lon="1.32287">
        <ele>186.8</ele>
        <time>2023-02-10T05:50:04Z</time>
      </trkpt>
      <trkpt lat="43.58691" lon="1.32283">
        <ele>186.8</ele>
        <time>2023-02-10T05:50:06Z</time>
      </trkpt>
      <trkpt lat="43.58713" lon="1.32263">
        <ele>187.4</ele>
        <time>2023-02-10T05:50:13Z</time>
      </trkpt>
      <trkpt lat="43.58719" lon="1.32255">
        <ele>187.8</ele>
        <time>2023-02-10T05:50:15Z</time>
      </trkpt>
      <trkpt lat="43.58737" lon="1.32235">
        <ele>188.4</ele>
        <time>2023-02-10T05:50:20Z</time>
      </trkpt>
      <trkpt lat="43.58741" lon="1.32231">
        <ele>188.6</ele>
        <time>2023-02-10T05:50:21Z</time>
      </trkpt>
      <trkpt lat="43.58766" lon="1.32204">
        <ele>189.4</ele>
        <time>2023-02-10T05:50:27Z</time>
      </trkpt>
      <trkpt lat="43.58803" lon="1.32164">
        <ele>190</ele>
        <time>2023-02-10T05:50:36Z</time>
      </trkpt>
      <trkpt lat="43.58806" lon="1.3216">
        <ele>190</ele>
        <time>2023-02-10T05:50:37Z</time>
      </trkpt>
      <trkpt lat="43.58809" lon="1.32156">
        <ele>190</ele>
        <time>2023-02-10T05:50:38Z</time>
      </trkpt>
      <trkpt lat="43.58811" lon="1.32149">
        <ele>190.2</ele>
        <time>2023-02-10T05:50:40Z</time>
      </trkpt>
      <trkpt lat="43.58815" lon="1.32137">
        <ele>190.6</ele>
        <time>2023-02-10T05:50:43Z</time>
      </trkpt>
      <trkpt lat="43.58818" lon="1.32122">
        <ele>190.6</ele>
        <time>2023-02-10T05:50:46Z</time>
      </trkpt>
      <trkpt lat="43.5883" lon="1.32107">
        <ele>190.8</ele>
        <time>2023-02-10T05:50:50Z</time>
      </trkpt>
      <trkpt lat="43.58861" lon="1.32076">
        <ele>191</ele>
        <time>2023-02-10T05:50:58Z</time>
      </trkpt>
      <trkpt lat="43.58865" lon="1.32072">
        <ele>191.2</ele>
        <time>2023-02-10T05:50:59Z</time>
      </trkpt>
      <trkpt lat="43.58893" lon="1.32044">
        <ele>191.4</ele>
        <time>2023-02-10T05:51:06Z</time>
      </trkpt>
      <trkpt lat="43.58923" lon="1.32014">
        <ele>191.4</ele>
        <time>2023-02-10T05:51:14Z</time>
      </trkpt>
      <trkpt lat="43.58931" lon="1.32007">
        <ele>191.4</ele>
        <time>2023-02-10T05:51:16Z</time>
      </trkpt>
      <trkpt lat="43.58938" lon="1.32005">
        <ele>191.4</ele>
        <time>2023-02-10T05:51:18Z</time>
      </trkpt>
      <trkpt lat="43.58941" lon="1.32005">
        <ele>191.4</ele>
        <time>2023-02-10T05:51:19Z</time>
      </trkpt>
      <trkpt lat="43.58956" lon="1.31999">
        <ele>191.2</ele>
        <time>2023-02-10T05:51:23Z</time>
      </trkpt>
      <trkpt lat="43.5897" lon="1.31992">
        <ele>191.4</ele>
        <time>2023-02-10T05:51:26Z</time>
      </trkpt>
      <trkpt lat="43.58984" lon="1.31981">
        <ele>191.4</ele>
        <time>2023-02-10T05:51:29Z</time>
      </trkpt>
      <trkpt lat="43.5902" lon="1.31944">
        <ele>191.4</ele>
        <time>2023-02-10T05:51:37Z</time>
      </trkpt>
      <trkpt lat="43.59024" lon="1.31939">
        <ele>191.2</ele>
        <time>2023-02-10T05:51:38Z</time>
      </trkpt>
      <trkpt lat="43.59047" lon="1.31904">
        <ele>191.2</ele>
        <time>2023-02-10T05:51:44Z</time>
      </trkpt>
      <trkpt lat="43.5905" lon="1.31899">
        <ele>191.2</ele>
        <time>2023-02-10T05:51:45Z</time>
      </trkpt>
      <trkpt lat="43.59059" lon="1.31894">
        <ele>191.2</ele>
        <time>2023-02-10T05:51:47Z</time>
      </trkpt>
      <trkpt lat="43.59064" lon="1.31891">
        <ele>191.2</ele>
        <time>2023-02-10T05:51:48Z</time>
      </trkpt>
      <trkpt lat="43.59071" lon="1.31883">
        <ele>191.2</ele>
        <time>2023-02-10T05:51:50Z</time>
      </trkpt>
      <trkpt lat="43.59075" lon="1.31878">
        <ele>191</ele>
        <time>2023-02-10T05:51:51Z</time>
      </trkpt>
      <trkpt lat="43.59083" lon="1.31866">
        <ele>191</ele>
        <time>2023-02-10T05:51:53Z</time>
      </trkpt>
      <trkpt lat="43.591" lon="1.31847">
        <ele>191</ele>
        <time>2023-02-10T05:51:57Z</time>
      </trkpt>
      <trkpt lat="43.59106" lon="1.31842">
        <ele>190.8</ele>
        <time>2023-02-10T05:51:58Z</time>
      </trkpt>
      <trkpt lat="43.59146" lon="1.31804">
        <ele>190.6</ele>
        <time>2023-02-10T05:52:07Z</time>
      </trkpt>
      <trkpt lat="43.59153" lon="1.318">
        <ele>190.6</ele>
        <time>2023-02-10T05:52:10Z</time>
      </trkpt>
      <trkpt lat="43.59165" lon="1.31792">
        <ele>190.6</ele>
        <time>2023-02-10T05:52:14Z</time>
      </trkpt>
      <trkpt lat="43.59169" lon="1.31789">
        <ele>190.6</ele>
        <time>2023-02-10T05:52:15Z</time>
      </trkpt>
      <trkpt lat="43.59187" lon="1.3178">
        <ele>190.6</ele>
        <time>2023-02-10T05:52:19Z</time>
      </trkpt>
      <trkpt lat="43.59198" lon="1.31776">
        <ele>190.6</ele>
        <time>2023-02-10T05:52:21Z</time>
      </trkpt>
      <trkpt lat="43.5922" lon="1.31766">
        <ele>190.2</ele>
        <time>2023-02-10T05:52:27Z</time>
      </trkpt>
      <trkpt lat="43.59234" lon="1.31762">
        <ele>190</ele>
        <time>2023-02-10T05:52:31Z</time>
      </trkpt>
      <trkpt lat="43.59238" lon="1.31761">
        <ele>190</ele>
        <time>2023-02-10T05:52:32Z</time>
      </trkpt>
      <trkpt lat="43.59246" lon="1.31761">
        <ele>190</ele>
        <time>2023-02-10T05:52:34Z</time>
      </trkpt>
      <trkpt lat="43.59259" lon="1.31766">
        <ele>189.8</ele>
        <time>2023-02-10T05:52:37Z</time>
      </trkpt>
      <trkpt lat="43.59267" lon="1.3177">
        <ele>189.8</ele>
        <time>2023-02-10T05:52:39Z</time>
      </trkpt>
      <trkpt lat="43.59275" lon="1.31771">
        <ele>189.8</ele>
        <time>2023-02-10T05:52:41Z</time>
      </trkpt>
      <trkpt lat="43.5928" lon="1.31772">
        <ele>189.8</ele>
        <time>2023-02-10T05:52:42Z</time>
      </trkpt>
      <trkpt lat="43.59284" lon="1.31773">
        <ele>189.6</ele>
        <time>2023-02-10T05:52:43Z</time>
      </trkpt>
      <trkpt lat="43.59302" lon="1.31785">
        <ele>189.8</ele>
        <time>2023-02-10T05:52:48Z</time>
      </trkpt>
      <trkpt lat="43.59317" lon="1.31791">
        <ele>189.8</ele>
        <time>2023-02-10T05:52:51Z</time>
      </trkpt>
      <trkpt lat="43.59326" lon="1.3179">
        <ele>190</ele>
        <time>2023-02-10T05:52:53Z</time>
      </trkpt>
      <trkpt lat="43.59338" lon="1.31784">
        <ele>189.8</ele>
        <time>2023-02-10T05:52:57Z</time>
      </trkpt>
      <trkpt lat="43.59349" lon="1.3177">
        <ele>190</ele>
        <time>2023-02-10T05:53:01Z</time>
      </trkpt>
      <trkpt lat="43.59373" lon="1.31751">
        <ele>189.6</ele>
        <time>2023-02-10T05:53:07Z</time>
      </trkpt>
      <trkpt lat="43.59378" lon="1.31748">
        <ele>190</ele>
        <time>2023-02-10T05:53:08Z</time>
      </trkpt>
      <trkpt lat="43.59385" lon="1.3174">
        <ele>190</ele>
        <time>2023-02-10T05:53:10Z</time>
      </trkpt>
      <trkpt lat="43.59395" lon="1.31736">
        <ele>190</ele>
        <time>2023-02-10T05:53:12Z</time>
      </trkpt>
      <trkpt lat="43.594" lon="1.31734">
        <ele>190</ele>
        <time>2023-02-10T05:53:13Z</time>
      </trkpt>
      <trkpt lat="43.59414" lon="1.31735">
        <ele>190.2</ele>
        <time>2023-02-10T05:53:16Z</time>
      </trkpt>
      <trkpt lat="43.59429" lon="1.3173">
        <ele>190.2</ele>
        <time>2023-02-10T05:53:19Z</time>
      </trkpt>
      <trkpt lat="43.59433" lon="1.3173">
        <ele>190.2</ele>
        <time>2023-02-10T05:53:20Z</time>
      </trkpt>
      <trkpt lat="43.59478" lon="1.31734">
        <ele>190</ele>
        <time>2023-02-10T05:53:29Z</time>
      </trkpt>
      <trkpt lat="43.59482" lon="1.31734">
        <ele>190</ele>
        <time>2023-02-10T05:53:30Z</time>
      </trkpt>
      <trkpt lat="43.59488" lon="1.31739">
        <ele>190</ele>
        <time>2023-02-10T05:53:32Z</time>
      </trkpt>
      <trkpt lat="43.59489" lon="1.31744">
        <ele>190</ele>
        <time>2023-02-10T05:53:33Z</time>
      </trkpt>
      <trkpt lat="43.59489" lon="1.31757">
        <ele>190</ele>
        <time>2023-02-10T05:53:35Z</time>
      </trkpt>
      <trkpt lat="43.59489" lon="1.31763">
        <ele>190</ele>
        <time>2023-02-10T05:53:36Z</time>
      </trkpt>
      <trkpt lat="43.59489" lon="1.31823">
        <ele>190.2</ele>
        <time>2023-02-10T05:53:45Z</time>
      </trkpt>
      <trkpt lat="43.59488" lon="1.31885">
        <ele>190</ele>
        <time>2023-02-10T05:53:54Z</time>
      </trkpt>
      <trkpt lat="43.59489" lon="1.31892">
        <ele>190</ele>
        <time>2023-02-10T05:53:55Z</time>
      </trkpt>
      <trkpt lat="43.59495" lon="1.31919">
        <ele>190</ele>
        <time>2023-02-10T05:53:59Z</time>
      </trkpt>
      <trkpt lat="43.59516" lon="1.31959">
        <ele>190</ele>
        <time>2023-02-10T05:54:06Z</time>
      </trkpt>
      <trkpt lat="43.59521" lon="1.3197">
        <ele>190</ele>
        <time>2023-02-10T05:54:08Z</time>
      </trkpt>
      <trkpt lat="43.59529" lon="1.31978">
        <ele>190</ele>
        <time>2023-02-10T05:54:10Z</time>
      </trkpt>
      <trkpt lat="43.59556" lon="1.31993">
        <ele>190</ele>
        <time>2023-02-10T05:54:16Z</time>
      </trkpt>
      <trkpt lat="43.5956" lon="1.31995">
        <ele>190</ele>
        <time>2023-02-10T05:54:17Z</time>
      </trkpt>
      <trkpt lat="43.59564" lon="1.31995">
        <ele>190</ele>
        <time>2023-02-10T05:54:18Z</time>
      </trkpt>
      <trkpt lat="43.59573" lon="1.31993">
        <ele>189.8</ele>
        <time>2023-02-10T05:54:20Z</time>
      </trkpt>
      <trkpt lat="43.59583" lon="1.31996">
        <ele>189.8</ele>
        <time>2023-02-10T05:54:22Z</time>
      </trkpt>
      <trkpt lat="43.59586" lon="1.31999">
        <ele>189.8</ele>
        <time>2023-02-10T05:54:23Z</time>
      </trkpt>
      <trkpt lat="43.59589" lon="1.32004">
        <ele>189.8</ele>
        <time>2023-02-10T05:54:24Z</time>
      </trkpt>
      <trkpt lat="43.59592" lon="1.32016">
        <ele>189.8</ele>
        <time>2023-02-10T05:54:26Z</time>
      </trkpt>
      <trkpt lat="43.59598" lon="1.32026">
        <ele>189.8</ele>
        <time>2023-02-10T05:54:28Z</time>
      </trkpt>
      <trkpt lat="43.59603" lon="1.3203">
        <ele>189.8</ele>
        <time>2023-02-10T05:54:29Z</time>
      </trkpt>
      <trkpt lat="43.59632" lon="1.3205">
        <ele>189.6</ele>
        <time>2023-02-10T05:54:35Z</time>
      </trkpt>
      <trkpt lat="43.59641" lon="1.32057">
        <ele>189.6</ele>
        <time>2023-02-10T05:54:37Z</time>
      </trkpt>
      <trkpt lat="43.59691" lon="1.32094">
        <ele>189.6</ele>
        <time>2023-02-10T05:54:47Z</time>
      </trkpt>
      <trkpt lat="43.59696" lon="1.32097">
        <ele>189.6</ele>
        <time>2023-02-10T05:54:48Z</time>
      </trkpt>
      <trkpt lat="43.59739" lon="1.32129">
        <ele>189</ele>
        <time>2023-02-10T05:54:56Z</time>
      </trkpt>
      <trkpt lat="43.59744" lon="1.32133">
        <ele>188.8</ele>
        <time>2023-02-10T05:54:57Z</time>
      </trkpt>
      <trkpt lat="43.59755" lon="1.3214">
        <ele>188.8</ele>
        <time>2023-02-10T05:54:59Z</time>
      </trkpt>
      <trkpt lat="43.59765" lon="1.32146">
        <ele>188.6</ele>
        <time>2023-02-10T05:55:01Z</time>
      </trkpt>
      <trkpt lat="43.59775" lon="1.32147">
        <ele>188.6</ele>
        <time>2023-02-10T05:55:03Z</time>
      </trkpt>
      <trkpt lat="43.59787" lon="1.32151">
        <ele>188.8</ele>
        <time>2023-02-10T05:55:06Z</time>
      </trkpt>
      <trkpt lat="43.59789" lon="1.32155">
        <ele>188.8</ele>
        <time>2023-02-10T05:55:07Z</time>
      </trkpt>
      <trkpt lat="43.59792" lon="1.32166">
        <ele>188.8</ele>
        <time>2023-02-10T05:55:09Z</time>
      </trkpt>
      <trkpt lat="43.598" lon="1.32175">
        <ele>188.8</ele>
        <time>2023-02-10T05:55:11Z</time>
      </trkpt>
      <trkpt lat="43.5981" lon="1.32184">
        <ele>188.8</ele>
        <time>2023-02-10T05:55:13Z</time>
      </trkpt>
      <trkpt lat="43.59819" lon="1.32195">
        <ele>188.8</ele>
        <time>2023-02-10T05:55:15Z</time>
      </trkpt>
      <trkpt lat="43.59824" lon="1.32201">
        <ele>188.8</ele>
        <time>2023-02-10T05:55:16Z</time>
      </trkpt>
      <trkpt lat="43.59834" lon="1.32209">
        <ele>188.8</ele>
        <time>2023-02-10T05:55:18Z</time>
      </trkpt>
      <trkpt lat="43.5984" lon="1.32211">
        <ele>188.8</ele>
        <time>2023-02-10T05:55:19Z</time>
      </trkpt>
      <trkpt lat="43.59884" lon="1.32218">
        <ele>188.8</ele>
        <time>2023-02-10T05:55:26Z</time>
      </trkpt>
      <trkpt lat="43.59903" lon="1.3222">
        <ele>188.8</ele>
        <time>2023-02-10T05:55:29Z</time>
      </trkpt>
      <trkpt lat="43.59941" lon="1.32226">
        <ele>189</ele>
        <time>2023-02-10T05:55:35Z</time>
      </trkpt>
      <trkpt lat="43.59964" lon="1.32232">
        <ele>189</ele>
        <time>2023-02-10T05:55:39Z</time>
      </trkpt>
      <trkpt lat="43.59969" lon="1.32236">
        <ele>189</ele>
        <time>2023-02-10T05:55:40Z</time>
      </trkpt>
      <trkpt lat="43.59974" lon="1.3224">
        <ele>189.2</ele>
        <time>2023-02-10T05:55:41Z</time>
      </trkpt>
      <trkpt lat="43.59991" lon="1.3226">
        <ele>189.2</ele>
        <time>2023-02-10T05:55:45Z</time>
      </trkpt>
      <trkpt lat="43.6" lon="1.32267">
        <ele>189.2</ele>
        <time>2023-02-10T05:55:47Z</time>
      </trkpt>
      <trkpt lat="43.6001" lon="1.3227">
        <ele>189.2</ele>
        <time>2023-02-10T05:55:49Z</time>
      </trkpt>
      <trkpt lat="43.60026" lon="1.32268">
        <ele>189.2</ele>
        <time>2023-02-10T05:55:52Z</time>
      </trkpt>
      <trkpt lat="43.60035" lon="1.32264">
        <ele>189.2</ele>
        <time>2023-02-10T05:55:54Z</time>
      </trkpt>
      <trkpt lat="43.60039" lon="1.32261">
        <ele>189.2</ele>
        <time>2023-02-10T05:55:55Z</time>
      </trkpt>
      <trkpt lat="43.60043" lon="1.3226">
        <ele>189</ele>
        <time>2023-02-10T05:55:56Z</time>
      </trkpt>
      <trkpt lat="43.6005" lon="1.32263">
        <ele>189</ele>
        <time>2023-02-10T05:55:58Z</time>
      </trkpt>
      <trkpt lat="43.6005" lon="1.32279">
        <ele>189</ele>
        <time>2023-02-10T05:56:01Z</time>
      </trkpt>
      <trkpt lat="43.60049" lon="1.32286">
        <ele>189</ele>
        <time>2023-02-10T05:56:02Z</time>
      </trkpt>
      <trkpt lat="43.60052" lon="1.32315">
        <ele>189</ele>
        <time>2023-02-10T05:56:06Z</time>
      </trkpt>
      <trkpt lat="43.60053" lon="1.32323">
        <ele>189</ele>
        <time>2023-02-10T05:56:07Z</time>
      </trkpt>
      <trkpt lat="43.60056" lon="1.3233">
        <ele>189</ele>
        <time>2023-02-10T05:56:08Z</time>
      </trkpt>
      <trkpt lat="43.60062" lon="1.32342">
        <ele>188.8</ele>
        <time>2023-02-10T05:56:10Z</time>
      </trkpt>
      <trkpt lat="43.60086" lon="1.3237">
        <ele>188.6</ele>
        <time>2023-02-10T05:56:15Z</time>
      </trkpt>
      <trkpt lat="43.60131" lon="1.32424">
        <ele>188.4</ele>
        <time>2023-02-10T05:56:24Z</time>
      </trkpt>
      <trkpt lat="43.60146" lon="1.32442">
        <ele>188.2</ele>
        <time>2023-02-10T05:56:27Z</time>
      </trkpt>
      <trkpt lat="43.60179" lon="1.32481">
        <ele>188</ele>
        <time>2023-02-10T05:56:34Z</time>
      </trkpt>
      <trkpt lat="43.6022" lon="1.32529">
        <ele>188.2</ele>
        <time>2023-02-10T05:56:43Z</time>
      </trkpt>
      <trkpt lat="43.60266" lon="1.32582">
        <ele>188.2</ele>
        <time>2023-02-10T05:56:53Z</time>
      </trkpt>
      <trkpt lat="43.60271" lon="1.32588">
        <ele>188.2</ele>
        <time>2023-02-10T05:56:54Z</time>
      </trkpt>
      <trkpt lat="43.60296" lon="1.32615">
        <ele>188.2</ele>
        <time>2023-02-10T05:56:59Z</time>
      </trkpt>
      <trkpt lat="43.60306" lon="1.32619">
        <ele>188.2</ele>
        <time>2023-02-10T05:57:01Z</time>
      </trkpt>
      <trkpt lat="43.60329" lon="1.32616">
        <ele>188.2</ele>
        <time>2023-02-10T05:57:05Z</time>
      </trkpt>
      <trkpt lat="43.60356" lon="1.32609">
        <ele>188.2</ele>
        <time>2023-02-10T05:57:10Z</time>
      </trkpt>
      <trkpt lat="43.6036" lon="1.32607">
        <ele>188.2</ele>
        <time>2023-02-10T05:57:11Z</time>
      </trkpt>
      <trkpt lat="43.60364" lon="1.32602">
        <ele>188.2</ele>
        <time>2023-02-10T05:57:12Z</time>
      </trkpt>
      <trkpt lat="43.60369" lon="1.32589">
        <ele>188.2</ele>
        <time>2023-02-10T05:57:14Z</time>
      </trkpt>
      <trkpt lat="43.60401" lon="1.32526">
        <ele>188.2</ele>
        <time>2023-02-10T05:57:24Z</time>
      </trkpt>
      <trkpt lat="43.60404" lon="1.3252">
        <ele>188.2</ele>
        <time>2023-02-10T05:57:25Z</time>
      </trkpt>
      <trkpt lat="43.60436" lon="1.32459">
        <ele>188.4</ele>
        <time>2023-02-10T05:57:34Z</time>
      </trkpt>
      <trkpt lat="43.60449" lon="1.32434">
        <ele>188.4</ele>
        <time>2023-02-10T05:57:38Z</time>
      </trkpt>
      <trkpt lat="43.60467" lon="1.32401">
        <ele>188.4</ele>
        <time>2023-02-10T05:57:43Z</time>
      </trkpt>
      <trkpt lat="43.60472" lon="1.32396">
        <ele>188.4</ele>
        <time>2023-02-10T05:57:44Z</time>
      </trkpt>
      <trkpt lat="43.60475" lon="1.32392">
        <ele>188.4</ele>
        <time>2023-02-10T05:57:45Z</time>
      </trkpt>
      <trkpt lat="43.6048" lon="1.32387">
        <ele>188.4</ele>
        <time>2023-02-10T05:57:46Z</time>
      </trkpt>
      <trkpt lat="43.60491" lon="1.32381">
        <ele>188.4</ele>
        <time>2023-02-10T05:57:48Z</time>
      </trkpt>
      <trkpt lat="43.60495" lon="1.32379">
        <ele>188.2</ele>
        <time>2023-02-10T05:57:49Z</time>
      </trkpt>
      <trkpt lat="43.605" lon="1.32378">
        <ele>188.2</ele>
        <time>2023-02-10T05:57:50Z</time>
      </trkpt>
      <trkpt lat="43.60509" lon="1.32377">
        <ele>188.2</ele>
        <time>2023-02-10T05:57:52Z</time>
      </trkpt>
      <trkpt lat="43.60513" lon="1.32377">
        <ele>188.2</ele>
        <time>2023-02-10T05:57:53Z</time>
      </trkpt>
      <trkpt lat="43.60516" lon="1.32379">
        <ele>188.2</ele>
        <time>2023-02-10T05:57:54Z</time>
      </trkpt>
      <trkpt lat="43.60527" lon="1.3239">
        <ele>188.2</ele>
        <time>2023-02-10T05:57:57Z</time>
      </trkpt>
      <trkpt lat="43.60534" lon="1.32393">
        <ele>188.2</ele>
        <time>2023-02-10T05:57:59Z</time>
      </trkpt>
      <trkpt lat="43.60537" lon="1.32392">
        <ele>188.2</ele>
        <time>2023-02-10T05:58:00Z</time>
      </trkpt>
      <trkpt lat="43.60541" lon="1.32388">
        <ele>188.4</ele>
        <time>2023-02-10T05:58:01Z</time>
      </trkpt>
      <trkpt lat="43.60549" lon="1.32377">
        <ele>188.4</ele>
        <time>2023-02-10T05:58:03Z</time>
      </trkpt>
      <trkpt lat="43.60558" lon="1.3237">
        <ele>188.4</ele>
        <time>2023-02-10T05:58:05Z</time>
      </trkpt>
      <trkpt lat="43.60571" lon="1.32367">
        <ele>188.2</ele>
        <time>2023-02-10T05:58:07Z</time>
      </trkpt>
      <trkpt lat="43.60588" lon="1.32368">
        <ele>188.2</ele>
        <time>2023-02-10T05:58:10Z</time>
      </trkpt>
      <trkpt lat="43.606" lon="1.32375">
        <ele>188</ele>
        <time>2023-02-10T05:58:12Z</time>
      </trkpt>
      <trkpt lat="43.60634" lon="1.32413">
        <ele>187.4</ele>
        <time>2023-02-10T05:58:19Z</time>
      </trkpt>
      <trkpt lat="43.60651" lon="1.32429">
        <ele>187.2</ele>
        <time>2023-02-10T05:58:22Z</time>
      </trkpt>
      <trkpt lat="43.60656" lon="1.32432">
        <ele>187.2</ele>
        <time>2023-02-10T05:58:23Z</time>
      </trkpt>
      <trkpt lat="43.60663" lon="1.32435">
        <ele>187.2</ele>
        <time>2023-02-10T05:58:24Z</time>
      </trkpt>
      <trkpt lat="43.60686" lon="1.32432">
        <ele>187.2</ele>
        <time>2023-02-10T05:58:28Z</time>
      </trkpt>
      <trkpt lat="43.6069" lon="1.32431">
        <ele>187.2</ele>
        <time>2023-02-10T05:58:29Z</time>
      </trkpt>
      <trkpt lat="43.60708" lon="1.32412">
        <ele>187.2</ele>
        <time>2023-02-10T05:58:34Z</time>
      </trkpt>
      <trkpt lat="43.60717" lon="1.32409">
        <ele>187.2</ele>
        <time>2023-02-10T05:58:35Z</time>
      </trkpt>
      <trkpt lat="43.60737" lon="1.32397">
        <ele>187.2</ele>
        <time>2023-02-10T05:58:38Z</time>
      </trkpt>
      <trkpt lat="43.60747" lon="1.32376">
        <ele>187.2</ele>
        <time>2023-02-10T05:58:41Z</time>
      </trkpt>
      <trkpt lat="43.60751" lon="1.32369">
        <ele>187.2</ele>
        <time>2023-02-10T05:58:42Z</time>
      </trkpt>
      <trkpt lat="43.60756" lon="1.32364">
        <ele>187.2</ele>
        <time>2023-02-10T05:58:43Z</time>
      </trkpt>
      <trkpt lat="43.60772" lon="1.32344">
        <ele>187.4</ele>
        <time>2023-02-10T05:58:47Z</time>
      </trkpt>
      <trkpt lat="43.60779" lon="1.32341">
        <ele>187.4</ele>
        <time>2023-02-10T05:58:49Z</time>
      </trkpt>
      <trkpt lat="43.60782" lon="1.32342">
        <ele>187.4</ele>
        <time>2023-02-10T05:58:50Z</time>
      </trkpt>
      <trkpt lat="43.60795" lon="1.32346">
        <ele>187.4</ele>
        <time>2023-02-10T05:58:53Z</time>
      </trkpt>
      <trkpt lat="43.60805" lon="1.32347">
        <ele>187.4</ele>
        <time>2023-02-10T05:58:55Z</time>
      </trkpt>
      <trkpt lat="43.6082" lon="1.32345">
        <ele>187.4</ele>
        <time>2023-02-10T05:58:58Z</time>
      </trkpt>
      <trkpt lat="43.60835" lon="1.3234">
        <ele>187.4</ele>
        <time>2023-02-10T05:59:01Z</time>
      </trkpt>
      <trkpt lat="43.60864" lon="1.3232">
        <ele>187.8</ele>
        <time>2023-02-10T05:59:07Z</time>
      </trkpt>
      <trkpt lat="43.60869" lon="1.32318">
        <ele>187.8</ele>
        <time>2023-02-10T05:59:08Z</time>
      </trkpt>
      <trkpt lat="43.6088" lon="1.32319">
        <ele>188</ele>
        <time>2023-02-10T05:59:10Z</time>
      </trkpt>
      <trkpt lat="43.60892" lon="1.3232">
        <ele>187.8</ele>
        <time>2023-02-10T05:59:12Z</time>
      </trkpt>
      <trkpt lat="43.60902" lon="1.32318">
        <ele>187.8</ele>
        <time>2023-02-10T05:59:14Z</time>
      </trkpt>
      <trkpt lat="43.60907" lon="1.32316">
        <ele>187.8</ele>
        <time>2023-02-10T05:59:15Z</time>
      </trkpt>
      <trkpt lat="43.60924" lon="1.32307">
        <ele>187.8</ele>
        <time>2023-02-10T05:59:19Z</time>
      </trkpt>
      <trkpt lat="43.60935" lon="1.32301">
        <ele>188.6</ele>
        <time>2023-02-10T05:59:23Z</time>
      </trkpt>
      <trkpt lat="43.60938" lon="1.323">
        <ele>188.8</ele>
        <time>2023-02-10T05:59:24Z</time>
      </trkpt>
      <trkpt lat="43.6094" lon="1.323">
        <ele>189.2</ele>
        <time>2023-02-10T05:59:25Z</time>
      </trkpt>
      <trkpt lat="43.60942" lon="1.32302">
        <ele>189.8</ele>
        <time>2023-02-10T05:59:26Z</time>
      </trkpt>
      <trkpt lat="43.60943" lon="1.32305">
        <ele>190.4</ele>
        <time>2023-02-10T05:59:27Z</time>
      </trkpt>
      <trkpt lat="43.60944" lon="1.32309">
        <ele>190.8</ele>
        <time>2023-02-10T05:59:28Z</time>
      </trkpt>
      <trkpt lat="43.60945" lon="1.32321">
        <ele>192</ele>
        <time>2023-02-10T05:59:31Z</time>
      </trkpt>
      <trkpt lat="43.60944" lon="1.32324">
        <ele>192</ele>
        <time>2023-02-10T05:59:32Z</time>
      </trkpt>
      <trkpt lat="43.60929" lon="1.32331">
        <ele>192.4</ele>
        <time>2023-02-10T05:59:36Z</time>
      </trkpt>
      <trkpt lat="43.60898" lon="1.32346">
        <ele>191.8</ele>
        <time>2023-02-10T05:59:41Z</time>
      </trkpt>
      <trkpt lat="43.60891" lon="1.32349">
        <ele>190.8</ele>
        <time>2023-02-10T05:59:43Z</time>
      </trkpt>
      <trkpt lat="43.6089" lon="1.32351">
        <ele>189.4</ele>
        <time>2023-02-10T05:59:44Z</time>
      </trkpt>
      <trkpt lat="43.6089" lon="1.32352">
        <ele>188.8</ele>
        <time>2023-02-10T05:59:45Z</time>
      </trkpt>
      <trkpt lat="43.60888" lon="1.32352">
        <ele>188.2</ele>
        <time>2023-02-10T05:59:46Z</time>
      </trkpt>
      <trkpt lat="43.60884" lon="1.32354">
        <ele>187.4</ele>
        <time>2023-02-10T05:59:48Z</time>
      </trkpt>
      <trkpt lat="43.60878" lon="1.32357">
        <ele>187</ele>
        <time>2023-02-10T05:59:50Z</time>
      </trkpt>
      <trkpt lat="43.60875" lon="1.3236">
        <ele>187</ele>
        <time>2023-02-10T05:59:51Z</time>
      </trkpt>
      <trkpt lat="43.60873" lon="1.32365">
        <ele>187</ele>
        <time>2023-02-10T05:59:52Z</time>
      </trkpt>
      <trkpt lat="43.60875" lon="1.32389">
        <ele>186.8</ele>
        <time>2023-02-10T05:59:56Z</time>
      </trkpt>
      <trkpt lat="43.6088" lon="1.32409">
        <ele>186.8</ele>
        <time>2023-02-10T05:59:59Z</time>
      </trkpt>
      <trkpt lat="43.60884" lon="1.32421">
        <ele>186.6</ele>
        <time>2023-02-10T06:00:01Z</time>
      </trkpt>
      <trkpt lat="43.60886" lon="1.32427">
        <ele>186.6</ele>
        <time>2023-02-10T06:00:02Z</time>
      </trkpt>
      <trkpt lat="43.6089" lon="1.32438">
        <ele>187</ele>
        <time>2023-02-10T06:00:04Z</time>
      </trkpt>
      <trkpt lat="43.60893" lon="1.32455">
        <ele>187</ele>
        <time>2023-02-10T06:00:06Z</time>
      </trkpt>
      <trkpt lat="43.60894" lon="1.32461">
        <ele>187</ele>
        <time>2023-02-10T06:00:07Z</time>
      </trkpt>
      <trkpt lat="43.60897" lon="1.32467">
        <ele>187</ele>
        <time>2023-02-10T06:00:08Z</time>
      </trkpt>
      <trkpt lat="43.60907" lon="1.3248">
        <ele>187</ele>
        <time>2023-02-10T06:00:10Z</time>
      </trkpt>
      <trkpt lat="43.60918" lon="1.32493">
        <ele>187</ele>
        <time>2023-02-10T06:00:13Z</time>
      </trkpt>
      <trkpt lat="43.6092" lon="1.32502">
        <ele>187</ele>
        <time>2023-02-10T06:00:15Z</time>
      </trkpt>
      <trkpt lat="43.60916" lon="1.32513">
        <ele>186.6</ele>
        <time>2023-02-10T06:00:17Z</time>
      </trkpt>
      <trkpt lat="43.60913" lon="1.32525">
        <ele>186.6</ele>
        <time>2023-02-10T06:00:19Z</time>
      </trkpt>
      <trkpt lat="43.60915" lon="1.32537">
        <ele>186.4</ele>
        <time>2023-02-10T06:00:21Z</time>
      </trkpt>
      <trkpt lat="43.60918" lon="1.32543">
        <ele>186.2</ele>
        <time>2023-02-10T06:00:22Z</time>
      </trkpt>
      <trkpt lat="43.60922" lon="1.32548">
        <ele>186.2</ele>
        <time>2023-02-10T06:00:23Z</time>
      </trkpt>
      <trkpt lat="43.60935" lon="1.32558">
        <ele>186.4</ele>
        <time>2023-02-10T06:00:26Z</time>
      </trkpt>
      <trkpt lat="43.60943" lon="1.32561">
        <ele>186.4</ele>
        <time>2023-02-10T06:00:28Z</time>
      </trkpt>
      <trkpt lat="43.60947" lon="1.32565">
        <ele>186.2</ele>
        <time>2023-02-10T06:00:30Z</time>
      </trkpt>
      <trkpt lat="43.60947" lon="1.32572">
        <ele>186.2</ele>
        <time>2023-02-10T06:00:32Z</time>
      </trkpt>
      <trkpt lat="43.60944" lon="1.32579">
        <ele>186.2</ele>
        <time>2023-02-10T06:00:34Z</time>
      </trkpt>
      <trkpt lat="43.60929" lon="1.32603">
        <ele>186.2</ele>
        <time>2023-02-10T06:00:39Z</time>
      </trkpt>
      <trkpt lat="43.60911" lon="1.32629">
        <ele>186.2</ele>
        <time>2023-02-10T06:00:44Z</time>
      </trkpt>
      <trkpt lat="43.60906" lon="1.32633">
        <ele>186.4</ele>
        <time>2023-02-10T06:00:45Z</time>
      </trkpt>
      <trkpt lat="43.6088" lon="1.32649">
        <ele>186.4</ele>
        <time>2023-02-10T06:00:50Z</time>
      </trkpt>
      <trkpt lat="43.60876" lon="1.32654">
        <ele>186.4</ele>
        <time>2023-02-10T06:00:51Z</time>
      </trkpt>
      <trkpt lat="43.60871" lon="1.32659">
        <ele>186.4</ele>
        <time>2023-02-10T06:00:52Z</time>
      </trkpt>
      <trkpt lat="43.60864" lon="1.32672">
        <ele>186.6</ele>
        <time>2023-02-10T06:00:54Z</time>
      </trkpt>
      <trkpt lat="43.60862" lon="1.32679">
        <ele>186.6</ele>
        <time>2023-02-10T06:00:55Z</time>
      </trkpt>
      <trkpt lat="43.6086" lon="1.32687">
        <ele>186.6</ele>
        <time>2023-02-10T06:00:56Z</time>
      </trkpt>
      <trkpt lat="43.60859" lon="1.32703">
        <ele>186.4</ele>
        <time>2023-02-10T06:00:58Z</time>
      </trkpt>
      <trkpt lat="43.6086" lon="1.32712">
        <ele>186.4</ele>
        <time>2023-02-10T06:00:59Z</time>
      </trkpt>
      <trkpt lat="43.60862" lon="1.3272">
        <ele>186.2</ele>
        <time>2023-02-10T06:01:00Z</time>
      </trkpt>
      <trkpt lat="43.60868" lon="1.32733">
        <ele>186.2</ele>
        <time>2023-02-10T06:01:02Z</time>
      </trkpt>
      <trkpt lat="43.60873" lon="1.32739">
        <ele>186.2</ele>
        <time>2023-02-10T06:01:03Z</time>
      </trkpt>
      <trkpt lat="43.60878" lon="1.32744">
        <ele>186.2</ele>
        <time>2023-02-10T06:01:04Z</time>
      </trkpt>
      <trkpt lat="43.6089" lon="1.32749">
        <ele>186.2</ele>
        <time>2023-02-10T06:01:06Z</time>
      </trkpt>
      <trkpt lat="43.60918" lon="1.32748">
        <ele>186.2</ele>
        <time>2023-02-10T06:01:10Z</time>
      </trkpt>
      <trkpt lat="43.60929" lon="1.32752">
        <ele>186.4</ele>
        <time>2023-02-10T06:01:12Z</time>
      </trkpt>
      <trkpt lat="43.60935" lon="1.32757">
        <ele>186.4</ele>
        <time>2023-02-10T06:01:13Z</time>
      </trkpt>
      <trkpt lat="43.6097" lon="1.32799">
        <ele>186.2</ele>
        <time>2023-02-10T06:01:20Z</time>
      </trkpt>
      <trkpt lat="43.61013" lon="1.32855">
        <ele>186.6</ele>
        <time>2023-02-10T06:01:29Z</time>
      </trkpt>
      <trkpt lat="43.61017" lon="1.3286">
        <ele>186.6</ele>
        <time>2023-02-10T06:01:30Z</time>
      </trkpt>
      <trkpt lat="43.6106" lon="1.32911">
        <ele>187</ele>
        <time>2023-02-10T06:01:39Z</time>
      </trkpt>
      <trkpt lat="43.61064" lon="1.32917">
        <ele>187</ele>
        <time>2023-02-10T06:01:40Z</time>
      </trkpt>
      <trkpt lat="43.61071" lon="1.3293">
        <ele>187</ele>
        <time>2023-02-10T06:01:42Z</time>
      </trkpt>
      <trkpt lat="43.6108" lon="1.32941">
        <ele>187</ele>
        <time>2023-02-10T06:01:44Z</time>
      </trkpt>
      <trkpt lat="43.61086" lon="1.32945">
        <ele>187</ele>
        <time>2023-02-10T06:01:45Z</time>
      </trkpt>
      <trkpt lat="43.61098" lon="1.32952">
        <ele>187</ele>
        <time>2023-02-10T06:01:47Z</time>
      </trkpt>
      <trkpt lat="43.61109" lon="1.32964">
        <ele>187</ele>
        <time>2023-02-10T06:01:49Z</time>
      </trkpt>
      <trkpt lat="43.61143" lon="1.33004">
        <ele>185.8</ele>
        <time>2023-02-10T06:01:55Z</time>
      </trkpt>
      <trkpt lat="43.61148" lon="1.33011">
        <ele>185.4</ele>
        <time>2023-02-10T06:01:56Z</time>
      </trkpt>
      <trkpt lat="43.61164" lon="1.33031">
        <ele>184.8</ele>
        <time>2023-02-10T06:01:59Z</time>
      </trkpt>
      <trkpt lat="43.61195" lon="1.33067">
        <ele>184.2</ele>
        <time>2023-02-10T06:02:05Z</time>
      </trkpt>
      <trkpt lat="43.61228" lon="1.33091">
        <ele>184.4</ele>
        <time>2023-02-10T06:02:11Z</time>
      </trkpt>
      <trkpt lat="43.61244" lon="1.33101">
        <ele>184.6</ele>
        <time>2023-02-10T06:02:14Z</time>
      </trkpt>
      <trkpt lat="43.61253" lon="1.33111">
        <ele>184.8</ele>
        <time>2023-02-10T06:02:16Z</time>
      </trkpt>
      <trkpt lat="43.61257" lon="1.33127">
        <ele>185</ele>
        <time>2023-02-10T06:02:18Z</time>
      </trkpt>
      <trkpt lat="43.61258" lon="1.33135">
        <ele>185.2</ele>
        <time>2023-02-10T06:02:19Z</time>
      </trkpt>
      <trkpt lat="43.6126" lon="1.33151">
        <ele>185.2</ele>
        <time>2023-02-10T06:02:21Z</time>
      </trkpt>
      <trkpt lat="43.61265" lon="1.33166">
        <ele>185.4</ele>
        <time>2023-02-10T06:02:23Z</time>
      </trkpt>
      <trkpt lat="43.61269" lon="1.33173">
        <ele>185.4</ele>
        <time>2023-02-10T06:02:24Z</time>
      </trkpt>
      <trkpt lat="43.61278" lon="1.33184">
        <ele>185.4</ele>
        <time>2023-02-10T06:02:26Z</time>
      </trkpt>
      <trkpt lat="43.61283" lon="1.33187">
        <ele>185.6</ele>
        <time>2023-02-10T06:02:27Z</time>
      </trkpt>
      <trkpt lat="43.6129" lon="1.33188">
        <ele>185.6</ele>
        <time>2023-02-10T06:02:28Z</time>
      </trkpt>
      <trkpt lat="43.61302" lon="1.33185">
        <ele>185.6</ele>
        <time>2023-02-10T06:02:30Z</time>
      </trkpt>
      <trkpt lat="43.61307" lon="1.33182">
        <ele>185.8</ele>
        <time>2023-02-10T06:02:31Z</time>
      </trkpt>
      <trkpt lat="43.61312" lon="1.33176">
        <ele>185.8</ele>
        <time>2023-02-10T06:02:32Z</time>
      </trkpt>
      <trkpt lat="43.61317" lon="1.33169">
        <ele>185.8</ele>
        <time>2023-02-10T06:02:33Z</time>
      </trkpt>
      <trkpt lat="43.61331" lon="1.33148">
        <ele>185.8</ele>
        <time>2023-02-10T06:02:36Z</time>
      </trkpt>
      <trkpt lat="43.61342" lon="1.33138">
        <ele>185.8</ele>
        <time>2023-02-10T06:02:38Z</time>
      </trkpt>
      <trkpt lat="43.61355" lon="1.33136">
        <ele>185.8</ele>
        <time>2023-02-10T06:02:40Z</time>
      </trkpt>
      <trkpt lat="43.61362" lon="1.33137">
        <ele>185.8</ele>
        <time>2023-02-10T06:02:41Z</time>
      </trkpt>
      <trkpt lat="43.61382" lon="1.33138">
        <ele>185.8</ele>
        <time>2023-02-10T06:02:44Z</time>
      </trkpt>
      <trkpt lat="43.614" lon="1.33144">
        <ele>185.6</ele>
        <time>2023-02-10T06:02:47Z</time>
      </trkpt>
      <trkpt lat="43.61454" lon="1.33176">
        <ele>185.8</ele>
        <time>2023-02-10T06:02:56Z</time>
      </trkpt>
      <trkpt lat="43.61505" lon="1.33212">
        <ele>185.8</ele>
        <time>2023-02-10T06:03:05Z</time>
      </trkpt>
      <trkpt lat="43.61517" lon="1.3322">
        <ele>185.8</ele>
        <time>2023-02-10T06:03:07Z</time>
      </trkpt>
      <trkpt lat="43.61565" lon="1.33247">
        <ele>185.8</ele>
        <time>2023-02-10T06:03:15Z</time>
      </trkpt>
      <trkpt lat="43.61576" lon="1.33254">
        <ele>185.6</ele>
        <time>2023-02-10T06:03:17Z</time>
      </trkpt>
      <trkpt lat="43.61584" lon="1.33263">
        <ele>185.4</ele>
        <time>2023-02-10T06:03:19Z</time>
      </trkpt>
      <trkpt lat="43.61594" lon="1.33279">
        <ele>185.4</ele>
        <time>2023-02-10T06:03:22Z</time>
      </trkpt>
      <trkpt lat="43.61597" lon="1.33282">
        <ele>185.2</ele>
        <time>2023-02-10T06:03:23Z</time>
      </trkpt>
      <trkpt lat="43.61601" lon="1.33284">
        <ele>185.2</ele>
        <time>2023-02-10T06:03:24Z</time>
      </trkpt>
      <trkpt lat="43.61618" lon="1.33291">
        <ele>185.2</ele>
        <time>2023-02-10T06:03:28Z</time>
      </trkpt>
      <trkpt lat="43.61623" lon="1.33292">
        <ele>185.2</ele>
        <time>2023-02-10T06:03:29Z</time>
      </trkpt>
      <trkpt lat="43.61634" lon="1.33293">
        <ele>185.2</ele>
        <time>2023-02-10T06:03:31Z</time>
      </trkpt>
      <trkpt lat="43.61644" lon="1.33298">
        <ele>185.2</ele>
        <time>2023-02-10T06:03:33Z</time>
      </trkpt>
      <trkpt lat="43.61652" lon="1.3331">
        <ele>185.2</ele>
        <time>2023-02-10T06:03:35Z</time>
      </trkpt>
      <trkpt lat="43.61658" lon="1.33324">
        <ele>185.2</ele>
        <time>2023-02-10T06:03:37Z</time>
      </trkpt>
      <trkpt lat="43.61667" lon="1.33335">
        <ele>185.2</ele>
        <time>2023-02-10T06:03:39Z</time>
      </trkpt>
      <trkpt lat="43.61678" lon="1.33343">
        <ele>185.2</ele>
        <time>2023-02-10T06:03:41Z</time>
      </trkpt>
      <trkpt lat="43.61729" lon="1.33371">
        <ele>185.2</ele>
        <time>2023-02-10T06:03:49Z</time>
      </trkpt>
      <trkpt lat="43.61742" lon="1.33379">
        <ele>185</ele>
        <time>2023-02-10T06:03:51Z</time>
      </trkpt>
      <trkpt lat="43.61788" lon="1.33408">
        <ele>184.6</ele>
        <time>2023-02-10T06:03:58Z</time>
      </trkpt>
      <trkpt lat="43.61829" lon="1.33449">
        <ele>184</ele>
        <time>2023-02-10T06:04:05Z</time>
      </trkpt>
      <trkpt lat="43.6184" lon="1.33463">
        <ele>183.8</ele>
        <time>2023-02-10T06:04:07Z</time>
      </trkpt>
      <trkpt lat="43.61864" lon="1.33501">
        <ele>183.6</ele>
        <time>2023-02-10T06:04:12Z</time>
      </trkpt>
      <trkpt lat="43.61897" lon="1.33566">
        <ele>183.4</ele>
        <time>2023-02-10T06:04:20Z</time>
      </trkpt>
      <trkpt lat="43.619" lon="1.33575">
        <ele>183.4</ele>
        <time>2023-02-10T06:04:21Z</time>
      </trkpt>
      <trkpt lat="43.61903" lon="1.33584">
        <ele>183.4</ele>
        <time>2023-02-10T06:04:22Z</time>
      </trkpt>
      <trkpt lat="43.61904" lon="1.33603">
        <ele>183.2</ele>
        <time>2023-02-10T06:04:24Z</time>
      </trkpt>
      <trkpt lat="43.61903" lon="1.33643">
        <ele>183</ele>
        <time>2023-02-10T06:04:28Z</time>
      </trkpt>
      <trkpt lat="43.61905" lon="1.33653">
        <ele>183</ele>
        <time>2023-02-10T06:04:29Z</time>
      </trkpt>
      <trkpt lat="43.61907" lon="1.33662">
        <ele>183</ele>
        <time>2023-02-10T06:04:30Z</time>
      </trkpt>
      <trkpt lat="43.61915" lon="1.33678">
        <ele>183</ele>
        <time>2023-02-10T06:04:32Z</time>
      </trkpt>
      <trkpt lat="43.61927" lon="1.33689">
        <ele>183</ele>
        <time>2023-02-10T06:04:34Z</time>
      </trkpt>
      <trkpt lat="43.61933" lon="1.33692">
        <ele>183</ele>
        <time>2023-02-10T06:04:35Z</time>
      </trkpt>
      <trkpt lat="43.61941" lon="1.33692">
        <ele>183</ele>
        <time>2023-02-10T06:04:36Z</time>
      </trkpt>
      <trkpt lat="43.61954" lon="1.33688">
        <ele>183</ele>
        <time>2023-02-10T06:04:38Z</time>
      </trkpt>
      <trkpt lat="43.6197" lon="1.3368">
        <ele>183</ele>
        <time>2023-02-10T06:04:41Z</time>
      </trkpt>
      <trkpt lat="43.61973" lon="1.3368">
        <ele>183</ele>
        <time>2023-02-10T06:04:42Z</time>
      </trkpt>
      <trkpt lat="43.61975" lon="1.33682">
        <ele>182.8</ele>
        <time>2023-02-10T06:04:43Z</time>
      </trkpt>
      <trkpt lat="43.61975" lon="1.33686">
        <ele>182.8</ele>
        <time>2023-02-10T06:04:44Z</time>
      </trkpt>
      <trkpt lat="43.61972" lon="1.33689">
        <ele>182.8</ele>
        <time>2023-02-10T06:04:45Z</time>
      </trkpt>
      <trkpt lat="43.61965" lon="1.33695">
        <ele>182.8</ele>
        <time>2023-02-10T06:04:47Z</time>
      </trkpt>
      <trkpt lat="43.61952" lon="1.33704">
        <ele>182.8</ele>
        <time>2023-02-10T06:04:50Z</time>
      </trkpt>
      <trkpt lat="43.61944" lon="1.33712">
        <ele>182.8</ele>
        <time>2023-02-10T06:04:52Z</time>
      </trkpt>
      <trkpt lat="43.61937" lon="1.33723">
        <ele>182.8</ele>
        <time>2023-02-10T06:04:54Z</time>
      </trkpt>
      <trkpt lat="43.61931" lon="1.33738">
        <ele>182.6</ele>
        <time>2023-02-10T06:04:56Z</time>
      </trkpt>
      <trkpt lat="43.61926" lon="1.33751">
        <ele>182.6</ele>
        <time>2023-02-10T06:04:58Z</time>
      </trkpt>
      <trkpt lat="43.61914" lon="1.33779">
        <ele>182.6</ele>
        <time>2023-02-10T06:05:02Z</time>
      </trkpt>
      <trkpt lat="43.61907" lon="1.33793">
        <ele>182.6</ele>
        <time>2023-02-10T06:05:04Z</time>
      </trkpt>
      <trkpt lat="43.6189" lon="1.33817">
        <ele>182.4</ele>
        <time>2023-02-10T06:05:08Z</time>
      </trkpt>
      <trkpt lat="43.61854" lon="1.33868">
        <ele>182.2</ele>
        <time>2023-02-10T06:05:16Z</time>
      </trkpt>
      <trkpt lat="43.61848" lon="1.33883">
        <ele>181.8</ele>
        <time>2023-02-10T06:05:18Z</time>
      </trkpt>
      <trkpt lat="43.61844" lon="1.33898">
        <ele>181.8</ele>
        <time>2023-02-10T06:05:20Z</time>
      </trkpt>
      <trkpt lat="43.61843" lon="1.33905">
        <ele>181.6</ele>
        <time>2023-02-10T06:05:21Z</time>
      </trkpt>
      <trkpt lat="43.61841" lon="1.33918">
        <ele>181.6</ele>
        <time>2023-02-10T06:05:23Z</time>
      </trkpt>
      <trkpt lat="43.61835" lon="1.33929">
        <ele>181</ele>
        <time>2023-02-10T06:05:25Z</time>
      </trkpt>
      <trkpt lat="43.61831" lon="1.33932">
        <ele>180.6</ele>
        <time>2023-02-10T06:05:26Z</time>
      </trkpt>
      <trkpt lat="43.61827" lon="1.33933">
        <ele>180.6</ele>
        <time>2023-02-10T06:05:27Z</time>
      </trkpt>
      <trkpt lat="43.61823" lon="1.33933">
        <ele>180.4</ele>
        <time>2023-02-10T06:05:28Z</time>
      </trkpt>
      <trkpt lat="43.61819" lon="1.33935">
        <ele>180.2</ele>
        <time>2023-02-10T06:05:29Z</time>
      </trkpt>
      <trkpt lat="43.61812" lon="1.33944">
        <ele>180.2</ele>
        <time>2023-02-10T06:05:31Z</time>
      </trkpt>
      <trkpt lat="43.61793" lon="1.33969">
        <ele>179.8</ele>
        <time>2023-02-10T06:05:35Z</time>
      </trkpt>
      <trkpt lat="43.61787" lon="1.33975">
        <ele>179.6</ele>
        <time>2023-02-10T06:05:36Z</time>
      </trkpt>
      <trkpt lat="43.61769" lon="1.3399">
        <ele>178.2</ele>
        <time>2023-02-10T06:05:39Z</time>
      </trkpt>
      <trkpt lat="43.61765" lon="1.33992">
        <ele>178</ele>
        <time>2023-02-10T06:05:40Z</time>
      </trkpt>
      <trkpt lat="43.61762" lon="1.33994">
        <ele>177.2</ele>
        <time>2023-02-10T06:05:41Z</time>
      </trkpt>
      <trkpt lat="43.6176" lon="1.33995">
        <ele>175.6</ele>
        <time>2023-02-10T06:05:43Z</time>
      </trkpt>
      <trkpt lat="43.6176" lon="1.33995">
        <ele>175</ele>
        <time>2023-02-10T06:05:44Z</time>
      </trkpt>
      <trkpt lat="43.61761" lon="1.34002">
        <ele>172</ele>
        <time>2023-02-10T06:05:49Z</time>
      </trkpt>
      <trkpt lat="43.61764" lon="1.34012">
        <ele>171.6</ele>
        <time>2023-02-10T06:05:51Z</time>
      </trkpt>
      <trkpt lat="43.61773" lon="1.34042">
        <ele>171.2</ele>
        <time>2023-02-10T06:05:55Z</time>
      </trkpt>
      <trkpt lat="43.61779" lon="1.34061">
        <ele>170.8</ele>
        <time>2023-02-10T06:05:57Z</time>
      </trkpt>
      <trkpt lat="43.61787" lon="1.34094">
        <ele>169.8</ele>
        <time>2023-02-10T06:06:00Z</time>
      </trkpt>
      <trkpt lat="43.61794" lon="1.34116">
        <ele>168.6</ele>
        <time>2023-02-10T06:06:02Z</time>
      </trkpt>
      <trkpt lat="43.61798" lon="1.34137">
        <ele>167.2</ele>
        <time>2023-02-10T06:06:04Z</time>
      </trkpt>
      <trkpt lat="43.61801" lon="1.34146">
        <ele>166.8</ele>
        <time>2023-02-10T06:06:05Z</time>
      </trkpt>
      <trkpt lat="43.61804" lon="1.34154">
        <ele>166</ele>
        <time>2023-02-10T06:06:06Z</time>
      </trkpt>
      <trkpt lat="43.61813" lon="1.3417">
        <ele>165</ele>
        <time>2023-02-10T06:06:08Z</time>
      </trkpt>
      <trkpt lat="43.61819" lon="1.34176">
        <ele>164.8</ele>
        <time>2023-02-10T06:06:09Z</time>
      </trkpt>
      <trkpt lat="43.61835" lon="1.34197">
        <ele>163.6</ele>
        <time>2023-02-10T06:06:12Z</time>
      </trkpt>
      <trkpt lat="43.61863" lon="1.34231">
        <ele>162.8</ele>
        <time>2023-02-10T06:06:17Z</time>
      </trkpt>
      <trkpt lat="43.61875" lon="1.34244">
        <ele>162.6</ele>
        <time>2023-02-10T06:06:19Z</time>
      </trkpt>
      <trkpt lat="43.61898" lon="1.34271">
        <ele>162</ele>
        <time>2023-02-10T06:06:23Z</time>
      </trkpt>
      <trkpt lat="43.61937" lon="1.34314">
        <ele>161.6</ele>
        <time>2023-02-10T06:06:30Z</time>
      </trkpt>
      <trkpt lat="43.61943" lon="1.34319">
        <ele>161.4</ele>
        <time>2023-02-10T06:06:31Z</time>
      </trkpt>
      <trkpt lat="43.61964" lon="1.34341">
        <ele>161.2</ele>
        <time>2023-02-10T06:06:35Z</time>
      </trkpt>
      <trkpt lat="43.61969" lon="1.34345">
        <ele>160.8</ele>
        <time>2023-02-10T06:06:36Z</time>
      </trkpt>
      <trkpt lat="43.61975" lon="1.34351">
        <ele>160.8</ele>
        <time>2023-02-10T06:06:37Z</time>
      </trkpt>
      <trkpt lat="43.6199" lon="1.34367">
        <ele>160.4</ele>
        <time>2023-02-10T06:06:40Z</time>
      </trkpt>
      <trkpt lat="43.61995" lon="1.34373">
        <ele>160.2</ele>
        <time>2023-02-10T06:06:41Z</time>
      </trkpt>
      <trkpt lat="43.62019" lon="1.34403">
        <ele>159.8</ele>
        <time>2023-02-10T06:06:46Z</time>
      </trkpt>
      <trkpt lat="43.62023" lon="1.3441">
        <ele>159.8</ele>
        <time>2023-02-10T06:06:47Z</time>
      </trkpt>
      <trkpt lat="43.62027" lon="1.34417">
        <ele>159.6</ele>
        <time>2023-02-10T06:06:48Z</time>
      </trkpt>
      <trkpt lat="43.62031" lon="1.34432">
        <ele>159.4</ele>
        <time>2023-02-10T06:06:50Z</time>
      </trkpt>
      <trkpt lat="43.6203" lon="1.3444">
        <ele>159.4</ele>
        <time>2023-02-10T06:06:51Z</time>
      </trkpt>
      <trkpt lat="43.62029" lon="1.34446">
        <ele>159.2</ele>
        <time>2023-02-10T06:06:52Z</time>
      </trkpt>
      <trkpt lat="43.62025" lon="1.34456">
        <ele>159</ele>
        <time>2023-02-10T06:06:54Z</time>
      </trkpt>
      <trkpt lat="43.62025" lon="1.34461">
        <ele>158.8</ele>
        <time>2023-02-10T06:06:55Z</time>
      </trkpt>
      <trkpt lat="43.62029" lon="1.34466">
        <ele>158.4</ele>
        <time>2023-02-10T06:06:57Z</time>
      </trkpt>
      <trkpt lat="43.62039" lon="1.34459">
        <ele>158.2</ele>
        <time>2023-02-10T06:07:00Z</time>
      </trkpt>
      <trkpt lat="43.62043" lon="1.34457">
        <ele>158.2</ele>
        <time>2023-02-10T06:07:01Z</time>
      </trkpt>
      <trkpt lat="43.62047" lon="1.34457">
        <ele>158.2</ele>
        <time>2023-02-10T06:07:02Z</time>
      </trkpt>
      <trkpt lat="43.62057" lon="1.34457">
        <ele>158.2</ele>
        <time>2023-02-10T06:07:04Z</time>
      </trkpt>
      <trkpt lat="43.62068" lon="1.34459">
        <ele>158.2</ele>
        <time>2023-02-10T06:07:06Z</time>
      </trkpt>
      <trkpt lat="43.62078" lon="1.34466">
        <ele>158.2</ele>
        <time>2023-02-10T06:07:08Z</time>
      </trkpt>
      <trkpt lat="43.62109" lon="1.34499">
        <ele>158.4</ele>
        <time>2023-02-10T06:07:14Z</time>
      </trkpt>
      <trkpt lat="43.62157" lon="1.34544">
        <ele>158</ele>
        <time>2023-02-10T06:07:23Z</time>
      </trkpt>
      <trkpt lat="43.62208" lon="1.34585">
        <ele>157.8</ele>
        <time>2023-02-10T06:07:32Z</time>
      </trkpt>
      <trkpt lat="43.62258" lon="1.34618">
        <ele>157.6</ele>
        <time>2023-02-10T06:07:40Z</time>
      </trkpt>
      <trkpt lat="43.62309" lon="1.34642">
        <ele>157.4</ele>
        <time>2023-02-10T06:07:48Z</time>
      </trkpt>
      <trkpt lat="43.62322" lon="1.34648">
        <ele>157.2</ele>
        <time>2023-02-10T06:07:50Z</time>
      </trkpt>
      <trkpt lat="43.62369" lon="1.34671">
        <ele>157</ele>
        <time>2023-02-10T06:07:58Z</time>
      </trkpt>
      <trkpt lat="43.62377" lon="1.34681">
        <ele>157</ele>
        <time>2023-02-10T06:08:00Z</time>
      </trkpt>
      <trkpt lat="43.62384" lon="1.34692">
        <ele>156.8</ele>
        <time>2023-02-10T06:08:02Z</time>
      </trkpt>
      <trkpt lat="43.62394" lon="1.347">
        <ele>156.8</ele>
        <time>2023-02-10T06:08:05Z</time>
      </trkpt>
      <trkpt lat="43.62397" lon="1.34698">
        <ele>156.8</ele>
        <time>2023-02-10T06:08:06Z</time>
      </trkpt>
      <trkpt lat="43.62407" lon="1.34693">
        <ele>156.8</ele>
        <time>2023-02-10T06:08:08Z</time>
      </trkpt>
      <trkpt lat="43.62419" lon="1.3469">
        <ele>156.8</ele>
        <time>2023-02-10T06:08:10Z</time>
      </trkpt>
      <trkpt lat="43.62457" lon="1.3469">
        <ele>156.6</ele>
        <time>2023-02-10T06:08:16Z</time>
      </trkpt>
      <trkpt lat="43.62488" lon="1.34691">
        <ele>156.6</ele>
        <time>2023-02-10T06:08:21Z</time>
      </trkpt>
      <trkpt lat="43.62493" lon="1.34692">
        <ele>156.6</ele>
        <time>2023-02-10T06:08:22Z</time>
      </trkpt>
      <trkpt lat="43.62498" lon="1.34696">
        <ele>156.4</ele>
        <time>2023-02-10T06:08:23Z</time>
      </trkpt>
      <trkpt lat="43.62503" lon="1.34709">
        <ele>156.4</ele>
        <time>2023-02-10T06:08:25Z</time>
      </trkpt>
      <trkpt lat="43.62504" lon="1.34715">
        <ele>156.4</ele>
        <time>2023-02-10T06:08:26Z</time>
      </trkpt>
      <trkpt lat="43.62507" lon="1.34728">
        <ele>156.2</ele>
        <time>2023-02-10T06:08:28Z</time>
      </trkpt>
      <trkpt lat="43.62508" lon="1.34733">
        <ele>156.2</ele>
        <time>2023-02-10T06:08:29Z</time>
      </trkpt>
      <trkpt lat="43.62508" lon="1.34743">
        <ele>156</ele>
        <time>2023-02-10T06:08:33Z</time>
      </trkpt>
      <trkpt lat="43.62508" lon="1.34743">
        <ele>156</ele>
        <time>2023-02-10T06:08:35Z</time>
      </trkpt>
      <trkpt lat="43.62508" lon="1.3475">
        <ele>155.2</ele>
        <time>2023-02-10T06:08:58Z</time>
      </trkpt>
      <trkpt lat="43.62509" lon="1.34754">
        <ele>155.2</ele>
        <time>2023-02-10T06:08:59Z</time>
      </trkpt>
      <trkpt lat="43.62508" lon="1.34758">
        <ele>155.2</ele>
        <time>2023-02-10T06:09:00Z</time>
      </trkpt>
      <trkpt lat="43.62504" lon="1.34765">
        <ele>155.2</ele>
        <time>2023-02-10T06:09:02Z</time>
      </trkpt>
      <trkpt lat="43.62484" lon="1.34769">
        <ele>155.2</ele>
        <time>2023-02-10T06:09:07Z</time>
      </trkpt>
      <trkpt lat="43.6247" lon="1.3477">
        <ele>155.4</ele>
        <time>2023-02-10T06:09:10Z</time>
      </trkpt>
      <trkpt lat="43.62461" lon="1.34771">
        <ele>155.4</ele>
        <time>2023-02-10T06:09:12Z</time>
      </trkpt>
      <trkpt lat="43.62455" lon="1.34771">
        <ele>155.4</ele>
        <time>2023-02-10T06:09:13Z</time>
      </trkpt>
      <trkpt lat="43.62444" lon="1.34775">
        <ele>155.6</ele>
        <time>2023-02-10T06:09:15Z</time>
      </trkpt>
      <trkpt lat="43.62439" lon="1.34776">
        <ele>155.8</ele>
        <time>2023-02-10T06:09:16Z</time>
      </trkpt>
      <trkpt lat="43.62414" lon="1.3478">
        <ele>156.2</ele>
        <time>2023-02-10T06:09:20Z</time>
      </trkpt>
      <trkpt lat="43.62395" lon="1.34779">
        <ele>156.4</ele>
        <time>2023-02-10T06:09:23Z</time>
      </trkpt>
      <trkpt lat="43.62389" lon="1.34778">
        <ele>156.6</ele>
        <time>2023-02-10T06:09:24Z</time>
      </trkpt>
      <trkpt lat="43.62355" lon="1.34778">
        <ele>156.8</ele>
        <time>2023-02-10T06:09:30Z</time>
      </trkpt>
      <trkpt lat="43.62349" lon="1.34779">
        <ele>156.8</ele>
        <time>2023-02-10T06:09:31Z</time>
      </trkpt>
      <trkpt lat="43.62333" lon="1.34788">
        <ele>157</ele>
        <time>2023-02-10T06:09:34Z</time>
      </trkpt>
      <trkpt lat="43.62328" lon="1.34792">
        <ele>157</ele>
        <time>2023-02-10T06:09:35Z</time>
      </trkpt>
      <trkpt lat="43.62287" lon="1.34833">
        <ele>156.8</ele>
        <time>2023-02-10T06:09:43Z</time>
      </trkpt>
      <trkpt lat="43.62257" lon="1.34868">
        <ele>156</ele>
        <time>2023-02-10T06:09:50Z</time>
      </trkpt>
      <trkpt lat="43.62255" lon="1.34872">
        <ele>155.8</ele>
        <time>2023-02-10T06:09:51Z</time>
      </trkpt>
      <trkpt lat="43.62254" lon="1.3488">
        <ele>155.6</ele>
        <time>2023-02-10T06:09:53Z</time>
      </trkpt>
      <trkpt lat="43.62255" lon="1.3489">
        <ele>155.4</ele>
        <time>2023-02-10T06:09:55Z</time>
      </trkpt>
      <trkpt lat="43.62257" lon="1.34926">
        <ele>154.8</ele>
        <time>2023-02-10T06:10:00Z</time>
      </trkpt>
      <trkpt lat="43.62257" lon="1.34933">
        <ele>154.8</ele>
        <time>2023-02-10T06:10:01Z</time>
      </trkpt>
      <trkpt lat="43.62258" lon="1.34965">
        <ele>154.4</ele>
        <time>2023-02-10T06:10:05Z</time>
      </trkpt>
      <trkpt lat="43.62261" lon="1.35044">
        <ele>154.2</ele>
        <time>2023-02-10T06:10:15Z</time>
      </trkpt>
      <trkpt lat="43.62263" lon="1.35122">
        <ele>154.2</ele>
        <time>2023-02-10T06:10:25Z</time>
      </trkpt>
      <trkpt lat="43.62263" lon="1.35136">
        <ele>154.2</ele>
        <time>2023-02-10T06:10:27Z</time>
      </trkpt>
      <trkpt lat="43.62265" lon="1.35153">
        <ele>154</ele>
        <time>2023-02-10T06:10:30Z</time>
      </trkpt>
      <trkpt lat="43.62266" lon="1.35157">
        <ele>154</ele>
        <time>2023-02-10T06:10:31Z</time>
      </trkpt>
      <trkpt lat="43.62268" lon="1.35158">
        <ele>154</ele>
        <time>2023-02-10T06:10:32Z</time>
      </trkpt>
      <trkpt lat="43.6227" lon="1.35156">
        <ele>154</ele>
        <time>2023-02-10T06:10:34Z</time>
      </trkpt>
      <trkpt lat="43.6227" lon="1.35155">
        <ele>153.8</ele>
        <time>2023-02-10T06:10:37Z</time>
      </trkpt>
      <trkpt lat="43.62267" lon="1.35167">
        <ele>150.8</ele>
        <time>2023-02-10T06:19:15Z</time>
      </trkpt>
      <trkpt lat="43.62265" lon="1.35186">
        <ele>153.8</ele>
        <time>2023-02-10T06:19:20Z</time>
      </trkpt>
      <trkpt lat="43.62269" lon="1.35212">
        <ele>153.8</ele>
        <time>2023-02-10T06:19:26Z</time>
      </trkpt>
      <trkpt lat="43.6228" lon="1.35229">
        <ele>153.8</ele>
        <time>2023-02-10T06:19:31Z</time>
      </trkpt>
      <trkpt lat="43.62281" lon="1.35231">
        <ele>154</ele>
        <time>2023-02-10T06:19:32Z</time>
      </trkpt>
      <trkpt lat="43.62283" lon="1.35239">
        <ele>154</ele>
        <time>2023-02-10T06:19:35Z</time>
      </trkpt>
      <trkpt lat="43.62284" lon="1.35244">
        <ele>154</ele>
        <time>2023-02-10T06:19:38Z</time>
      </trkpt>
      <trkpt lat="43.62285" lon="1.35248">
        <ele>154</ele>
        <time>2023-02-10T06:19:40Z</time>
      </trkpt>
      <trkpt lat="43.62285" lon="1.35248">
        <ele>154.2</ele>
        <time>2023-02-10T06:19:43Z</time>
      </trkpt>
      <trkpt lat="43.62277" lon="1.35171">
        <ele>163.8</ele>
        <time>2023-02-10T13:53:41Z</time>
      </trkpt>
      <trkpt lat="43.62268" lon="1.35162">
        <ele>163.6</ele>
        <time>2023-02-10T13:53:42Z</time>
      </trkpt>
      <trkpt lat="43.62269" lon="1.35154">
        <ele>163.6</ele>
        <time>2023-02-10T13:53:48Z</time>
      </trkpt>
      <trkpt lat="43.62268" lon="1.35152">
        <ele>163.6</ele>
        <time>2023-02-10T13:53:50Z</time>
      </trkpt>
      <trkpt lat="43.62269" lon="1.35151">
        <ele>163.8</ele>
        <time>2023-02-10T13:53:51Z</time>
      </trkpt>
      <trkpt lat="43.62268" lon="1.35152">
        <ele>163.6</ele>
        <time>2023-02-10T13:53:53Z</time>
      </trkpt>
      <trkpt lat="43.62268" lon="1.35152">
        <ele>163.8</ele>
        <time>2023-02-10T13:53:54Z</time>
      </trkpt>
      <trkpt lat="43.62268" lon="1.35151">
        <ele>163.8</ele>
        <time>2023-02-10T13:53:56Z</time>
      </trkpt>
      <trkpt lat="43.62271" lon="1.3515">
        <ele>165.4</ele>
        <time>2023-02-10T14:07:46Z</time>
      </trkpt>
      <trkpt lat="43.62261" lon="1.35166">
        <ele>165.6</ele>
        <time>2023-02-10T14:07:51Z</time>
      </trkpt>
      <trkpt lat="43.62251" lon="1.35177">
        <ele>165.8</ele>
        <time>2023-02-10T14:07:54Z</time>
      </trkpt>
      <trkpt lat="43.62247" lon="1.3518">
        <ele>165.8</ele>
        <time>2023-02-10T14:07:55Z</time>
      </trkpt>
      <trkpt lat="43.62237" lon="1.35178">
        <ele>166.2</ele>
        <time>2023-02-10T14:07:57Z</time>
      </trkpt>
      <trkpt lat="43.62233" lon="1.35175">
        <ele>166.4</ele>
        <time>2023-02-10T14:07:58Z</time>
      </trkpt>
      <trkpt lat="43.62229" lon="1.3517">
        <ele>166.8</ele>
        <time>2023-02-10T14:07:59Z</time>
      </trkpt>
      <trkpt lat="43.62218" lon="1.3516">
        <ele>167</ele>
        <time>2023-02-10T14:08:01Z</time>
      </trkpt>
      <trkpt lat="43.62214" lon="1.35158">
        <ele>167.2</ele>
        <time>2023-02-10T14:08:02Z</time>
      </trkpt>
      <trkpt lat="43.62207" lon="1.35157">
        <ele>167.4</ele>
        <time>2023-02-10T14:08:03Z</time>
      </trkpt>
      <trkpt lat="43.62201" lon="1.35157">
        <ele>167.8</ele>
        <time>2023-02-10T14:08:04Z</time>
      </trkpt>
      <trkpt lat="43.62195" lon="1.35158">
        <ele>168</ele>
        <time>2023-02-10T14:08:05Z</time>
      </trkpt>
      <trkpt lat="43.62189" lon="1.35161">
        <ele>168.2</ele>
        <time>2023-02-10T14:08:06Z</time>
      </trkpt>
      <trkpt lat="43.6216" lon="1.35175">
        <ele>169</ele>
        <time>2023-02-10T14:08:11Z</time>
      </trkpt>
      <trkpt lat="43.62155" lon="1.35173">
        <ele>169</ele>
        <time>2023-02-10T14:08:12Z</time>
      </trkpt>
      <trkpt lat="43.62148" lon="1.35161">
        <ele>169.4</ele>
        <time>2023-02-10T14:08:14Z</time>
      </trkpt>
      <trkpt lat="43.62146" lon="1.35153">
        <ele>169.4</ele>
        <time>2023-02-10T14:08:15Z</time>
      </trkpt>
      <trkpt lat="43.62131" lon="1.35104">
        <ele>170</ele>
        <time>2023-02-10T14:08:21Z</time>
      </trkpt>
      <trkpt lat="43.6213" lon="1.35095">
        <ele>170.2</ele>
        <time>2023-02-10T14:08:22Z</time>
      </trkpt>
      <trkpt lat="43.62126" lon="1.35078">
        <ele>170.4</ele>
        <time>2023-02-10T14:08:24Z</time>
      </trkpt>
      <trkpt lat="43.62118" lon="1.35065">
        <ele>170.6</ele>
        <time>2023-02-10T14:08:26Z</time>
      </trkpt>
      <trkpt lat="43.62104" lon="1.35064">
        <ele>170.6</ele>
        <time>2023-02-10T14:08:28Z</time>
      </trkpt>
      <trkpt lat="43.62097" lon="1.35065">
        <ele>170.6</ele>
        <time>2023-02-10T14:08:29Z</time>
      </trkpt>
      <trkpt lat="43.62091" lon="1.35065">
        <ele>170.6</ele>
        <time>2023-02-10T14:08:30Z</time>
      </trkpt>
      <trkpt lat="43.62073" lon="1.3506">
        <ele>170.8</ele>
        <time>2023-02-10T14:08:33Z</time>
      </trkpt>
      <trkpt lat="43.62054" lon="1.35052">
        <ele>171</ele>
        <time>2023-02-10T14:08:36Z</time>
      </trkpt>
      <trkpt lat="43.62041" lon="1.35047">
        <ele>171.2</ele>
        <time>2023-02-10T14:08:38Z</time>
      </trkpt>
      <trkpt lat="43.62028" lon="1.35047">
        <ele>171.2</ele>
        <time>2023-02-10T14:08:40Z</time>
      </trkpt>
      <trkpt lat="43.62002" lon="1.35057">
        <ele>171.2</ele>
        <time>2023-02-10T14:08:44Z</time>
      </trkpt>
      <trkpt lat="43.61989" lon="1.35063">
        <ele>171</ele>
        <time>2023-02-10T14:08:46Z</time>
      </trkpt>
      <trkpt lat="43.61982" lon="1.35064">
        <ele>171</ele>
        <time>2023-02-10T14:08:47Z</time>
      </trkpt>
      <trkpt lat="43.61962" lon="1.35062">
        <ele>171</ele>
        <time>2023-02-10T14:08:50Z</time>
      </trkpt>
      <trkpt lat="43.61956" lon="1.35061">
        <ele>171</ele>
        <time>2023-02-10T14:08:51Z</time>
      </trkpt>
      <trkpt lat="43.61943" lon="1.35056">
        <ele>171</ele>
        <time>2023-02-10T14:08:53Z</time>
      </trkpt>
      <trkpt lat="43.61937" lon="1.35053">
        <ele>171</ele>
        <time>2023-02-10T14:08:54Z</time>
      </trkpt>
      <trkpt lat="43.61884" lon="1.35029">
        <ele>171.4</ele>
        <time>2023-02-10T14:09:02Z</time>
      </trkpt>
      <trkpt lat="43.61878" lon="1.35026">
        <ele>171.4</ele>
        <time>2023-02-10T14:09:03Z</time>
      </trkpt>
      <trkpt lat="43.61871" lon="1.35024">
        <ele>171.4</ele>
        <time>2023-02-10T14:09:04Z</time>
      </trkpt>
      <trkpt lat="43.61814" lon="1.35007">
        <ele>171</ele>
        <time>2023-02-10T14:09:12Z</time>
      </trkpt>
      <trkpt lat="43.61794" lon="1.35001">
        <ele>171</ele>
        <time>2023-02-10T14:09:15Z</time>
      </trkpt>
      <trkpt lat="43.61787" lon="1.35003">
        <ele>171</ele>
        <time>2023-02-10T14:09:16Z</time>
      </trkpt>
      <trkpt lat="43.61781" lon="1.35007">
        <ele>171.2</ele>
        <time>2023-02-10T14:09:17Z</time>
      </trkpt>
      <trkpt lat="43.61772" lon="1.35022">
        <ele>171.2</ele>
        <time>2023-02-10T14:09:19Z</time>
      </trkpt>
      <trkpt lat="43.61765" lon="1.3505">
        <ele>171.4</ele>
        <time>2023-02-10T14:09:23Z</time>
      </trkpt>
      <trkpt lat="43.61764" lon="1.35059">
        <ele>171.2</ele>
        <time>2023-02-10T14:09:26Z</time>
      </trkpt>
      <trkpt lat="43.6176" lon="1.35087">
        <ele>170.6</ele>
        <time>2023-02-10T14:09:31Z</time>
      </trkpt>
      <trkpt lat="43.61758" lon="1.35103">
        <ele>170.4</ele>
        <time>2023-02-10T14:09:33Z</time>
      </trkpt>
      <trkpt lat="43.61754" lon="1.35134">
        <ele>170.2</ele>
        <time>2023-02-10T14:09:37Z</time>
      </trkpt>
      <trkpt lat="43.61752" lon="1.35142">
        <ele>170.2</ele>
        <time>2023-02-10T14:09:38Z</time>
      </trkpt>
      <trkpt lat="43.61745" lon="1.35155">
        <ele>170.2</ele>
        <time>2023-02-10T14:09:40Z</time>
      </trkpt>
      <trkpt lat="43.6174" lon="1.35161">
        <ele>170.2</ele>
        <time>2023-02-10T14:09:41Z</time>
      </trkpt>
      <trkpt lat="43.61735" lon="1.35164">
        <ele>170.2</ele>
        <time>2023-02-10T14:09:42Z</time>
      </trkpt>
      <trkpt lat="43.61724" lon="1.35167">
        <ele>170.4</ele>
        <time>2023-02-10T14:09:44Z</time>
      </trkpt>
      <trkpt lat="43.6171" lon="1.35166">
        <ele>170.4</ele>
        <time>2023-02-10T14:09:48Z</time>
      </trkpt>
      <trkpt lat="43.617" lon="1.35166">
        <ele>170.2</ele>
        <time>2023-02-10T14:09:50Z</time>
      </trkpt>
      <trkpt lat="43.61685" lon="1.35166">
        <ele>170.2</ele>
        <time>2023-02-10T14:09:53Z</time>
      </trkpt>
      <trkpt lat="43.61674" lon="1.35167">
        <ele>170.2</ele>
        <time>2023-02-10T14:09:55Z</time>
      </trkpt>
      <trkpt lat="43.61664" lon="1.35173">
        <ele>170.2</ele>
        <time>2023-02-10T14:09:57Z</time>
      </trkpt>
      <trkpt lat="43.61658" lon="1.35186">
        <ele>170</ele>
        <time>2023-02-10T14:09:59Z</time>
      </trkpt>
      <trkpt lat="43.61657" lon="1.35194">
        <ele>170</ele>
        <time>2023-02-10T14:10:00Z</time>
      </trkpt>
      <trkpt lat="43.61648" lon="1.35265">
        <ele>170.2</ele>
        <time>2023-02-10T14:10:08Z</time>
      </trkpt>
      <trkpt lat="43.61643" lon="1.35312">
        <ele>170</ele>
        <time>2023-02-10T14:10:13Z</time>
      </trkpt>
      <trkpt lat="43.61641" lon="1.3532">
        <ele>170</ele>
        <time>2023-02-10T14:10:14Z</time>
      </trkpt>
      <trkpt lat="43.61639" lon="1.35329">
        <ele>170</ele>
        <time>2023-02-10T14:10:15Z</time>
      </trkpt>
      <trkpt lat="43.61636" lon="1.35344">
        <ele>170</ele>
        <time>2023-02-10T14:10:17Z</time>
      </trkpt>
      <trkpt lat="43.61634" lon="1.3535">
        <ele>170.2</ele>
        <time>2023-02-10T14:10:18Z</time>
      </trkpt>
      <trkpt lat="43.6163" lon="1.35365">
        <ele>170.2</ele>
        <time>2023-02-10T14:10:20Z</time>
      </trkpt>
      <trkpt lat="43.6163" lon="1.35376">
        <ele>170.2</ele>
        <time>2023-02-10T14:10:22Z</time>
      </trkpt>
      <trkpt lat="43.61629" lon="1.35382">
        <ele>170.2</ele>
        <time>2023-02-10T14:10:23Z</time>
      </trkpt>
      <trkpt lat="43.61624" lon="1.354">
        <ele>170.2</ele>
        <time>2023-02-10T14:10:26Z</time>
      </trkpt>
      <trkpt lat="43.61622" lon="1.35407">
        <ele>170.2</ele>
        <time>2023-02-10T14:10:27Z</time>
      </trkpt>
      <trkpt lat="43.61614" lon="1.35437">
        <ele>169.6</ele>
        <time>2023-02-10T14:10:31Z</time>
      </trkpt>
      <trkpt lat="43.61608" lon="1.35459">
        <ele>169.6</ele>
        <time>2023-02-10T14:10:34Z</time>
      </trkpt>
      <trkpt lat="43.61603" lon="1.35474">
        <ele>169.6</ele>
        <time>2023-02-10T14:10:36Z</time>
      </trkpt>
      <trkpt lat="43.61588" lon="1.35524">
        <ele>169.8</ele>
        <time>2023-02-10T14:10:42Z</time>
      </trkpt>
      <trkpt lat="43.61574" lon="1.35576">
        <ele>169.6</ele>
        <time>2023-02-10T14:10:48Z</time>
      </trkpt>
      <trkpt lat="43.61547" lon="1.35631">
        <ele>170</ele>
        <time>2023-02-10T14:10:55Z</time>
      </trkpt>
      <trkpt lat="43.61528" lon="1.35657">
        <ele>170</ele>
        <time>2023-02-10T14:10:59Z</time>
      </trkpt>
      <trkpt lat="43.61517" lon="1.35668">
        <ele>170</ele>
        <time>2023-02-10T14:11:01Z</time>
      </trkpt>
      <trkpt lat="43.61495" lon="1.35688">
        <ele>169.8</ele>
        <time>2023-02-10T14:11:05Z</time>
      </trkpt>
      <trkpt lat="43.61482" lon="1.35692">
        <ele>169.8</ele>
        <time>2023-02-10T14:11:07Z</time>
      </trkpt>
      <trkpt lat="43.61475" lon="1.35694">
        <ele>169.8</ele>
        <time>2023-02-10T14:11:08Z</time>
      </trkpt>
      <trkpt lat="43.61464" lon="1.35705">
        <ele>169.8</ele>
        <time>2023-02-10T14:11:10Z</time>
      </trkpt>
      <trkpt lat="43.61456" lon="1.3572">
        <ele>169.8</ele>
        <time>2023-02-10T14:11:12Z</time>
      </trkpt>
      <trkpt lat="43.61446" lon="1.35731">
        <ele>169.6</ele>
        <time>2023-02-10T14:11:14Z</time>
      </trkpt>
      <trkpt lat="43.6144" lon="1.35734">
        <ele>169.6</ele>
        <time>2023-02-10T14:11:15Z</time>
      </trkpt>
      <trkpt lat="43.61433" lon="1.35737">
        <ele>169.6</ele>
        <time>2023-02-10T14:11:16Z</time>
      </trkpt>
      <trkpt lat="43.61426" lon="1.35738">
        <ele>169.6</ele>
        <time>2023-02-10T14:11:17Z</time>
      </trkpt>
      <trkpt lat="43.61391" lon="1.35734">
        <ele>169.6</ele>
        <time>2023-02-10T14:11:22Z</time>
      </trkpt>
      <trkpt lat="43.61384" lon="1.3573">
        <ele>169.6</ele>
        <time>2023-02-10T14:11:23Z</time>
      </trkpt>
      <trkpt lat="43.61379" lon="1.35724">
        <ele>169.6</ele>
        <time>2023-02-10T14:11:24Z</time>
      </trkpt>
      <trkpt lat="43.61373" lon="1.35707">
        <ele>169.6</ele>
        <time>2023-02-10T14:11:26Z</time>
      </trkpt>
      <trkpt lat="43.61362" lon="1.35652">
        <ele>170</ele>
        <time>2023-02-10T14:11:32Z</time>
      </trkpt>
      <trkpt lat="43.61358" lon="1.35632">
        <ele>170</ele>
        <time>2023-02-10T14:11:34Z</time>
      </trkpt>
      <trkpt lat="43.61351" lon="1.35619">
        <ele>170.2</ele>
        <time>2023-02-10T14:11:36Z</time>
      </trkpt>
      <trkpt lat="43.61345" lon="1.35614">
        <ele>170.2</ele>
        <time>2023-02-10T14:11:37Z</time>
      </trkpt>
      <trkpt lat="43.61339" lon="1.35611">
        <ele>170.2</ele>
        <time>2023-02-10T14:11:38Z</time>
      </trkpt>
      <trkpt lat="43.61325" lon="1.35609">
        <ele>170.2</ele>
        <time>2023-02-10T14:11:40Z</time>
      </trkpt>
      <trkpt lat="43.61297" lon="1.35609">
        <ele>170</ele>
        <time>2023-02-10T14:11:44Z</time>
      </trkpt>
      <trkpt lat="43.61284" lon="1.35613">
        <ele>170</ele>
        <time>2023-02-10T14:11:46Z</time>
      </trkpt>
      <trkpt lat="43.61264" lon="1.3562">
        <ele>169.8</ele>
        <time>2023-02-10T14:11:49Z</time>
      </trkpt>
      <trkpt lat="43.61257" lon="1.3562">
        <ele>169.8</ele>
        <time>2023-02-10T14:11:50Z</time>
      </trkpt>
      <trkpt lat="43.6125" lon="1.3562">
        <ele>169.8</ele>
        <time>2023-02-10T14:11:51Z</time>
      </trkpt>
      <trkpt lat="43.61194" lon="1.35617">
        <ele>170</ele>
        <time>2023-02-10T14:11:59Z</time>
      </trkpt>
      <trkpt lat="43.61137" lon="1.35613">
        <ele>170</ele>
        <time>2023-02-10T14:12:07Z</time>
      </trkpt>
      <trkpt lat="43.61123" lon="1.35612">
        <ele>170</ele>
        <time>2023-02-10T14:12:09Z</time>
      </trkpt>
      <trkpt lat="43.6108" lon="1.3561">
        <ele>170</ele>
        <time>2023-02-10T14:12:15Z</time>
      </trkpt>
      <trkpt lat="43.61021" lon="1.35606">
        <ele>169.6</ele>
        <time>2023-02-10T14:12:23Z</time>
      </trkpt>
      <trkpt lat="43.60999" lon="1.35606">
        <ele>169.4</ele>
        <time>2023-02-10T14:12:26Z</time>
      </trkpt>
      <trkpt lat="43.60993" lon="1.35608">
        <ele>169.4</ele>
        <time>2023-02-10T14:12:27Z</time>
      </trkpt>
      <trkpt lat="43.60986" lon="1.35613">
        <ele>169.4</ele>
        <time>2023-02-10T14:12:28Z</time>
      </trkpt>
      <trkpt lat="43.6098" lon="1.35629">
        <ele>169.4</ele>
        <time>2023-02-10T14:12:30Z</time>
      </trkpt>
      <trkpt lat="43.60978" lon="1.35648">
        <ele>169.4</ele>
        <time>2023-02-10T14:12:32Z</time>
      </trkpt>
      <trkpt lat="43.60978" lon="1.35668">
        <ele>169.6</ele>
        <time>2023-02-10T14:12:34Z</time>
      </trkpt>
      <trkpt lat="43.60976" lon="1.35748">
        <ele>169.8</ele>
        <time>2023-02-10T14:12:42Z</time>
      </trkpt>
      <trkpt lat="43.60976" lon="1.35758">
        <ele>169.8</ele>
        <time>2023-02-10T14:12:43Z</time>
      </trkpt>
      <trkpt lat="43.60975" lon="1.35837">
        <ele>169.8</ele>
        <time>2023-02-10T14:12:51Z</time>
      </trkpt>
      <trkpt lat="43.60974" lon="1.35857">
        <ele>169.8</ele>
        <time>2023-02-10T14:12:53Z</time>
      </trkpt>
      <trkpt lat="43.60974" lon="1.35897">
        <ele>169.8</ele>
        <time>2023-02-10T14:12:57Z</time>
      </trkpt>
      <trkpt lat="43.60972" lon="1.35957">
        <ele>170</ele>
        <time>2023-02-10T14:13:03Z</time>
      </trkpt>
      <trkpt lat="43.60968" lon="1.36033">
        <ele>170</ele>
        <time>2023-02-10T14:13:11Z</time>
      </trkpt>
      <trkpt lat="43.60967" lon="1.36042">
        <ele>170</ele>
        <time>2023-02-10T14:13:12Z</time>
      </trkpt>
      <trkpt lat="43.60967" lon="1.36098">
        <ele>170</ele>
        <time>2023-02-10T14:13:18Z</time>
      </trkpt>
      <trkpt lat="43.60974" lon="1.36113">
        <ele>169.8</ele>
        <time>2023-02-10T14:13:20Z</time>
      </trkpt>
      <trkpt lat="43.6098" lon="1.36118">
        <ele>169.8</ele>
        <time>2023-02-10T14:13:21Z</time>
      </trkpt>
      <trkpt lat="43.60985" lon="1.36119">
        <ele>170</ele>
        <time>2023-02-10T14:13:22Z</time>
      </trkpt>
      <trkpt lat="43.60991" lon="1.36116">
        <ele>169.8</ele>
        <time>2023-02-10T14:13:23Z</time>
      </trkpt>
      <trkpt lat="43.61003" lon="1.36107">
        <ele>169.8</ele>
        <time>2023-02-10T14:13:25Z</time>
      </trkpt>
      <trkpt lat="43.61016" lon="1.36104">
        <ele>169.8</ele>
        <time>2023-02-10T14:13:27Z</time>
      </trkpt>
      <trkpt lat="43.61044" lon="1.36105">
        <ele>169.6</ele>
        <time>2023-02-10T14:13:31Z</time>
      </trkpt>
      <trkpt lat="43.61057" lon="1.36106">
        <ele>169.4</ele>
        <time>2023-02-10T14:13:33Z</time>
      </trkpt>
      <trkpt lat="43.61064" lon="1.36106">
        <ele>169.4</ele>
        <time>2023-02-10T14:13:34Z</time>
      </trkpt>
      <trkpt lat="43.61117" lon="1.36109">
        <ele>169.2</ele>
        <time>2023-02-10T14:13:42Z</time>
      </trkpt>
      <trkpt lat="43.61149" lon="1.36111">
        <ele>169.2</ele>
        <time>2023-02-10T14:13:47Z</time>
      </trkpt>
      <trkpt lat="43.61154" lon="1.36111">
        <ele>169.2</ele>
        <time>2023-02-10T14:13:48Z</time>
      </trkpt>
      <trkpt lat="43.61159" lon="1.36113">
        <ele>169.2</ele>
        <time>2023-02-10T14:13:49Z</time>
      </trkpt>
      <trkpt lat="43.61163" lon="1.36131">
        <ele>169.2</ele>
        <time>2023-02-10T14:13:52Z</time>
      </trkpt>
      <trkpt lat="43.61166" lon="1.36146">
        <ele>169.2</ele>
        <time>2023-02-10T14:13:54Z</time>
      </trkpt>
      <trkpt lat="43.61168" lon="1.3616">
        <ele>169.2</ele>
        <time>2023-02-10T14:13:56Z</time>
      </trkpt>
      <trkpt lat="43.61168" lon="1.36177">
        <ele>169</ele>
        <time>2023-02-10T14:13:58Z</time>
      </trkpt>
      <trkpt lat="43.61166" lon="1.36195">
        <ele>168.8</ele>
        <time>2023-02-10T14:14:00Z</time>
      </trkpt>
      <trkpt lat="43.61164" lon="1.36261">
        <ele>168.6</ele>
        <time>2023-02-10T14:14:07Z</time>
      </trkpt>
      <trkpt lat="43.61161" lon="1.36335">
        <ele>168.6</ele>
        <time>2023-02-10T14:14:15Z</time>
      </trkpt>
      <trkpt lat="43.61161" lon="1.36345">
        <ele>168.4</ele>
        <time>2023-02-10T14:14:16Z</time>
      </trkpt>
      <trkpt lat="43.6116" lon="1.36354">
        <ele>168.4</ele>
        <time>2023-02-10T14:14:17Z</time>
      </trkpt>
      <trkpt lat="43.61158" lon="1.36421">
        <ele>168.4</ele>
        <time>2023-02-10T14:14:24Z</time>
      </trkpt>
      <trkpt lat="43.61156" lon="1.36475">
        <ele>168.6</ele>
        <time>2023-02-10T14:14:30Z</time>
      </trkpt>
      <trkpt lat="43.61152" lon="1.36539">
        <ele>168.6</ele>
        <time>2023-02-10T14:14:37Z</time>
      </trkpt>
      <trkpt lat="43.61151" lon="1.36546">
        <ele>168.6</ele>
        <time>2023-02-10T14:14:38Z</time>
      </trkpt>
      <trkpt lat="43.61145" lon="1.36559">
        <ele>168.4</ele>
        <time>2023-02-10T14:14:40Z</time>
      </trkpt>
      <trkpt lat="43.61142" lon="1.36574">
        <ele>168.4</ele>
        <time>2023-02-10T14:14:42Z</time>
      </trkpt>
      <trkpt lat="43.61144" lon="1.36582">
        <ele>168.4</ele>
        <time>2023-02-10T14:14:43Z</time>
      </trkpt>
      <trkpt lat="43.61148" lon="1.36597">
        <ele>168.4</ele>
        <time>2023-02-10T14:14:45Z</time>
      </trkpt>
      <trkpt lat="43.61148" lon="1.36615">
        <ele>168.4</ele>
        <time>2023-02-10T14:14:47Z</time>
      </trkpt>
      <trkpt lat="43.61148" lon="1.36624">
        <ele>168.4</ele>
        <time>2023-02-10T14:14:48Z</time>
      </trkpt>
      <trkpt lat="43.61146" lon="1.3668">
        <ele>168.4</ele>
        <time>2023-02-10T14:14:54Z</time>
      </trkpt>
      <trkpt lat="43.61141" lon="1.36755">
        <ele>168.4</ele>
        <time>2023-02-10T14:15:02Z</time>
      </trkpt>
      <trkpt lat="43.61136" lon="1.36819">
        <ele>168.2</ele>
        <time>2023-02-10T14:15:09Z</time>
      </trkpt>
      <trkpt lat="43.61134" lon="1.36847">
        <ele>168.2</ele>
        <time>2023-02-10T14:15:12Z</time>
      </trkpt>
      <trkpt lat="43.61128" lon="1.36862">
        <ele>168</ele>
        <time>2023-02-10T14:15:14Z</time>
      </trkpt>
      <trkpt lat="43.61126" lon="1.3687">
        <ele>168</ele>
        <time>2023-02-10T14:15:15Z</time>
      </trkpt>
      <trkpt lat="43.61126" lon="1.36888">
        <ele>167.8</ele>
        <time>2023-02-10T14:15:17Z</time>
      </trkpt>
      <trkpt lat="43.61125" lon="1.36929">
        <ele>167.8</ele>
        <time>2023-02-10T14:15:22Z</time>
      </trkpt>
      <trkpt lat="43.61124" lon="1.36938">
        <ele>167.8</ele>
        <time>2023-02-10T14:15:23Z</time>
      </trkpt>
      <trkpt lat="43.61124" lon="1.36975">
        <ele>167.8</ele>
        <time>2023-02-10T14:15:28Z</time>
      </trkpt>
      <trkpt lat="43.61124" lon="1.3698">
        <ele>167.8</ele>
        <time>2023-02-10T14:15:31Z</time>
      </trkpt>
      <trkpt lat="43.61124" lon="1.3698">
        <ele>167.6</ele>
        <time>2023-02-10T14:15:33Z</time>
      </trkpt>
      <trkpt lat="43.61124" lon="1.36982">
        <ele>166.8</ele>
        <time>2023-02-10T14:15:50Z</time>
      </trkpt>
      <trkpt lat="43.61124" lon="1.36989">
        <ele>166.6</ele>
        <time>2023-02-10T14:15:52Z</time>
      </trkpt>
      <trkpt lat="43.61124" lon="1.37014">
        <ele>166.6</ele>
        <time>2023-02-10T14:15:57Z</time>
      </trkpt>
      <trkpt lat="43.61122" lon="1.37032">
        <ele>166.6</ele>
        <time>2023-02-10T14:16:01Z</time>
      </trkpt>
      <trkpt lat="43.6112" lon="1.37036">
        <ele>166.6</ele>
        <time>2023-02-10T14:16:02Z</time>
      </trkpt>
      <trkpt lat="43.61118" lon="1.37042">
        <ele>166.6</ele>
        <time>2023-02-10T14:16:03Z</time>
      </trkpt>
      <trkpt lat="43.61117" lon="1.37055">
        <ele>166.4</ele>
        <time>2023-02-10T14:16:05Z</time>
      </trkpt>
      <trkpt lat="43.6112" lon="1.3707">
        <ele>166.4</ele>
        <time>2023-02-10T14:16:07Z</time>
      </trkpt>
      <trkpt lat="43.61121" lon="1.37079">
        <ele>166.4</ele>
        <time>2023-02-10T14:16:08Z</time>
      </trkpt>
      <trkpt lat="43.61117" lon="1.37137">
        <ele>166.8</ele>
        <time>2023-02-10T14:16:15Z</time>
      </trkpt>
      <trkpt lat="43.61115" lon="1.37198">
        <ele>167</ele>
        <time>2023-02-10T14:16:22Z</time>
      </trkpt>
      <trkpt lat="43.61119" lon="1.37232">
        <ele>167.2</ele>
        <time>2023-02-10T14:16:26Z</time>
      </trkpt>
      <trkpt lat="43.61121" lon="1.37239">
        <ele>167.2</ele>
        <time>2023-02-10T14:16:27Z</time>
      </trkpt>
      <trkpt lat="43.61126" lon="1.37251">
        <ele>167.2</ele>
        <time>2023-02-10T14:16:29Z</time>
      </trkpt>
      <trkpt lat="43.61125" lon="1.37259">
        <ele>167.2</ele>
        <time>2023-02-10T14:16:30Z</time>
      </trkpt>
      <trkpt lat="43.6112" lon="1.3731">
        <ele>167.2</ele>
        <time>2023-02-10T14:16:36Z</time>
      </trkpt>
      <trkpt lat="43.61113" lon="1.37364">
        <ele>167.2</ele>
        <time>2023-02-10T14:16:42Z</time>
      </trkpt>
      <trkpt lat="43.61111" lon="1.37373">
        <ele>167.2</ele>
        <time>2023-02-10T14:16:43Z</time>
      </trkpt>
      <trkpt lat="43.61096" lon="1.37447">
        <ele>166.6</ele>
        <time>2023-02-10T14:16:51Z</time>
      </trkpt>
      <trkpt lat="43.61094" lon="1.37464">
        <ele>166.4</ele>
        <time>2023-02-10T14:16:54Z</time>
      </trkpt>
      <trkpt lat="43.61093" lon="1.37466">
        <ele>166.2</ele>
        <time>2023-02-10T14:16:55Z</time>
      </trkpt>
      <trkpt lat="43.61088" lon="1.37466">
        <ele>166.2</ele>
        <time>2023-02-10T14:16:57Z</time>
      </trkpt>
      <trkpt lat="43.61085" lon="1.37466">
        <ele>166</ele>
        <time>2023-02-10T14:16:58Z</time>
      </trkpt>
      <trkpt lat="43.61078" lon="1.37471">
        <ele>166</ele>
        <time>2023-02-10T14:17:00Z</time>
      </trkpt>
      <trkpt lat="43.61072" lon="1.37496">
        <ele>166</ele>
        <time>2023-02-10T14:17:04Z</time>
      </trkpt>
      <trkpt lat="43.61071" lon="1.37503">
        <ele>166</ele>
        <time>2023-02-10T14:17:05Z</time>
      </trkpt>
      <trkpt lat="43.61071" lon="1.37518">
        <ele>166</ele>
        <time>2023-02-10T14:17:07Z</time>
      </trkpt>
      <trkpt lat="43.61073" lon="1.37526">
        <ele>166.2</ele>
        <time>2023-02-10T14:17:08Z</time>
      </trkpt>
      <trkpt lat="43.61075" lon="1.37534">
        <ele>166.2</ele>
        <time>2023-02-10T14:17:09Z</time>
      </trkpt>
      <trkpt lat="43.61084" lon="1.37558">
        <ele>166.4</ele>
        <time>2023-02-10T14:17:12Z</time>
      </trkpt>
      <trkpt lat="43.61085" lon="1.37565">
        <ele>166.4</ele>
        <time>2023-02-10T14:17:13Z</time>
      </trkpt>
      <trkpt lat="43.61082" lon="1.37578">
        <ele>166.4</ele>
        <time>2023-02-10T14:17:15Z</time>
      </trkpt>
      <trkpt lat="43.61068" lon="1.37592">
        <ele>166.4</ele>
        <time>2023-02-10T14:17:18Z</time>
      </trkpt>
      <trkpt lat="43.61038" lon="1.37622">
        <ele>166.4</ele>
        <time>2023-02-10T14:17:24Z</time>
      </trkpt>
      <trkpt lat="43.6103" lon="1.37637">
        <ele>166.4</ele>
        <time>2023-02-10T14:17:26Z</time>
      </trkpt>
      <trkpt lat="43.61023" lon="1.37654">
        <ele>166.4</ele>
        <time>2023-02-10T14:17:28Z</time>
      </trkpt>
      <trkpt lat="43.60999" lon="1.37718">
        <ele>166</ele>
        <time>2023-02-10T14:17:35Z</time>
      </trkpt>
      <trkpt lat="43.60992" lon="1.37738">
        <ele>166</ele>
        <time>2023-02-10T14:17:37Z</time>
      </trkpt>
      <trkpt lat="43.60981" lon="1.37776">
        <ele>165.6</ele>
        <time>2023-02-10T14:17:41Z</time>
      </trkpt>
      <trkpt lat="43.60971" lon="1.37804">
        <ele>165</ele>
        <time>2023-02-10T14:17:44Z</time>
      </trkpt>
      <trkpt lat="43.60965" lon="1.37822">
        <ele>164.8</ele>
        <time>2023-02-10T14:17:46Z</time>
      </trkpt>
      <trkpt lat="43.60962" lon="1.37832">
        <ele>164.6</ele>
        <time>2023-02-10T14:17:47Z</time>
      </trkpt>
      <trkpt lat="43.60947" lon="1.37881">
        <ele>164.2</ele>
        <time>2023-02-10T14:17:52Z</time>
      </trkpt>
      <trkpt lat="43.60944" lon="1.37891">
        <ele>164</ele>
        <time>2023-02-10T14:17:53Z</time>
      </trkpt>
      <trkpt lat="43.60939" lon="1.3791">
        <ele>163.6</ele>
        <time>2023-02-10T14:17:55Z</time>
      </trkpt>
      <trkpt lat="43.60933" lon="1.37931">
        <ele>163.4</ele>
        <time>2023-02-10T14:17:57Z</time>
      </trkpt>
      <trkpt lat="43.60929" lon="1.37941">
        <ele>163.4</ele>
        <time>2023-02-10T14:17:58Z</time>
      </trkpt>
      <trkpt lat="43.60919" lon="1.37981">
        <ele>162.4</ele>
        <time>2023-02-10T14:18:02Z</time>
      </trkpt>
      <trkpt lat="43.60913" lon="1.37999">
        <ele>162.2</ele>
        <time>2023-02-10T14:18:04Z</time>
      </trkpt>
      <trkpt lat="43.6091" lon="1.38007">
        <ele>162</ele>
        <time>2023-02-10T14:18:05Z</time>
      </trkpt>
      <trkpt lat="43.60905" lon="1.38013">
        <ele>161.8</ele>
        <time>2023-02-10T14:18:06Z</time>
      </trkpt>
      <trkpt lat="43.609" lon="1.38027">
        <ele>161.4</ele>
        <time>2023-02-10T14:18:08Z</time>
      </trkpt>
      <trkpt lat="43.609" lon="1.38042">
        <ele>161</ele>
        <time>2023-02-10T14:18:10Z</time>
      </trkpt>
      <trkpt lat="43.609" lon="1.38051">
        <ele>160.6</ele>
        <time>2023-02-10T14:18:11Z</time>
      </trkpt>
      <trkpt lat="43.60898" lon="1.3807">
        <ele>160.4</ele>
        <time>2023-02-10T14:18:13Z</time>
      </trkpt>
      <trkpt lat="43.60897" lon="1.3808">
        <ele>160.4</ele>
        <time>2023-02-10T14:18:14Z</time>
      </trkpt>
      <trkpt lat="43.60891" lon="1.38099">
        <ele>159.8</ele>
        <time>2023-02-10T14:18:16Z</time>
      </trkpt>
      <trkpt lat="43.60872" lon="1.38133">
        <ele>159</ele>
        <time>2023-02-10T14:18:20Z</time>
      </trkpt>
      <trkpt lat="43.60867" lon="1.38141">
        <ele>159</ele>
        <time>2023-02-10T14:18:21Z</time>
      </trkpt>
      <trkpt lat="43.60846" lon="1.38177">
        <ele>158</ele>
        <time>2023-02-10T14:18:25Z</time>
      </trkpt>
      <trkpt lat="43.60837" lon="1.38195">
        <ele>157.2</ele>
        <time>2023-02-10T14:18:27Z</time>
      </trkpt>
      <trkpt lat="43.60834" lon="1.38205">
        <ele>157</ele>
        <time>2023-02-10T14:18:28Z</time>
      </trkpt>
      <trkpt lat="43.60831" lon="1.38215">
        <ele>156.8</ele>
        <time>2023-02-10T14:18:29Z</time>
      </trkpt>
      <trkpt lat="43.60826" lon="1.38236">
        <ele>156.6</ele>
        <time>2023-02-10T14:18:31Z</time>
      </trkpt>
      <trkpt lat="43.6082" lon="1.3829">
        <ele>155.6</ele>
        <time>2023-02-10T14:18:36Z</time>
      </trkpt>
      <trkpt lat="43.60825" lon="1.38329">
        <ele>155</ele>
        <time>2023-02-10T14:18:40Z</time>
      </trkpt>
      <trkpt lat="43.60832" lon="1.38369">
        <ele>154.4</ele>
        <time>2023-02-10T14:18:44Z</time>
      </trkpt>
      <trkpt lat="43.60837" lon="1.38405">
        <ele>154.4</ele>
        <time>2023-02-10T14:18:48Z</time>
      </trkpt>
      <trkpt lat="43.60846" lon="1.38472">
        <ele>155.6</ele>
        <time>2023-02-10T14:18:56Z</time>
      </trkpt>
      <trkpt lat="43.60848" lon="1.38486">
        <ele>156</ele>
        <time>2023-02-10T14:18:58Z</time>
      </trkpt>
      <trkpt lat="43.6085" lon="1.38499">
        <ele>156.4</ele>
        <time>2023-02-10T14:19:00Z</time>
      </trkpt>
      <trkpt lat="43.60853" lon="1.38517">
        <ele>157</ele>
        <time>2023-02-10T14:19:03Z</time>
      </trkpt>
      <trkpt lat="43.60855" lon="1.38537">
        <ele>157.2</ele>
        <time>2023-02-10T14:19:07Z</time>
      </trkpt>
      <trkpt lat="43.60845" lon="1.38541">
        <ele>157.2</ele>
        <time>2023-02-10T14:19:10Z</time>
      </trkpt>
      <trkpt lat="43.60838" lon="1.38542">
        <ele>157.2</ele>
        <time>2023-02-10T14:19:11Z</time>
      </trkpt>
      <trkpt lat="43.60825" lon="1.38544">
        <ele>156.8</ele>
        <time>2023-02-10T14:19:13Z</time>
      </trkpt>
      <trkpt lat="43.6082" lon="1.38546">
        <ele>156.6</ele>
        <time>2023-02-10T14:19:14Z</time>
      </trkpt>
      <trkpt lat="43.60812" lon="1.38556">
        <ele>156</ele>
        <time>2023-02-10T14:19:16Z</time>
      </trkpt>
      <trkpt lat="43.60809" lon="1.38561">
        <ele>155.8</ele>
        <time>2023-02-10T14:19:17Z</time>
      </trkpt>
      <trkpt lat="43.60799" lon="1.38572">
        <ele>155.6</ele>
        <time>2023-02-10T14:19:20Z</time>
      </trkpt>
      <trkpt lat="43.60789" lon="1.38585">
        <ele>156.8</ele>
        <time>2023-02-10T14:19:25Z</time>
      </trkpt>
      <trkpt lat="43.60788" lon="1.38586">
        <ele>157.4</ele>
        <time>2023-02-10T14:19:26Z</time>
      </trkpt>
      <trkpt lat="43.60787" lon="1.38588">
        <ele>158.2</ele>
        <time>2023-02-10T14:19:27Z</time>
      </trkpt>
      <trkpt lat="43.60784" lon="1.38594">
        <ele>159.6</ele>
        <time>2023-02-10T14:19:29Z</time>
      </trkpt>
      <trkpt lat="43.60782" lon="1.38599">
        <ele>160.6</ele>
        <time>2023-02-10T14:19:31Z</time>
      </trkpt>
      <trkpt lat="43.60781" lon="1.38602">
        <ele>161.2</ele>
        <time>2023-02-10T14:19:32Z</time>
      </trkpt>
      <trkpt lat="43.60779" lon="1.38608">
        <ele>162.2</ele>
        <time>2023-02-10T14:19:34Z</time>
      </trkpt>
      <trkpt lat="43.60775" lon="1.38611">
        <ele>163</ele>
        <time>2023-02-10T14:19:36Z</time>
      </trkpt>
      <trkpt lat="43.60772" lon="1.38609">
        <ele>163.2</ele>
        <time>2023-02-10T14:19:37Z</time>
      </trkpt>
      <trkpt lat="43.60761" lon="1.38604">
        <ele>164</ele>
        <time>2023-02-10T14:19:40Z</time>
      </trkpt>
      <trkpt lat="43.60757" lon="1.38603">
        <ele>164.4</ele>
        <time>2023-02-10T14:19:41Z</time>
      </trkpt>
      <trkpt lat="43.60731" lon="1.386">
        <ele>165.6</ele>
        <time>2023-02-10T14:19:47Z</time>
      </trkpt>
      <trkpt lat="43.60726" lon="1.38601">
        <ele>165.8</ele>
        <time>2023-02-10T14:19:48Z</time>
      </trkpt>
      <trkpt lat="43.60705" lon="1.38606">
        <ele>166</ele>
        <time>2023-02-10T14:19:52Z</time>
      </trkpt>
      <trkpt lat="43.60673" lon="1.38605">
        <ele>166.2</ele>
        <time>2023-02-10T14:19:58Z</time>
      </trkpt>
      <trkpt lat="43.60657" lon="1.38601">
        <ele>166.6</ele>
        <time>2023-02-10T14:20:01Z</time>
      </trkpt>
      <trkpt lat="43.60646" lon="1.38596">
        <ele>166.8</ele>
        <time>2023-02-10T14:20:03Z</time>
      </trkpt>
      <trkpt lat="43.60642" lon="1.38592">
        <ele>167</ele>
        <time>2023-02-10T14:20:04Z</time>
      </trkpt>
      <trkpt lat="43.60638" lon="1.38587">
        <ele>167</ele>
        <time>2023-02-10T14:20:05Z</time>
      </trkpt>
      <trkpt lat="43.60632" lon="1.38575">
        <ele>167</ele>
        <time>2023-02-10T14:20:07Z</time>
      </trkpt>
      <trkpt lat="43.60628" lon="1.3856">
        <ele>167</ele>
        <time>2023-02-10T14:20:09Z</time>
      </trkpt>
      <trkpt lat="43.60624" lon="1.38547">
        <ele>167.2</ele>
        <time>2023-02-10T14:20:11Z</time>
      </trkpt>
      <trkpt lat="43.60623" lon="1.3854">
        <ele>167.2</ele>
        <time>2023-02-10T14:20:12Z</time>
      </trkpt>
      <trkpt lat="43.60622" lon="1.38534">
        <ele>167.2</ele>
        <time>2023-02-10T14:20:13Z</time>
      </trkpt>
      <trkpt lat="43.6062" lon="1.38518">
        <ele>167.4</ele>
        <time>2023-02-10T14:20:16Z</time>
      </trkpt>
      <trkpt lat="43.6062" lon="1.38509">
        <ele>167.2</ele>
        <time>2023-02-10T14:20:18Z</time>
      </trkpt>
      <trkpt lat="43.60621" lon="1.38501">
        <ele>166.8</ele>
        <time>2023-02-10T14:20:20Z</time>
      </trkpt>
      <trkpt lat="43.60623" lon="1.38495">
        <ele>166.4</ele>
        <time>2023-02-10T14:20:21Z</time>
      </trkpt>
      <trkpt lat="43.60629" lon="1.38477">
        <ele>165.4</ele>
        <time>2023-02-10T14:20:23Z</time>
      </trkpt>
      <trkpt lat="43.60631" lon="1.38466">
        <ele>163.8</ele>
        <time>2023-02-10T14:20:24Z</time>
      </trkpt>
      <trkpt lat="43.60634" lon="1.38446">
        <ele>162.6</ele>
        <time>2023-02-10T14:20:26Z</time>
      </trkpt>
      <trkpt lat="43.60636" lon="1.38434">
        <ele>162.4</ele>
        <time>2023-02-10T14:20:27Z</time>
      </trkpt>
      <trkpt lat="43.60644" lon="1.38407">
        <ele>161.4</ele>
        <time>2023-02-10T14:20:30Z</time>
      </trkpt>
      <trkpt lat="43.60649" lon="1.38386">
        <ele>160.8</ele>
        <time>2023-02-10T14:20:32Z</time>
      </trkpt>
      <trkpt lat="43.60651" lon="1.38376">
        <ele>160.2</ele>
        <time>2023-02-10T14:20:33Z</time>
      </trkpt>
      <trkpt lat="43.60661" lon="1.38344">
        <ele>158.8</ele>
        <time>2023-02-10T14:20:36Z</time>
      </trkpt>
      <trkpt lat="43.60667" lon="1.38324">
        <ele>157.8</ele>
        <time>2023-02-10T14:20:38Z</time>
      </trkpt>
      <trkpt lat="43.60672" lon="1.38311">
        <ele>157</ele>
        <time>2023-02-10T14:20:40Z</time>
      </trkpt>
      <trkpt lat="43.60675" lon="1.38306">
        <ele>156.8</ele>
        <time>2023-02-10T14:20:41Z</time>
      </trkpt>
      <trkpt lat="43.60681" lon="1.38297">
        <ele>156</ele>
        <time>2023-02-10T14:20:44Z</time>
      </trkpt>
      <trkpt lat="43.60687" lon="1.38285">
        <ele>155.6</ele>
        <time>2023-02-10T14:20:46Z</time>
      </trkpt>
      <trkpt lat="43.6069" lon="1.38277">
        <ele>155.4</ele>
        <time>2023-02-10T14:20:47Z</time>
      </trkpt>
      <trkpt lat="43.60695" lon="1.38269">
        <ele>155</ele>
        <time>2023-02-10T14:20:48Z</time>
      </trkpt>
      <trkpt lat="43.60708" lon="1.38254">
        <ele>154.2</ele>
        <time>2023-02-10T14:20:50Z</time>
      </trkpt>
      <trkpt lat="43.60713" lon="1.38246">
        <ele>153.8</ele>
        <time>2023-02-10T14:20:51Z</time>
      </trkpt>
      <trkpt lat="43.60723" lon="1.3823">
        <ele>153.4</ele>
        <time>2023-02-10T14:20:53Z</time>
      </trkpt>
      <trkpt lat="43.60736" lon="1.382">
        <ele>153.4</ele>
        <time>2023-02-10T14:20:57Z</time>
      </trkpt>
      <trkpt lat="43.60762" lon="1.3816">
        <ele>153.8</ele>
        <time>2023-02-10T14:21:03Z</time>
      </trkpt>
      <trkpt lat="43.6077" lon="1.38147">
        <ele>153.6</ele>
        <time>2023-02-10T14:21:05Z</time>
      </trkpt>
      <trkpt lat="43.60777" lon="1.38133">
        <ele>153.6</ele>
        <time>2023-02-10T14:21:07Z</time>
      </trkpt>
      <trkpt lat="43.60787" lon="1.38103">
        <ele>153.6</ele>
        <time>2023-02-10T14:21:11Z</time>
      </trkpt>
      <trkpt lat="43.60789" lon="1.38096">
        <ele>153.6</ele>
        <time>2023-02-10T14:21:12Z</time>
      </trkpt>
      <trkpt lat="43.60803" lon="1.38059">
        <ele>153.6</ele>
        <time>2023-02-10T14:21:18Z</time>
      </trkpt>
      <trkpt lat="43.60804" lon="1.38053">
        <ele>153.6</ele>
        <time>2023-02-10T14:21:19Z</time>
      </trkpt>
      <trkpt lat="43.60802" lon="1.38043">
        <ele>153.6</ele>
        <time>2023-02-10T14:21:21Z</time>
      </trkpt>
      <trkpt lat="43.60793" lon="1.38029">
        <ele>153.6</ele>
        <time>2023-02-10T14:21:24Z</time>
      </trkpt>
      <trkpt lat="43.60788" lon="1.38026">
        <ele>153.6</ele>
        <time>2023-02-10T14:21:25Z</time>
      </trkpt>
      <trkpt lat="43.60782" lon="1.38023">
        <ele>153.8</ele>
        <time>2023-02-10T14:21:26Z</time>
      </trkpt>
      <trkpt lat="43.60763" lon="1.38017">
        <ele>154</ele>
        <time>2023-02-10T14:21:29Z</time>
      </trkpt>
      <trkpt lat="43.60755" lon="1.38016">
        <ele>154</ele>
        <time>2023-02-10T14:21:30Z</time>
      </trkpt>
      <trkpt lat="43.60734" lon="1.38018">
        <ele>154</ele>
        <time>2023-02-10T14:21:33Z</time>
      </trkpt>
      <trkpt lat="43.60727" lon="1.38019">
        <ele>154</ele>
        <time>2023-02-10T14:21:34Z</time>
      </trkpt>
      <trkpt lat="43.60707" lon="1.3802">
        <ele>153.8</ele>
        <time>2023-02-10T14:21:37Z</time>
      </trkpt>
      <trkpt lat="43.60685" lon="1.38013">
        <ele>153.4</ele>
        <time>2023-02-10T14:21:41Z</time>
      </trkpt>
      <trkpt lat="43.60678" lon="1.38012">
        <ele>153.4</ele>
        <time>2023-02-10T14:21:42Z</time>
      </trkpt>
      <trkpt lat="43.60672" lon="1.38015">
        <ele>153.4</ele>
        <time>2023-02-10T14:21:43Z</time>
      </trkpt>
      <trkpt lat="43.60661" lon="1.38023">
        <ele>153.6</ele>
        <time>2023-02-10T14:21:45Z</time>
      </trkpt>
      <trkpt lat="43.60639" lon="1.38039">
        <ele>154.2</ele>
        <time>2023-02-10T14:21:50Z</time>
      </trkpt>
      <trkpt lat="43.60624" lon="1.3804">
        <ele>154.8</ele>
        <time>2023-02-10T14:21:53Z</time>
      </trkpt>
      <trkpt lat="43.60615" lon="1.3804">
        <ele>155.4</ele>
        <time>2023-02-10T14:21:55Z</time>
      </trkpt>
      <trkpt lat="43.60604" lon="1.3804">
        <ele>155.6</ele>
        <time>2023-02-10T14:21:57Z</time>
      </trkpt>
      <trkpt lat="43.60589" lon="1.38041">
        <ele>156.4</ele>
        <time>2023-02-10T14:22:00Z</time>
      </trkpt>
      <trkpt lat="43.60584" lon="1.38041">
        <ele>156.4</ele>
        <time>2023-02-10T14:22:01Z</time>
      </trkpt>
      <trkpt lat="43.6057" lon="1.3804">
        <ele>156.8</ele>
        <time>2023-02-10T14:22:04Z</time>
      </trkpt>
      <trkpt lat="43.60555" lon="1.38037">
        <ele>156.8</ele>
        <time>2023-02-10T14:22:07Z</time>
      </trkpt>
      <trkpt lat="43.6055" lon="1.38035">
        <ele>156.8</ele>
        <time>2023-02-10T14:22:08Z</time>
      </trkpt>
      <trkpt lat="43.60541" lon="1.38026">
        <ele>156.8</ele>
        <time>2023-02-10T14:22:10Z</time>
      </trkpt>
      <trkpt lat="43.60537" lon="1.3802">
        <ele>156.8</ele>
        <time>2023-02-10T14:22:11Z</time>
      </trkpt>
      <trkpt lat="43.60532" lon="1.38013">
        <ele>156.6</ele>
        <time>2023-02-10T14:22:12Z</time>
      </trkpt>
      <trkpt lat="43.60522" lon="1.38002">
        <ele>156</ele>
        <time>2023-02-10T14:22:14Z</time>
      </trkpt>
      <trkpt lat="43.60506" lon="1.37985">
        <ele>155.6</ele>
        <time>2023-02-10T14:22:17Z</time>
      </trkpt>
      <trkpt lat="43.60493" lon="1.37977">
        <ele>155.4</ele>
        <time>2023-02-10T14:22:19Z</time>
      </trkpt>
      <trkpt lat="43.60487" lon="1.37975">
        <ele>155.2</ele>
        <time>2023-02-10T14:22:20Z</time>
      </trkpt>
      <trkpt lat="43.60475" lon="1.3797">
        <ele>154.8</ele>
        <time>2023-02-10T14:22:22Z</time>
      </trkpt>
      <trkpt lat="43.60461" lon="1.37964">
        <ele>154.6</ele>
        <time>2023-02-10T14:22:24Z</time>
      </trkpt>
      <trkpt lat="43.60454" lon="1.37964">
        <ele>154.6</ele>
        <time>2023-02-10T14:22:25Z</time>
      </trkpt>
      <trkpt lat="43.60449" lon="1.37964">
        <ele>155</ele>
        <time>2023-02-10T14:22:26Z</time>
      </trkpt>
      <trkpt lat="43.60441" lon="1.37957">
        <ele>155.4</ele>
        <time>2023-02-10T14:22:28Z</time>
      </trkpt>
      <trkpt lat="43.60414" lon="1.3794">
        <ele>156</ele>
        <time>2023-02-10T14:22:33Z</time>
      </trkpt>
      <trkpt lat="43.60399" lon="1.3793">
        <ele>156.4</ele>
        <time>2023-02-10T14:22:36Z</time>
      </trkpt>
      <trkpt lat="43.60384" lon="1.37918">
        <ele>156.6</ele>
        <time>2023-02-10T14:22:39Z</time>
      </trkpt>
      <trkpt lat="43.60376" lon="1.37909">
        <ele>156.6</ele>
        <time>2023-02-10T14:22:41Z</time>
      </trkpt>
      <trkpt lat="43.60371" lon="1.37897">
        <ele>156.6</ele>
        <time>2023-02-10T14:22:43Z</time>
      </trkpt>
      <trkpt lat="43.60369" lon="1.37882">
        <ele>156</ele>
        <time>2023-02-10T14:22:45Z</time>
      </trkpt>
      <trkpt lat="43.60367" lon="1.37865">
        <ele>155.8</ele>
        <time>2023-02-10T14:22:47Z</time>
      </trkpt>
      <trkpt lat="43.60358" lon="1.37852">
        <ele>155.4</ele>
        <time>2023-02-10T14:22:49Z</time>
      </trkpt>
      <trkpt lat="43.60353" lon="1.37848">
        <ele>155.2</ele>
        <time>2023-02-10T14:22:50Z</time>
      </trkpt>
      <trkpt lat="43.60347" lon="1.37844">
        <ele>155</ele>
        <time>2023-02-10T14:22:51Z</time>
      </trkpt>
      <trkpt lat="43.6034" lon="1.37841">
        <ele>154.8</ele>
        <time>2023-02-10T14:22:52Z</time>
      </trkpt>
      <trkpt lat="43.60329" lon="1.37843">
        <ele>155</ele>
        <time>2023-02-10T14:22:54Z</time>
      </trkpt>
      <trkpt lat="43.60298" lon="1.37862">
        <ele>155.6</ele>
        <time>2023-02-10T14:23:00Z</time>
      </trkpt>
      <trkpt lat="43.60292" lon="1.37863">
        <ele>155.8</ele>
        <time>2023-02-10T14:23:01Z</time>
      </trkpt>
      <trkpt lat="43.60276" lon="1.37864">
        <ele>156.2</ele>
        <time>2023-02-10T14:23:04Z</time>
      </trkpt>
      <trkpt lat="43.60234" lon="1.37865">
        <ele>157.4</ele>
        <time>2023-02-10T14:23:11Z</time>
      </trkpt>
      <trkpt lat="43.60211" lon="1.37862">
        <ele>157.4</ele>
        <time>2023-02-10T14:23:15Z</time>
      </trkpt>
      <trkpt lat="43.60206" lon="1.37859">
        <ele>157.6</ele>
        <time>2023-02-10T14:23:16Z</time>
      </trkpt>
      <trkpt lat="43.60201" lon="1.37854">
        <ele>157.6</ele>
        <time>2023-02-10T14:23:17Z</time>
      </trkpt>
      <trkpt lat="43.60191" lon="1.37837">
        <ele>158</ele>
        <time>2023-02-10T14:23:20Z</time>
      </trkpt>
      <trkpt lat="43.60185" lon="1.3782">
        <ele>158</ele>
        <time>2023-02-10T14:23:22Z</time>
      </trkpt>
      <trkpt lat="43.60183" lon="1.37802">
        <ele>158.2</ele>
        <time>2023-02-10T14:23:24Z</time>
      </trkpt>
      <trkpt lat="43.60182" lon="1.37759">
        <ele>158</ele>
        <time>2023-02-10T14:23:29Z</time>
      </trkpt>
      <trkpt lat="43.60181" lon="1.37752">
        <ele>158</ele>
        <time>2023-02-10T14:23:30Z</time>
      </trkpt>
      <trkpt lat="43.60178" lon="1.37692">
        <ele>157.4</ele>
        <time>2023-02-10T14:23:37Z</time>
      </trkpt>
      <trkpt lat="43.60172" lon="1.37631">
        <ele>156.6</ele>
        <time>2023-02-10T14:23:44Z</time>
      </trkpt>
      <trkpt lat="43.60175" lon="1.37619">
        <ele>156.6</ele>
        <time>2023-02-10T14:23:46Z</time>
      </trkpt>
      <trkpt lat="43.60178" lon="1.37612">
        <ele>156.4</ele>
        <time>2023-02-10T14:23:47Z</time>
      </trkpt>
      <trkpt lat="43.60179" lon="1.37604">
        <ele>156.4</ele>
        <time>2023-02-10T14:23:48Z</time>
      </trkpt>
      <trkpt lat="43.60178" lon="1.37596">
        <ele>155.8</ele>
        <time>2023-02-10T14:23:49Z</time>
      </trkpt>
      <trkpt lat="43.60176" lon="1.37589">
        <ele>155.6</ele>
        <time>2023-02-10T14:23:50Z</time>
      </trkpt>
      <trkpt lat="43.60163" lon="1.37564">
        <ele>155</ele>
        <time>2023-02-10T14:23:54Z</time>
      </trkpt>
      <trkpt lat="43.60153" lon="1.3755">
        <ele>155.2</ele>
        <time>2023-02-10T14:23:57Z</time>
      </trkpt>
      <trkpt lat="43.60148" lon="1.37547">
        <ele>155.2</ele>
        <time>2023-02-10T14:23:58Z</time>
      </trkpt>
      <trkpt lat="43.60144" lon="1.37545">
        <ele>155.2</ele>
        <time>2023-02-10T14:23:59Z</time>
      </trkpt>
      <trkpt lat="43.60133" lon="1.37544">
        <ele>155.4</ele>
        <time>2023-02-10T14:24:01Z</time>
      </trkpt>
      <trkpt lat="43.60129" lon="1.37546">
        <ele>155.4</ele>
        <time>2023-02-10T14:24:02Z</time>
      </trkpt>
      <trkpt lat="43.60119" lon="1.37558">
        <ele>155.6</ele>
        <time>2023-02-10T14:24:04Z</time>
      </trkpt>
      <trkpt lat="43.60109" lon="1.37569">
        <ele>155.6</ele>
        <time>2023-02-10T14:24:06Z</time>
      </trkpt>
      <trkpt lat="43.60089" lon="1.37589">
        <ele>155.8</ele>
        <time>2023-02-10T14:24:10Z</time>
      </trkpt>
      <trkpt lat="43.60085" lon="1.37594">
        <ele>155.8</ele>
        <time>2023-02-10T14:24:11Z</time>
      </trkpt>
      <trkpt lat="43.60085" lon="1.37604">
        <ele>155.8</ele>
        <time>2023-02-10T14:24:12Z</time>
      </trkpt>
      <trkpt lat="43.60086" lon="1.37614">
        <ele>155.8</ele>
        <time>2023-02-10T14:24:13Z</time>
      </trkpt>
      <trkpt lat="43.60089" lon="1.37621">
        <ele>155.8</ele>
        <time>2023-02-10T14:24:14Z</time>
      </trkpt>
      <trkpt lat="43.601" lon="1.3765">
        <ele>156</ele>
        <time>2023-02-10T14:24:18Z</time>
      </trkpt>
      <trkpt lat="43.60102" lon="1.37662">
        <ele>156</ele>
        <time>2023-02-10T14:24:20Z</time>
      </trkpt>
      <trkpt lat="43.60101" lon="1.37668">
        <ele>156.2</ele>
        <time>2023-02-10T14:24:21Z</time>
      </trkpt>
      <trkpt lat="43.60096" lon="1.37689">
        <ele>156.6</ele>
        <time>2023-02-10T14:24:24Z</time>
      </trkpt>
      <trkpt lat="43.60094" lon="1.37695">
        <ele>157</ele>
        <time>2023-02-10T14:24:25Z</time>
      </trkpt>
      <trkpt lat="43.60091" lon="1.37701">
        <ele>157</ele>
        <time>2023-02-10T14:24:26Z</time>
      </trkpt>
      <trkpt lat="43.60084" lon="1.37709">
        <ele>157.2</ele>
        <time>2023-02-10T14:24:28Z</time>
      </trkpt>
      <trkpt lat="43.6008" lon="1.37711">
        <ele>157.4</ele>
        <time>2023-02-10T14:24:29Z</time>
      </trkpt>
      <trkpt lat="43.60067" lon="1.37712">
        <ele>157.4</ele>
        <time>2023-02-10T14:24:31Z</time>
      </trkpt>
      <trkpt lat="43.60054" lon="1.37717">
        <ele>157.4</ele>
        <time>2023-02-10T14:24:33Z</time>
      </trkpt>
      <trkpt lat="43.60023" lon="1.37741">
        <ele>156.6</ele>
        <time>2023-02-10T14:24:39Z</time>
      </trkpt>
      <trkpt lat="43.60003" lon="1.37758">
        <ele>157</ele>
        <time>2023-02-10T14:24:43Z</time>
      </trkpt>
      <trkpt lat="43.59997" lon="1.37761">
        <ele>157</ele>
        <time>2023-02-10T14:24:44Z</time>
      </trkpt>
      <trkpt lat="43.59981" lon="1.3777">
        <ele>157.4</ele>
        <time>2023-02-10T14:24:47Z</time>
      </trkpt>
      <trkpt lat="43.59976" lon="1.37773">
        <ele>157.6</ele>
        <time>2023-02-10T14:24:48Z</time>
      </trkpt>
      <trkpt lat="43.59971" lon="1.37775">
        <ele>157.6</ele>
        <time>2023-02-10T14:24:49Z</time>
      </trkpt>
      <trkpt lat="43.59956" lon="1.37779">
        <ele>158.2</ele>
        <time>2023-02-10T14:24:52Z</time>
      </trkpt>
      <trkpt lat="43.59951" lon="1.3778">
        <ele>158.4</ele>
        <time>2023-02-10T14:24:53Z</time>
      </trkpt>
      <trkpt lat="43.59939" lon="1.37782">
        <ele>158.6</ele>
        <time>2023-02-10T14:24:55Z</time>
      </trkpt>
      <trkpt lat="43.59925" lon="1.37778">
        <ele>159</ele>
        <time>2023-02-10T14:24:58Z</time>
      </trkpt>
      <trkpt lat="43.59921" lon="1.37776">
        <ele>159.2</ele>
        <time>2023-02-10T14:24:59Z</time>
      </trkpt>
      <trkpt lat="43.59893" lon="1.37761">
        <ele>159.8</ele>
        <time>2023-02-10T14:25:05Z</time>
      </trkpt>
      <trkpt lat="43.59888" lon="1.37759">
        <ele>159.8</ele>
        <time>2023-02-10T14:25:06Z</time>
      </trkpt>
      <trkpt lat="43.59883" lon="1.37756">
        <ele>159.8</ele>
        <time>2023-02-10T14:25:08Z</time>
      </trkpt>
      <trkpt lat="43.59882" lon="1.37747">
        <ele>159.6</ele>
        <time>2023-02-10T14:25:10Z</time>
      </trkpt>
      <trkpt lat="43.59885" lon="1.37734">
        <ele>159.6</ele>
        <time>2023-02-10T14:25:12Z</time>
      </trkpt>
      <trkpt lat="43.59891" lon="1.37721">
        <ele>159</ele>
        <time>2023-02-10T14:25:14Z</time>
      </trkpt>
      <trkpt lat="43.59893" lon="1.37714">
        <ele>158.8</ele>
        <time>2023-02-10T14:25:15Z</time>
      </trkpt>
      <trkpt lat="43.59894" lon="1.37702">
        <ele>158.2</ele>
        <time>2023-02-10T14:25:17Z</time>
      </trkpt>
      <trkpt lat="43.59894" lon="1.37689">
        <ele>157</ele>
        <time>2023-02-10T14:25:19Z</time>
      </trkpt>
      <trkpt lat="43.59894" lon="1.37682">
        <ele>156.8</ele>
        <time>2023-02-10T14:25:20Z</time>
      </trkpt>
      <trkpt lat="43.59891" lon="1.37668">
        <ele>156.6</ele>
        <time>2023-02-10T14:25:22Z</time>
      </trkpt>
      <trkpt lat="43.59887" lon="1.37653">
        <ele>156.4</ele>
        <time>2023-02-10T14:25:25Z</time>
      </trkpt>
      <trkpt lat="43.5988" lon="1.37638">
        <ele>156.4</ele>
        <time>2023-02-10T14:25:29Z</time>
      </trkpt>
      <trkpt lat="43.59861" lon="1.3762">
        <ele>156.6</ele>
        <time>2023-02-10T14:25:33Z</time>
      </trkpt>
      <trkpt lat="43.59854" lon="1.3761">
        <ele>156.6</ele>
        <time>2023-02-10T14:25:35Z</time>
      </trkpt>
      <trkpt lat="43.59847" lon="1.37603">
        <ele>156.6</ele>
        <time>2023-02-10T14:25:37Z</time>
      </trkpt>
      <trkpt lat="43.59841" lon="1.376">
        <ele>156.8</ele>
        <time>2023-02-10T14:25:38Z</time>
      </trkpt>
      <trkpt lat="43.59829" lon="1.37594">
        <ele>157</ele>
        <time>2023-02-10T14:25:40Z</time>
      </trkpt>
      <trkpt lat="43.59821" lon="1.37593">
        <ele>157</ele>
        <time>2023-02-10T14:25:41Z</time>
      </trkpt>
      <trkpt lat="43.59805" lon="1.37594">
        <ele>157</ele>
        <time>2023-02-10T14:25:43Z</time>
      </trkpt>
      <trkpt lat="43.59787" lon="1.37601">
        <ele>157.2</ele>
        <time>2023-02-10T14:25:46Z</time>
      </trkpt>
      <trkpt lat="43.59777" lon="1.37611">
        <ele>157.2</ele>
        <time>2023-02-10T14:25:48Z</time>
      </trkpt>
      <trkpt lat="43.59768" lon="1.37625">
        <ele>157</ele>
        <time>2023-02-10T14:25:50Z</time>
      </trkpt>
      <trkpt lat="43.59759" lon="1.37638">
        <ele>157.4</ele>
        <time>2023-02-10T14:25:52Z</time>
      </trkpt>
      <trkpt lat="43.59746" lon="1.37658">
        <ele>157.4</ele>
        <time>2023-02-10T14:25:57Z</time>
      </trkpt>
      <trkpt lat="43.59741" lon="1.37664">
        <ele>158.2</ele>
        <time>2023-02-10T14:25:59Z</time>
      </trkpt>
      <trkpt lat="43.5973" lon="1.37672">
        <ele>159.4</ele>
        <time>2023-02-10T14:26:03Z</time>
      </trkpt>
      <trkpt lat="43.59724" lon="1.37674">
        <ele>160</ele>
        <time>2023-02-10T14:26:07Z</time>
      </trkpt>
      <trkpt lat="43.59724" lon="1.37674">
        <ele>160.2</ele>
        <time>2023-02-10T14:26:08Z</time>
      </trkpt>
      <trkpt lat="43.59721" lon="1.37673">
        <ele>157.4</ele>
        <time>2023-02-10T14:26:24Z</time>
      </trkpt>
      <trkpt lat="43.59716" lon="1.37674">
        <ele>157.2</ele>
        <time>2023-02-10T14:26:26Z</time>
      </trkpt>
      <trkpt lat="43.59708" lon="1.37675">
        <ele>157</ele>
        <time>2023-02-10T14:26:29Z</time>
      </trkpt>
      <trkpt lat="43.59697" lon="1.3767">
        <ele>157</ele>
        <time>2023-02-10T14:26:31Z</time>
      </trkpt>
      <trkpt lat="43.59691" lon="1.37664">
        <ele>157</ele>
        <time>2023-02-10T14:26:34Z</time>
      </trkpt>
      <trkpt lat="43.59686" lon="1.37655">
        <ele>157</ele>
        <time>2023-02-10T14:26:36Z</time>
      </trkpt>
      <trkpt lat="43.59668" lon="1.3763">
        <ele>157.4</ele>
        <time>2023-02-10T14:26:40Z</time>
      </trkpt>
      <trkpt lat="43.59653" lon="1.37606">
        <ele>157.6</ele>
        <time>2023-02-10T14:26:45Z</time>
      </trkpt>
      <trkpt lat="43.59644" lon="1.37597">
        <ele>157.6</ele>
        <time>2023-02-10T14:26:47Z</time>
      </trkpt>
      <trkpt lat="43.5964" lon="1.37592">
        <ele>157.8</ele>
        <time>2023-02-10T14:26:48Z</time>
      </trkpt>
      <trkpt lat="43.59627" lon="1.37579">
        <ele>158.4</ele>
        <time>2023-02-10T14:26:51Z</time>
      </trkpt>
      <trkpt lat="43.59623" lon="1.37574">
        <ele>158.6</ele>
        <time>2023-02-10T14:26:52Z</time>
      </trkpt>
      <trkpt lat="43.59617" lon="1.37565">
        <ele>158.8</ele>
        <time>2023-02-10T14:26:54Z</time>
      </trkpt>
      <trkpt lat="43.5961" lon="1.37526">
        <ele>159.2</ele>
        <time>2023-02-10T14:26:59Z</time>
      </trkpt>
      <trkpt lat="43.5961" lon="1.37512">
        <ele>159.2</ele>
        <time>2023-02-10T14:27:01Z</time>
      </trkpt>
      <trkpt lat="43.59614" lon="1.37494">
        <ele>159.2</ele>
        <time>2023-02-10T14:27:03Z</time>
      </trkpt>
      <trkpt lat="43.59618" lon="1.37486">
        <ele>159</ele>
        <time>2023-02-10T14:27:04Z</time>
      </trkpt>
      <trkpt lat="43.5963" lon="1.37464">
        <ele>158.8</ele>
        <time>2023-02-10T14:27:07Z</time>
      </trkpt>
      <trkpt lat="43.59644" lon="1.3743">
        <ele>158.8</ele>
        <time>2023-02-10T14:27:11Z</time>
      </trkpt>
      <trkpt lat="43.59651" lon="1.37405">
        <ele>158.8</ele>
        <time>2023-02-10T14:27:14Z</time>
      </trkpt>
      <trkpt lat="43.59653" lon="1.37389">
        <ele>158.8</ele>
        <time>2023-02-10T14:27:16Z</time>
      </trkpt>
      <trkpt lat="43.59653" lon="1.37389">
        <ele>158.8</ele>
        <time>2023-02-10T14:27:17Z</time>
      </trkpt>
      <trkpt lat="43.5965" lon="1.37372">
        <ele>158.8</ele>
        <time>2023-02-10T14:27:18Z</time>
      </trkpt>
      <trkpt lat="43.59646" lon="1.37358">
        <ele>158.8</ele>
        <time>2023-02-10T14:27:20Z</time>
      </trkpt>
      <trkpt lat="43.5964" lon="1.37344">
        <ele>158.8</ele>
        <time>2023-02-10T14:27:22Z</time>
      </trkpt>
      <trkpt lat="43.59626" lon="1.37318">
        <ele>159</ele>
        <time>2023-02-10T14:27:27Z</time>
      </trkpt>
      <trkpt lat="43.5962" lon="1.37307">
        <ele>159.2</ele>
        <time>2023-02-10T14:27:29Z</time>
      </trkpt>
      <trkpt lat="43.59618" lon="1.37301">
        <ele>159.2</ele>
        <time>2023-02-10T14:27:31Z</time>
      </trkpt>
      <trkpt lat="43.59612" lon="1.37289">
        <ele>159.2</ele>
        <time>2023-02-10T14:27:32Z</time>
      </trkpt>
      <trkpt lat="43.59606" lon="1.37278">
        <ele>159.2</ele>
        <time>2023-02-10T14:27:34Z</time>
      </trkpt>
      <trkpt lat="43.59594" lon="1.37255">
        <ele>159.2</ele>
        <time>2023-02-10T14:27:38Z</time>
      </trkpt>
      <trkpt lat="43.59587" lon="1.37234">
        <ele>159.2</ele>
        <time>2023-02-10T14:27:41Z</time>
      </trkpt>
      <trkpt lat="43.5958" lon="1.3721">
        <ele>159.2</ele>
        <time>2023-02-10T14:27:44Z</time>
      </trkpt>
      <trkpt lat="43.59577" lon="1.37195">
        <ele>159.2</ele>
        <time>2023-02-10T14:27:46Z</time>
      </trkpt>
      <trkpt lat="43.59573" lon="1.37172">
        <ele>159.4</ele>
        <time>2023-02-10T14:27:49Z</time>
      </trkpt>
      <trkpt lat="43.59569" lon="1.37156">
        <ele>159.2</ele>
        <time>2023-02-10T14:27:51Z</time>
      </trkpt>
      <trkpt lat="43.59569" lon="1.37147">
        <ele>159.4</ele>
        <time>2023-02-10T14:27:52Z</time>
      </trkpt>
      <trkpt lat="43.59569" lon="1.37138">
        <ele>159.4</ele>
        <time>2023-02-10T14:27:53Z</time>
      </trkpt>
      <trkpt lat="43.59572" lon="1.37107">
        <ele>159.4</ele>
        <time>2023-02-10T14:27:57Z</time>
      </trkpt>
      <trkpt lat="43.59575" lon="1.37098">
        <ele>159.6</ele>
        <time>2023-02-10T14:27:58Z</time>
      </trkpt>
      <trkpt lat="43.59582" lon="1.37081">
        <ele>159.6</ele>
        <time>2023-02-10T14:28:00Z</time>
      </trkpt>
      <trkpt lat="43.59585" lon="1.37072">
        <ele>159.6</ele>
        <time>2023-02-10T14:28:01Z</time>
      </trkpt>
      <trkpt lat="43.59592" lon="1.37057">
        <ele>159.6</ele>
        <time>2023-02-10T14:28:03Z</time>
      </trkpt>
      <trkpt lat="43.59599" lon="1.37043">
        <ele>159.6</ele>
        <time>2023-02-10T14:28:05Z</time>
      </trkpt>
      <trkpt lat="43.59601" lon="1.37035">
        <ele>159.6</ele>
        <time>2023-02-10T14:28:06Z</time>
      </trkpt>
      <trkpt lat="43.59604" lon="1.3702">
        <ele>159.4</ele>
        <time>2023-02-10T14:28:08Z</time>
      </trkpt>
      <trkpt lat="43.59604" lon="1.37014">
        <ele>159.4</ele>
        <time>2023-02-10T14:28:09Z</time>
      </trkpt>
      <trkpt lat="43.59602" lon="1.37007">
        <ele>159.4</ele>
        <time>2023-02-10T14:28:10Z</time>
      </trkpt>
      <trkpt lat="43.59596" lon="1.36994">
        <ele>159.4</ele>
        <time>2023-02-10T14:28:12Z</time>
      </trkpt>
      <trkpt lat="43.59596" lon="1.36994">
        <ele>159.4</ele>
        <time>2023-02-10T14:28:13Z</time>
      </trkpt>
      <trkpt lat="43.59586" lon="1.36982">
        <ele>159.4</ele>
        <time>2023-02-10T14:28:14Z</time>
      </trkpt>
      <trkpt lat="43.59564" lon="1.3696">
        <ele>159.6</ele>
        <time>2023-02-10T14:28:18Z</time>
      </trkpt>
      <trkpt lat="43.59523" lon="1.36921">
        <ele>159.8</ele>
        <time>2023-02-10T14:28:25Z</time>
      </trkpt>
      <trkpt lat="43.59517" lon="1.36917">
        <ele>159.8</ele>
        <time>2023-02-10T14:28:26Z</time>
      </trkpt>
      <trkpt lat="43.59501" lon="1.36905">
        <ele>160</ele>
        <time>2023-02-10T14:28:29Z</time>
      </trkpt>
      <trkpt lat="43.5949" lon="1.36895">
        <ele>160</ele>
        <time>2023-02-10T14:28:31Z</time>
      </trkpt>
      <trkpt lat="43.59477" lon="1.36881">
        <ele>160</ele>
        <time>2023-02-10T14:28:34Z</time>
      </trkpt>
      <trkpt lat="43.59466" lon="1.36873">
        <ele>160</ele>
        <time>2023-02-10T14:28:36Z</time>
      </trkpt>
      <trkpt lat="43.59459" lon="1.36861">
        <ele>160</ele>
        <time>2023-02-10T14:28:38Z</time>
      </trkpt>
      <trkpt lat="43.59455" lon="1.36853">
        <ele>160</ele>
        <time>2023-02-10T14:28:39Z</time>
      </trkpt>
      <trkpt lat="43.59453" lon="1.36848">
        <ele>160</ele>
        <time>2023-02-10T14:28:40Z</time>
      </trkpt>
      <trkpt lat="43.59437" lon="1.36815">
        <ele>160</ele>
        <time>2023-02-10T14:28:45Z</time>
      </trkpt>
      <trkpt lat="43.59425" lon="1.36776">
        <ele>159.8</ele>
        <time>2023-02-10T14:28:50Z</time>
      </trkpt>
      <trkpt lat="43.59422" lon="1.36767">
        <ele>159.8</ele>
        <time>2023-02-10T14:28:51Z</time>
      </trkpt>
      <trkpt lat="43.59414" lon="1.36743">
        <ele>159.8</ele>
        <time>2023-02-10T14:28:54Z</time>
      </trkpt>
      <trkpt lat="43.59414" lon="1.36743">
        <ele>159.8</ele>
        <time>2023-02-10T14:28:55Z</time>
      </trkpt>
      <trkpt lat="43.59409" lon="1.36719">
        <ele>159.6</ele>
        <time>2023-02-10T14:28:57Z</time>
      </trkpt>
      <trkpt lat="43.59401" lon="1.36707">
        <ele>159.8</ele>
        <time>2023-02-10T14:28:59Z</time>
      </trkpt>
      <trkpt lat="43.59391" lon="1.36695">
        <ele>160</ele>
        <time>2023-02-10T14:29:01Z</time>
      </trkpt>
      <trkpt lat="43.59379" lon="1.36688">
        <ele>160</ele>
        <time>2023-02-10T14:29:03Z</time>
      </trkpt>
      <trkpt lat="43.59365" lon="1.36685">
        <ele>160</ele>
        <time>2023-02-10T14:29:05Z</time>
      </trkpt>
      <trkpt lat="43.59354" lon="1.36683">
        <ele>160</ele>
        <time>2023-02-10T14:29:08Z</time>
      </trkpt>
      <trkpt lat="43.5934" lon="1.3668">
        <ele>160.2</ele>
        <time>2023-02-10T14:29:09Z</time>
      </trkpt>
      <trkpt lat="43.59321" lon="1.36677">
        <ele>160.2</ele>
        <time>2023-02-10T14:29:12Z</time>
      </trkpt>
      <trkpt lat="43.59294" lon="1.36672">
        <ele>160.2</ele>
        <time>2023-02-10T14:29:16Z</time>
      </trkpt>
      <trkpt lat="43.59287" lon="1.36671">
        <ele>160.2</ele>
        <time>2023-02-10T14:29:18Z</time>
      </trkpt>
      <trkpt lat="43.59271" lon="1.36672">
        <ele>160.2</ele>
        <time>2023-02-10T14:29:20Z</time>
      </trkpt>
      <trkpt lat="43.59258" lon="1.36667">
        <ele>160.4</ele>
        <time>2023-02-10T14:29:22Z</time>
      </trkpt>
      <trkpt lat="43.59245" lon="1.3666">
        <ele>160.4</ele>
        <time>2023-02-10T14:29:24Z</time>
      </trkpt>
      <trkpt lat="43.59234" lon="1.36654">
        <ele>160.4</ele>
        <time>2023-02-10T14:29:26Z</time>
      </trkpt>
      <trkpt lat="43.59218" lon="1.36641">
        <ele>160.6</ele>
        <time>2023-02-10T14:29:29Z</time>
      </trkpt>
      <trkpt lat="43.59205" lon="1.36633">
        <ele>160.4</ele>
        <time>2023-02-10T14:29:31Z</time>
      </trkpt>
      <trkpt lat="43.59193" lon="1.36632">
        <ele>160.4</ele>
        <time>2023-02-10T14:29:33Z</time>
      </trkpt>
      <trkpt lat="43.59188" lon="1.36635">
        <ele>160.4</ele>
        <time>2023-02-10T14:29:34Z</time>
      </trkpt>
      <trkpt lat="43.59165" lon="1.36646">
        <ele>160.6</ele>
        <time>2023-02-10T14:29:38Z</time>
      </trkpt>
      <trkpt lat="43.5916" lon="1.36647">
        <ele>160.6</ele>
        <time>2023-02-10T14:29:39Z</time>
      </trkpt>
      <trkpt lat="43.59154" lon="1.36647">
        <ele>160.6</ele>
        <time>2023-02-10T14:29:40Z</time>
      </trkpt>
      <trkpt lat="43.59138" lon="1.36654">
        <ele>160.6</ele>
        <time>2023-02-10T14:29:43Z</time>
      </trkpt>
      <trkpt lat="43.59122" lon="1.36666">
        <ele>160.8</ele>
        <time>2023-02-10T14:29:47Z</time>
      </trkpt>
      <trkpt lat="43.59094" lon="1.36677">
        <ele>160.6</ele>
        <time>2023-02-10T14:29:52Z</time>
      </trkpt>
      <trkpt lat="43.5905" lon="1.36693">
        <ele>160.8</ele>
        <time>2023-02-10T14:29:59Z</time>
      </trkpt>
      <trkpt lat="43.5904" lon="1.36699">
        <ele>161</ele>
        <time>2023-02-10T14:30:01Z</time>
      </trkpt>
      <trkpt lat="43.59031" lon="1.36706">
        <ele>161</ele>
        <time>2023-02-10T14:30:04Z</time>
      </trkpt>
      <trkpt lat="43.59024" lon="1.36715">
        <ele>161.6</ele>
        <time>2023-02-10T14:30:07Z</time>
      </trkpt>
      <trkpt lat="43.59016" lon="1.36722">
        <ele>162.8</ele>
        <time>2023-02-10T14:30:11Z</time>
      </trkpt>
      <trkpt lat="43.59014" lon="1.36726">
        <ele>164</ele>
        <time>2023-02-10T14:30:15Z</time>
      </trkpt>
      <trkpt lat="43.59014" lon="1.36726">
        <ele>164.2</ele>
        <time>2023-02-10T14:30:17Z</time>
      </trkpt>
      <trkpt lat="43.59007" lon="1.36727">
        <ele>164.4</ele>
        <time>2023-02-10T14:30:30Z</time>
      </trkpt>
      <trkpt lat="43.59003" lon="1.3672">
        <ele>164.4</ele>
        <time>2023-02-10T14:30:32Z</time>
      </trkpt>
      <trkpt lat="43.58996" lon="1.3671">
        <ele>164.4</ele>
        <time>2023-02-10T14:30:35Z</time>
      </trkpt>
      <trkpt lat="43.58992" lon="1.36708">
        <ele>164.4</ele>
        <time>2023-02-10T14:30:36Z</time>
      </trkpt>
      <trkpt lat="43.58965" lon="1.36704">
        <ele>164.2</ele>
        <time>2023-02-10T14:30:41Z</time>
      </trkpt>
      <trkpt lat="43.58953" lon="1.36699">
        <ele>163.2</ele>
        <time>2023-02-10T14:30:43Z</time>
      </trkpt>
      <trkpt lat="43.58947" lon="1.36696">
        <ele>162.8</ele>
        <time>2023-02-10T14:30:44Z</time>
      </trkpt>
      <trkpt lat="43.58935" lon="1.36689">
        <ele>162.2</ele>
        <time>2023-02-10T14:30:46Z</time>
      </trkpt>
      <trkpt lat="43.5893" lon="1.36685">
        <ele>161.8</ele>
        <time>2023-02-10T14:30:47Z</time>
      </trkpt>
      <trkpt lat="43.58922" lon="1.36675">
        <ele>161.4</ele>
        <time>2023-02-10T14:30:49Z</time>
      </trkpt>
      <trkpt lat="43.58915" lon="1.36665">
        <ele>161</ele>
        <time>2023-02-10T14:30:51Z</time>
      </trkpt>
      <trkpt lat="43.58907" lon="1.36655">
        <ele>161</ele>
        <time>2023-02-10T14:30:53Z</time>
      </trkpt>
      <trkpt lat="43.58899" lon="1.36644">
        <ele>160.8</ele>
        <time>2023-02-10T14:30:55Z</time>
      </trkpt>
      <trkpt lat="43.58885" lon="1.36613">
        <ele>161</ele>
        <time>2023-02-10T14:30:59Z</time>
      </trkpt>
      <trkpt lat="43.58882" lon="1.36607">
        <ele>161</ele>
        <time>2023-02-10T14:31:01Z</time>
      </trkpt>
      <trkpt lat="43.58872" lon="1.36586">
        <ele>161</ele>
        <time>2023-02-10T14:31:03Z</time>
      </trkpt>
      <trkpt lat="43.58867" lon="1.36571">
        <ele>161</ele>
        <time>2023-02-10T14:31:05Z</time>
      </trkpt>
      <trkpt lat="43.58864" lon="1.36562">
        <ele>161</ele>
        <time>2023-02-10T14:31:06Z</time>
      </trkpt>
      <trkpt lat="43.5886" lon="1.36544">
        <ele>161</ele>
        <time>2023-02-10T14:31:08Z</time>
      </trkpt>
      <trkpt lat="43.58852" lon="1.36516">
        <ele>161</ele>
        <time>2023-02-10T14:31:11Z</time>
      </trkpt>
      <trkpt lat="43.58849" lon="1.36508">
        <ele>161</ele>
        <time>2023-02-10T14:31:12Z</time>
      </trkpt>
      <trkpt lat="43.58846" lon="1.36501">
        <ele>161.2</ele>
        <time>2023-02-10T14:31:13Z</time>
      </trkpt>
      <trkpt lat="43.58828" lon="1.3647">
        <ele>162</ele>
        <time>2023-02-10T14:31:18Z</time>
      </trkpt>
      <trkpt lat="43.58825" lon="1.36464">
        <ele>162.2</ele>
        <time>2023-02-10T14:31:19Z</time>
      </trkpt>
      <trkpt lat="43.58812" lon="1.36441">
        <ele>162.8</ele>
        <time>2023-02-10T14:31:22Z</time>
      </trkpt>
      <trkpt lat="43.58808" lon="1.36433">
        <ele>163</ele>
        <time>2023-02-10T14:31:23Z</time>
      </trkpt>
      <trkpt lat="43.58798" lon="1.3642">
        <ele>163</ele>
        <time>2023-02-10T14:31:25Z</time>
      </trkpt>
      <trkpt lat="43.58784" lon="1.36405">
        <ele>163</ele>
        <time>2023-02-10T14:31:28Z</time>
      </trkpt>
      <trkpt lat="43.58743" lon="1.36363">
        <ele>163.2</ele>
        <time>2023-02-10T14:31:37Z</time>
      </trkpt>
      <trkpt lat="43.58694" lon="1.36318">
        <ele>163.6</ele>
        <time>2023-02-10T14:31:45Z</time>
      </trkpt>
      <trkpt lat="43.58663" lon="1.36274">
        <ele>163.4</ele>
        <time>2023-02-10T14:31:52Z</time>
      </trkpt>
      <trkpt lat="43.58635" lon="1.36243">
        <ele>163.4</ele>
        <time>2023-02-10T14:31:58Z</time>
      </trkpt>
      <trkpt lat="43.5863" lon="1.36241">
        <ele>163.4</ele>
        <time>2023-02-10T14:31:59Z</time>
      </trkpt>
      <trkpt lat="43.58625" lon="1.3624">
        <ele>163.4</ele>
        <time>2023-02-10T14:32:00Z</time>
      </trkpt>
      <trkpt lat="43.58619" lon="1.36241">
        <ele>163.4</ele>
        <time>2023-02-10T14:32:02Z</time>
      </trkpt>
      <trkpt lat="43.5858" lon="1.36259">
        <ele>163.4</ele>
        <time>2023-02-10T14:32:08Z</time>
      </trkpt>
      <trkpt lat="43.58543" lon="1.36276">
        <ele>164.2</ele>
        <time>2023-02-10T14:32:15Z</time>
      </trkpt>
      <trkpt lat="43.58524" lon="1.36283">
        <ele>164.8</ele>
        <time>2023-02-10T14:32:19Z</time>
      </trkpt>
      <trkpt lat="43.58521" lon="1.36283">
        <ele>165</ele>
        <time>2023-02-10T14:32:20Z</time>
      </trkpt>
      <trkpt lat="43.58518" lon="1.36278">
        <ele>165.2</ele>
        <time>2023-02-10T14:32:22Z</time>
      </trkpt>
      <trkpt lat="43.58523" lon="1.36275">
        <ele>165.4</ele>
        <time>2023-02-10T14:32:24Z</time>
      </trkpt>
      <trkpt lat="43.58525" lon="1.36274">
        <ele>165.6</ele>
        <time>2023-02-10T14:32:25Z</time>
      </trkpt>
      <trkpt lat="43.58537" lon="1.36269">
        <ele>166.2</ele>
        <time>2023-02-10T14:32:29Z</time>
      </trkpt>
      <trkpt lat="43.58549" lon="1.36263">
        <ele>166.6</ele>
        <time>2023-02-10T14:32:32Z</time>
      </trkpt>
      <trkpt lat="43.58586" lon="1.36245">
        <ele>166.8</ele>
        <time>2023-02-10T14:32:39Z</time>
      </trkpt>
      <trkpt lat="43.58624" lon="1.36223">
        <ele>166.8</ele>
        <time>2023-02-10T14:32:46Z</time>
      </trkpt>
      <trkpt lat="43.58667" lon="1.36203">
        <ele>166.8</ele>
        <time>2023-02-10T14:32:53Z</time>
      </trkpt>
      <trkpt lat="43.58722" lon="1.36178">
        <ele>166.8</ele>
        <time>2023-02-10T14:33:02Z</time>
      </trkpt>
      <trkpt lat="43.5877" lon="1.36159">
        <ele>166.6</ele>
        <time>2023-02-10T14:33:10Z</time>
      </trkpt>
      <trkpt lat="43.58773" lon="1.3616">
        <ele>166.4</ele>
        <time>2023-02-10T14:33:11Z</time>
      </trkpt>
      <trkpt lat="43.58774" lon="1.36162">
        <ele>166.6</ele>
        <time>2023-02-10T14:33:12Z</time>
      </trkpt>
      <trkpt lat="43.58772" lon="1.36165">
        <ele>166.6</ele>
        <time>2023-02-10T14:33:13Z</time>
      </trkpt>
      <trkpt lat="43.58757" lon="1.3617">
        <ele>166.2</ele>
        <time>2023-02-10T14:33:16Z</time>
      </trkpt>
      <trkpt lat="43.58729" lon="1.36183">
        <ele>165.6</ele>
        <time>2023-02-10T14:33:21Z</time>
      </trkpt>
      <trkpt lat="43.58723" lon="1.36186">
        <ele>165.4</ele>
        <time>2023-02-10T14:33:22Z</time>
      </trkpt>
      <trkpt lat="43.58688" lon="1.36208">
        <ele>164.6</ele>
        <time>2023-02-10T14:33:28Z</time>
      </trkpt>
      <trkpt lat="43.58682" lon="1.36212">
        <ele>164.4</ele>
        <time>2023-02-10T14:33:29Z</time>
      </trkpt>
      <trkpt lat="43.58676" lon="1.36214">
        <ele>164.4</ele>
        <time>2023-02-10T14:33:30Z</time>
      </trkpt>
      <trkpt lat="43.5867" lon="1.36213">
        <ele>164.4</ele>
        <time>2023-02-10T14:33:31Z</time>
      </trkpt>
      <trkpt lat="43.58649" lon="1.36203">
        <ele>164</ele>
        <time>2023-02-10T14:33:35Z</time>
      </trkpt>
      <trkpt lat="43.58638" lon="1.36195">
        <ele>163.6</ele>
        <time>2023-02-10T14:33:37Z</time>
      </trkpt>
      <trkpt lat="43.58625" lon="1.36185">
        <ele>163.6</ele>
        <time>2023-02-10T14:33:40Z</time>
      </trkpt>
      <trkpt lat="43.58625" lon="1.3618">
        <ele>163.6</ele>
        <time>2023-02-10T14:33:41Z</time>
      </trkpt>
      <trkpt lat="43.58604" lon="1.36147">
        <ele>163.6</ele>
        <time>2023-02-10T14:33:45Z</time>
      </trkpt>
      <trkpt lat="43.586" lon="1.36142">
        <ele>163.6</ele>
        <time>2023-02-10T14:33:46Z</time>
      </trkpt>
      <trkpt lat="43.58592" lon="1.36133">
        <ele>163.6</ele>
        <time>2023-02-10T14:33:48Z</time>
      </trkpt>
      <trkpt lat="43.58581" lon="1.36126">
        <ele>163.8</ele>
        <time>2023-02-10T14:33:50Z</time>
      </trkpt>
      <trkpt lat="43.58571" lon="1.3612">
        <ele>164.2</ele>
        <time>2023-02-10T14:33:52Z</time>
      </trkpt>
      <trkpt lat="43.58553" lon="1.36101">
        <ele>164.8</ele>
        <time>2023-02-10T14:33:56Z</time>
      </trkpt>
      <trkpt lat="43.58534" lon="1.36079">
        <ele>165</ele>
        <time>2023-02-10T14:34:00Z</time>
      </trkpt>
      <trkpt lat="43.58523" lon="1.3607">
        <ele>165.2</ele>
        <time>2023-02-10T14:34:02Z</time>
      </trkpt>
      <trkpt lat="43.58512" lon="1.36061">
        <ele>165.2</ele>
        <time>2023-02-10T14:34:04Z</time>
      </trkpt>
      <trkpt lat="43.58503" lon="1.36048">
        <ele>165.2</ele>
        <time>2023-02-10T14:34:06Z</time>
      </trkpt>
      <trkpt lat="43.58499" lon="1.36041">
        <ele>165.2</ele>
        <time>2023-02-10T14:34:07Z</time>
      </trkpt>
      <trkpt lat="43.5846" lon="1.35978">
        <ele>165</ele>
        <time>2023-02-10T14:34:16Z</time>
      </trkpt>
      <trkpt lat="43.5844" lon="1.35949">
        <ele>164.4</ele>
        <time>2023-02-10T14:34:20Z</time>
      </trkpt>
      <trkpt lat="43.58436" lon="1.35942">
        <ele>164</ele>
        <time>2023-02-10T14:34:21Z</time>
      </trkpt>
      <trkpt lat="43.58421" lon="1.35911">
        <ele>163.8</ele>
        <time>2023-02-10T14:34:26Z</time>
      </trkpt>
      <trkpt lat="43.58406" lon="1.35865">
        <ele>164.2</ele>
        <time>2023-02-10T14:34:32Z</time>
      </trkpt>
      <trkpt lat="43.58397" lon="1.3584">
        <ele>164.2</ele>
        <time>2023-02-10T14:34:35Z</time>
      </trkpt>
      <trkpt lat="43.58388" lon="1.35829">
        <ele>164.2</ele>
        <time>2023-02-10T14:34:37Z</time>
      </trkpt>
      <trkpt lat="43.58375" lon="1.35826">
        <ele>164.2</ele>
        <time>2023-02-10T14:34:39Z</time>
      </trkpt>
      <trkpt lat="43.5837" lon="1.35824">
        <ele>164.2</ele>
        <time>2023-02-10T14:34:40Z</time>
      </trkpt>
      <trkpt lat="43.58361" lon="1.35816">
        <ele>164.2</ele>
        <time>2023-02-10T14:34:42Z</time>
      </trkpt>
      <trkpt lat="43.58355" lon="1.35801">
        <ele>164</ele>
        <time>2023-02-10T14:34:44Z</time>
      </trkpt>
      <trkpt lat="43.58352" lon="1.35792">
        <ele>164</ele>
        <time>2023-02-10T14:34:45Z</time>
      </trkpt>
      <trkpt lat="43.58348" lon="1.35775">
        <ele>164</ele>
        <time>2023-02-10T14:34:47Z</time>
      </trkpt>
      <trkpt lat="43.58347" lon="1.35756">
        <ele>164</ele>
        <time>2023-02-10T14:34:49Z</time>
      </trkpt>
      <trkpt lat="43.58349" lon="1.35748">
        <ele>164</ele>
        <time>2023-02-10T14:34:50Z</time>
      </trkpt>
      <trkpt lat="43.58352" lon="1.35741">
        <ele>164</ele>
        <time>2023-02-10T14:34:51Z</time>
      </trkpt>
      <trkpt lat="43.58356" lon="1.35724">
        <ele>164</ele>
        <time>2023-02-10T14:34:53Z</time>
      </trkpt>
      <trkpt lat="43.58365" lon="1.35704">
        <ele>164.2</ele>
        <time>2023-02-10T14:34:56Z</time>
      </trkpt>
      <trkpt lat="43.58373" lon="1.35696">
        <ele>164.2</ele>
        <time>2023-02-10T14:34:58Z</time>
      </trkpt>
      <trkpt lat="43.58379" lon="1.35691">
        <ele>164.2</ele>
        <time>2023-02-10T14:34:59Z</time>
      </trkpt>
      <trkpt lat="43.58393" lon="1.35681">
        <ele>164.2</ele>
        <time>2023-02-10T14:35:01Z</time>
      </trkpt>
      <trkpt lat="43.58399" lon="1.35677">
        <ele>164.2</ele>
        <time>2023-02-10T14:35:02Z</time>
      </trkpt>
      <trkpt lat="43.58407" lon="1.35666">
        <ele>164.2</ele>
        <time>2023-02-10T14:35:04Z</time>
      </trkpt>
      <trkpt lat="43.58412" lon="1.35654">
        <ele>164.2</ele>
        <time>2023-02-10T14:35:06Z</time>
      </trkpt>
      <trkpt lat="43.58426" lon="1.35623">
        <ele>164.6</ele>
        <time>2023-02-10T14:35:11Z</time>
      </trkpt>
      <trkpt lat="43.58428" lon="1.35615">
        <ele>164.6</ele>
        <time>2023-02-10T14:35:12Z</time>
      </trkpt>
      <trkpt lat="43.5843" lon="1.35602">
        <ele>164.6</ele>
        <time>2023-02-10T14:35:14Z</time>
      </trkpt>
      <trkpt lat="43.58435" lon="1.35586">
        <ele>164.8</ele>
        <time>2023-02-10T14:35:17Z</time>
      </trkpt>
      <trkpt lat="43.58437" lon="1.35581">
        <ele>165</ele>
        <time>2023-02-10T14:35:18Z</time>
      </trkpt>
      <trkpt lat="43.58442" lon="1.3557">
        <ele>165.4</ele>
        <time>2023-02-10T14:35:20Z</time>
      </trkpt>
      <trkpt lat="43.58444" lon="1.35564">
        <ele>165.6</ele>
        <time>2023-02-10T14:35:21Z</time>
      </trkpt>
      <trkpt lat="43.5845" lon="1.3555">
        <ele>165.8</ele>
        <time>2023-02-10T14:35:23Z</time>
      </trkpt>
      <trkpt lat="43.58461" lon="1.35507">
        <ele>166.2</ele>
        <time>2023-02-10T14:35:29Z</time>
      </trkpt>
      <trkpt lat="43.58463" lon="1.355">
        <ele>166.4</ele>
        <time>2023-02-10T14:35:30Z</time>
      </trkpt>
      <trkpt lat="43.58467" lon="1.35485">
        <ele>166.6</ele>
        <time>2023-02-10T14:35:32Z</time>
      </trkpt>
      <trkpt lat="43.58472" lon="1.35469">
        <ele>166.6</ele>
        <time>2023-02-10T14:35:34Z</time>
      </trkpt>
      <trkpt lat="43.58473" lon="1.35452">
        <ele>166.8</ele>
        <time>2023-02-10T14:35:36Z</time>
      </trkpt>
      <trkpt lat="43.58471" lon="1.35434">
        <ele>167</ele>
        <time>2023-02-10T14:35:38Z</time>
      </trkpt>
      <trkpt lat="43.58466" lon="1.35402">
        <ele>167</ele>
        <time>2023-02-10T14:35:42Z</time>
      </trkpt>
      <trkpt lat="43.58465" lon="1.35385">
        <ele>167</ele>
        <time>2023-02-10T14:35:44Z</time>
      </trkpt>
      <trkpt lat="43.58459" lon="1.35369">
        <ele>167</ele>
        <time>2023-02-10T14:35:47Z</time>
      </trkpt>
      <trkpt lat="43.58441" lon="1.35359">
        <ele>167</ele>
        <time>2023-02-10T14:35:52Z</time>
      </trkpt>
      <trkpt lat="43.5842" lon="1.35348">
        <ele>167.2</ele>
        <time>2023-02-10T14:35:59Z</time>
      </trkpt>
      <trkpt lat="43.58412" lon="1.35344">
        <ele>167.2</ele>
        <time>2023-02-10T14:36:01Z</time>
      </trkpt>
      <trkpt lat="43.58405" lon="1.35334">
        <ele>167</ele>
        <time>2023-02-10T14:36:03Z</time>
      </trkpt>
      <trkpt lat="43.58401" lon="1.35318">
        <ele>167</ele>
        <time>2023-02-10T14:36:05Z</time>
      </trkpt>
      <trkpt lat="43.584" lon="1.35308">
        <ele>166.8</ele>
        <time>2023-02-10T14:36:06Z</time>
      </trkpt>
      <trkpt lat="43.584" lon="1.35291">
        <ele>166.4</ele>
        <time>2023-02-10T14:36:08Z</time>
      </trkpt>
      <trkpt lat="43.58396" lon="1.35273">
        <ele>165.8</ele>
        <time>2023-02-10T14:36:10Z</time>
      </trkpt>
      <trkpt lat="43.58392" lon="1.35247">
        <ele>165.6</ele>
        <time>2023-02-10T14:36:13Z</time>
      </trkpt>
      <trkpt lat="43.58392" lon="1.3523">
        <ele>165.6</ele>
        <time>2023-02-10T14:36:15Z</time>
      </trkpt>
      <trkpt lat="43.5839" lon="1.35213">
        <ele>165.6</ele>
        <time>2023-02-10T14:36:17Z</time>
      </trkpt>
      <trkpt lat="43.58384" lon="1.35196">
        <ele>165.6</ele>
        <time>2023-02-10T14:36:19Z</time>
      </trkpt>
      <trkpt lat="43.58377" lon="1.35183">
        <ele>165.6</ele>
        <time>2023-02-10T14:36:21Z</time>
      </trkpt>
      <trkpt lat="43.58365" lon="1.35166">
        <ele>165.6</ele>
        <time>2023-02-10T14:36:24Z</time>
      </trkpt>
      <trkpt lat="43.58357" lon="1.35153">
        <ele>165.4</ele>
        <time>2023-02-10T14:36:26Z</time>
      </trkpt>
      <trkpt lat="43.58351" lon="1.35138">
        <ele>165.4</ele>
        <time>2023-02-10T14:36:28Z</time>
      </trkpt>
      <trkpt lat="43.58348" lon="1.35132">
        <ele>165.4</ele>
        <time>2023-02-10T14:36:29Z</time>
      </trkpt>
      <trkpt lat="43.58336" lon="1.35112">
        <ele>165.6</ele>
        <time>2023-02-10T14:36:32Z</time>
      </trkpt>
      <trkpt lat="43.58333" lon="1.35106">
        <ele>165.6</ele>
        <time>2023-02-10T14:36:33Z</time>
      </trkpt>
      <trkpt lat="43.58326" lon="1.35095">
        <ele>165.8</ele>
        <time>2023-02-10T14:36:35Z</time>
      </trkpt>
      <trkpt lat="43.58315" lon="1.35088">
        <ele>166</ele>
        <time>2023-02-10T14:36:37Z</time>
      </trkpt>
      <trkpt lat="43.58296" lon="1.35086">
        <ele>166.4</ele>
        <time>2023-02-10T14:36:40Z</time>
      </trkpt>
      <trkpt lat="43.58289" lon="1.35087">
        <ele>166.4</ele>
        <time>2023-02-10T14:36:41Z</time>
      </trkpt>
      <trkpt lat="43.58245" lon="1.35092">
        <ele>166.6</ele>
        <time>2023-02-10T14:36:48Z</time>
      </trkpt>
      <trkpt lat="43.58229" lon="1.35096">
        <ele>166.6</ele>
        <time>2023-02-10T14:36:51Z</time>
      </trkpt>
      <trkpt lat="43.58225" lon="1.35096">
        <ele>166.6</ele>
        <time>2023-02-10T14:36:52Z</time>
      </trkpt>
      <trkpt lat="43.58223" lon="1.35096">
        <ele>166.6</ele>
        <time>2023-02-10T14:36:53Z</time>
      </trkpt>
      <trkpt lat="43.5822" lon="1.35089">
        <ele>166.8</ele>
        <time>2023-02-10T14:36:55Z</time>
      </trkpt>
      <trkpt lat="43.58217" lon="1.3508">
        <ele>167</ele>
        <time>2023-02-10T14:36:57Z</time>
      </trkpt>
      <trkpt lat="43.58208" lon="1.35072">
        <ele>167</ele>
        <time>2023-02-10T14:36:59Z</time>
      </trkpt>
      <trkpt lat="43.58192" lon="1.35054">
        <ele>167.2</ele>
        <time>2023-02-10T14:37:03Z</time>
      </trkpt>
      <trkpt lat="43.58189" lon="1.35049">
        <ele>167.2</ele>
        <time>2023-02-10T14:37:04Z</time>
      </trkpt>
      <trkpt lat="43.5818" lon="1.3503">
        <ele>167.2</ele>
        <time>2023-02-10T14:37:08Z</time>
      </trkpt>
      <trkpt lat="43.58177" lon="1.35025">
        <ele>167.2</ele>
        <time>2023-02-10T14:37:09Z</time>
      </trkpt>
      <trkpt lat="43.58174" lon="1.35022">
        <ele>167.2</ele>
        <time>2023-02-10T14:37:10Z</time>
      </trkpt>
      <trkpt lat="43.58164" lon="1.35023">
        <ele>167.2</ele>
        <time>2023-02-10T14:37:12Z</time>
      </trkpt>
      <trkpt lat="43.58144" lon="1.35032">
        <ele>167.2</ele>
        <time>2023-02-10T14:37:16Z</time>
      </trkpt>
      <trkpt lat="43.58134" lon="1.3503">
        <ele>167.2</ele>
        <time>2023-02-10T14:37:18Z</time>
      </trkpt>
      <trkpt lat="43.58119" lon="1.35018">
        <ele>167</ele>
        <time>2023-02-10T14:37:21Z</time>
      </trkpt>
      <trkpt lat="43.58112" lon="1.35015">
        <ele>167</ele>
        <time>2023-02-10T14:37:22Z</time>
      </trkpt>
      <trkpt lat="43.58107" lon="1.35013">
        <ele>167</ele>
        <time>2023-02-10T14:37:23Z</time>
      </trkpt>
      <trkpt lat="43.58088" lon="1.35009">
        <ele>166.8</ele>
        <time>2023-02-10T14:37:27Z</time>
      </trkpt>
      <trkpt lat="43.58048" lon="1.34995">
        <ele>166.8</ele>
        <time>2023-02-10T14:37:33Z</time>
      </trkpt>
      <trkpt lat="43.5802" lon="1.34979">
        <ele>166.8</ele>
        <time>2023-02-10T14:37:38Z</time>
      </trkpt>
      <trkpt lat="43.5801" lon="1.3497">
        <ele>166.8</ele>
        <time>2023-02-10T14:37:40Z</time>
      </trkpt>
      <trkpt lat="43.58005" lon="1.34965">
        <ele>167</ele>
        <time>2023-02-10T14:37:41Z</time>
      </trkpt>
      <trkpt lat="43.57989" lon="1.34942">
        <ele>167.2</ele>
        <time>2023-02-10T14:37:45Z</time>
      </trkpt>
      <trkpt lat="43.57968" lon="1.34924">
        <ele>167.4</ele>
        <time>2023-02-10T14:37:49Z</time>
      </trkpt>
      <trkpt lat="43.57958" lon="1.34916">
        <ele>167.6</ele>
        <time>2023-02-10T14:37:52Z</time>
      </trkpt>
      <trkpt lat="43.5792" lon="1.34884">
        <ele>168</ele>
        <time>2023-02-10T14:37:58Z</time>
      </trkpt>
      <trkpt lat="43.57895" lon="1.34851">
        <ele>167.8</ele>
        <time>2023-02-10T14:38:04Z</time>
      </trkpt>
      <trkpt lat="43.57892" lon="1.34847">
        <ele>167.8</ele>
        <time>2023-02-10T14:38:05Z</time>
      </trkpt>
      <trkpt lat="43.57883" lon="1.34841">
        <ele>167.8</ele>
        <time>2023-02-10T14:38:07Z</time>
      </trkpt>
      <trkpt lat="43.57878" lon="1.34837">
        <ele>167.8</ele>
        <time>2023-02-10T14:38:08Z</time>
      </trkpt>
      <trkpt lat="43.57867" lon="1.34831">
        <ele>167.8</ele>
        <time>2023-02-10T14:38:10Z</time>
      </trkpt>
      <trkpt lat="43.57858" lon="1.34821">
        <ele>167.8</ele>
        <time>2023-02-10T14:38:12Z</time>
      </trkpt>
      <trkpt lat="43.57855" lon="1.34815">
        <ele>167.8</ele>
        <time>2023-02-10T14:38:13Z</time>
      </trkpt>
      <trkpt lat="43.57841" lon="1.34789">
        <ele>167.8</ele>
        <time>2023-02-10T14:38:17Z</time>
      </trkpt>
      <trkpt lat="43.57838" lon="1.34782">
        <ele>167.8</ele>
        <time>2023-02-10T14:38:18Z</time>
      </trkpt>
      <trkpt lat="43.57813" lon="1.34733">
        <ele>168.2</ele>
        <time>2023-02-10T14:38:24Z</time>
      </trkpt>
      <trkpt lat="43.57796" lon="1.3469">
        <ele>168.4</ele>
        <time>2023-02-10T14:38:29Z</time>
      </trkpt>
      <trkpt lat="43.5779" lon="1.34663">
        <ele>168.4</ele>
        <time>2023-02-10T14:38:32Z</time>
      </trkpt>
      <trkpt lat="43.57786" lon="1.34643">
        <ele>168.4</ele>
        <time>2023-02-10T14:38:34Z</time>
      </trkpt>
      <trkpt lat="43.57779" lon="1.34586">
        <ele>168.6</ele>
        <time>2023-02-10T14:38:40Z</time>
      </trkpt>
      <trkpt lat="43.5778" lon="1.34568">
        <ele>168.6</ele>
        <time>2023-02-10T14:38:42Z</time>
      </trkpt>
      <trkpt lat="43.57781" lon="1.3456">
        <ele>168.4</ele>
        <time>2023-02-10T14:38:43Z</time>
      </trkpt>
      <trkpt lat="43.57787" lon="1.34535">
        <ele>168.2</ele>
        <time>2023-02-10T14:38:46Z</time>
      </trkpt>
      <trkpt lat="43.57794" lon="1.34501">
        <ele>167.4</ele>
        <time>2023-02-10T14:38:50Z</time>
      </trkpt>
      <trkpt lat="43.578" lon="1.34477">
        <ele>167.2</ele>
        <time>2023-02-10T14:38:53Z</time>
      </trkpt>
      <trkpt lat="43.57817" lon="1.34414">
        <ele>167.2</ele>
        <time>2023-02-10T14:39:01Z</time>
      </trkpt>
      <trkpt lat="43.57818" lon="1.34398">
        <ele>167.6</ele>
        <time>2023-02-10T14:39:03Z</time>
      </trkpt>
      <trkpt lat="43.57816" lon="1.34383">
        <ele>168</ele>
        <time>2023-02-10T14:39:05Z</time>
      </trkpt>
      <trkpt lat="43.57805" lon="1.34366">
        <ele>168.4</ele>
        <time>2023-02-10T14:39:08Z</time>
      </trkpt>
      <trkpt lat="43.57789" lon="1.3436">
        <ele>168.6</ele>
        <time>2023-02-10T14:39:11Z</time>
      </trkpt>
      <trkpt lat="43.57778" lon="1.34358">
        <ele>168.8</ele>
        <time>2023-02-10T14:39:13Z</time>
      </trkpt>
      <trkpt lat="43.57773" lon="1.34359">
        <ele>168.8</ele>
        <time>2023-02-10T14:39:14Z</time>
      </trkpt>
      <trkpt lat="43.57752" lon="1.34365">
        <ele>169.2</ele>
        <time>2023-02-10T14:39:18Z</time>
      </trkpt>
      <trkpt lat="43.57748" lon="1.34365">
        <ele>169.4</ele>
        <time>2023-02-10T14:39:19Z</time>
      </trkpt>
      <trkpt lat="43.57745" lon="1.34363">
        <ele>169.4</ele>
        <time>2023-02-10T14:39:20Z</time>
      </trkpt>
      <trkpt lat="43.57743" lon="1.3436">
        <ele>169.6</ele>
        <time>2023-02-10T14:39:21Z</time>
      </trkpt>
      <trkpt lat="43.57743" lon="1.34358">
        <ele>169.6</ele>
        <time>2023-02-10T14:39:22Z</time>
      </trkpt>
      <trkpt lat="43.57752" lon="1.34354">
        <ele>169.8</ele>
        <time>2023-02-10T14:39:26Z</time>
      </trkpt>
      <trkpt lat="43.57771" lon="1.34345">
        <ele>170</ele>
        <time>2023-02-10T14:39:31Z</time>
      </trkpt>
      <trkpt lat="43.57785" lon="1.34333">
        <ele>170.4</ele>
        <time>2023-02-10T14:39:36Z</time>
      </trkpt>
      <trkpt lat="43.57794" lon="1.34316">
        <ele>170.6</ele>
        <time>2023-02-10T14:39:40Z</time>
      </trkpt>
      <trkpt lat="43.57796" lon="1.34312">
        <ele>171</ele>
        <time>2023-02-10T14:39:41Z</time>
      </trkpt>
      <trkpt lat="43.57798" lon="1.34308">
        <ele>171.2</ele>
        <time>2023-02-10T14:39:42Z</time>
      </trkpt>
      <trkpt lat="43.57795" lon="1.34303">
        <ele>171.4</ele>
        <time>2023-02-10T14:39:44Z</time>
      </trkpt>
      <trkpt lat="43.57775" lon="1.34292">
        <ele>171.6</ele>
        <time>2023-02-10T14:39:49Z</time>
      </trkpt>
      <trkpt lat="43.57759" lon="1.34285">
        <ele>171.4</ele>
        <time>2023-02-10T14:39:52Z</time>
      </trkpt>
      <trkpt lat="43.57748" lon="1.34283">
        <ele>171.4</ele>
        <time>2023-02-10T14:39:54Z</time>
      </trkpt>
      <trkpt lat="43.57739" lon="1.34282">
        <ele>171</ele>
        <time>2023-02-10T14:39:56Z</time>
      </trkpt>
      <trkpt lat="43.57736" lon="1.3428">
        <ele>170.8</ele>
        <time>2023-02-10T14:39:57Z</time>
      </trkpt>
      <trkpt lat="43.57727" lon="1.34271">
        <ele>170.6</ele>
        <time>2023-02-10T14:40:00Z</time>
      </trkpt>
      <trkpt lat="43.5772" lon="1.34268">
        <ele>170.4</ele>
        <time>2023-02-10T14:40:02Z</time>
      </trkpt>
      <trkpt lat="43.57693" lon="1.34257">
        <ele>170.4</ele>
        <time>2023-02-10T14:40:08Z</time>
      </trkpt>
      <trkpt lat="43.57683" lon="1.34252">
        <ele>170.4</ele>
        <time>2023-02-10T14:40:10Z</time>
      </trkpt>
      <trkpt lat="43.57671" lon="1.34239">
        <ele>170.6</ele>
        <time>2023-02-10T14:40:13Z</time>
      </trkpt>
      <trkpt lat="43.57653" lon="1.34219">
        <ele>170.8</ele>
        <time>2023-02-10T14:40:17Z</time>
      </trkpt>
      <trkpt lat="43.57645" lon="1.34206">
        <ele>170.8</ele>
        <time>2023-02-10T14:40:19Z</time>
      </trkpt>
      <trkpt lat="43.5762" lon="1.34169">
        <ele>171</ele>
        <time>2023-02-10T14:40:25Z</time>
      </trkpt>
      <trkpt lat="43.57613" lon="1.34154">
        <ele>171</ele>
        <time>2023-02-10T14:40:27Z</time>
      </trkpt>
      <trkpt lat="43.57609" lon="1.34129">
        <ele>171.2</ele>
        <time>2023-02-10T14:40:30Z</time>
      </trkpt>
      <trkpt lat="43.5761" lon="1.3412">
        <ele>171.2</ele>
        <time>2023-02-10T14:40:31Z</time>
      </trkpt>
      <trkpt lat="43.57617" lon="1.3406">
        <ele>171.4</ele>
        <time>2023-02-10T14:40:38Z</time>
      </trkpt>
      <trkpt lat="43.5762" lon="1.34053">
        <ele>171.4</ele>
        <time>2023-02-10T14:40:39Z</time>
      </trkpt>
      <trkpt lat="43.5763" lon="1.34029">
        <ele>171.2</ele>
        <time>2023-02-10T14:40:42Z</time>
      </trkpt>
      <trkpt lat="43.57631" lon="1.34014">
        <ele>171</ele>
        <time>2023-02-10T14:40:44Z</time>
      </trkpt>
      <trkpt lat="43.57624" lon="1.34003">
        <ele>171.2</ele>
        <time>2023-02-10T14:40:46Z</time>
      </trkpt>
      <trkpt lat="43.57618" lon="1.33999">
        <ele>171.2</ele>
        <time>2023-02-10T14:40:47Z</time>
      </trkpt>
      <trkpt lat="43.57602" lon="1.33986">
        <ele>171.2</ele>
        <time>2023-02-10T14:40:50Z</time>
      </trkpt>
      <trkpt lat="43.57593" lon="1.33974">
        <ele>171.4</ele>
        <time>2023-02-10T14:40:52Z</time>
      </trkpt>
      <trkpt lat="43.57585" lon="1.33959">
        <ele>171.4</ele>
        <time>2023-02-10T14:40:54Z</time>
      </trkpt>
      <trkpt lat="43.57584" lon="1.33951">
        <ele>171.4</ele>
        <time>2023-02-10T14:40:55Z</time>
      </trkpt>
      <trkpt lat="43.57584" lon="1.33945">
        <ele>171.4</ele>
        <time>2023-02-10T14:40:56Z</time>
      </trkpt>
      <trkpt lat="43.57586" lon="1.3394">
        <ele>171.2</ele>
        <time>2023-02-10T14:40:57Z</time>
      </trkpt>
      <trkpt lat="43.57608" lon="1.33912">
        <ele>170.8</ele>
        <time>2023-02-10T14:41:04Z</time>
      </trkpt>
      <trkpt lat="43.57616" lon="1.339">
        <ele>170.8</ele>
        <time>2023-02-10T14:41:05Z</time>
      </trkpt>
      <trkpt lat="43.57622" lon="1.33885">
        <ele>170.8</ele>
        <time>2023-02-10T14:41:07Z</time>
      </trkpt>
      <trkpt lat="43.57627" lon="1.33843">
        <ele>170.8</ele>
        <time>2023-02-10T14:41:12Z</time>
      </trkpt>
      <trkpt lat="43.57627" lon="1.33835">
        <ele>170.8</ele>
        <time>2023-02-10T14:41:13Z</time>
      </trkpt>
      <trkpt lat="43.57629" lon="1.33813">
        <ele>170.6</ele>
        <time>2023-02-10T14:41:16Z</time>
      </trkpt>
      <trkpt lat="43.57631" lon="1.33807">
        <ele>170.6</ele>
        <time>2023-02-10T14:41:17Z</time>
      </trkpt>
      <trkpt lat="43.57632" lon="1.33801">
        <ele>170.6</ele>
        <time>2023-02-10T14:41:18Z</time>
      </trkpt>
      <trkpt lat="43.57633" lon="1.3378">
        <ele>170.8</ele>
        <time>2023-02-10T14:41:21Z</time>
      </trkpt>
      <trkpt lat="43.57633" lon="1.33728">
        <ele>170.8</ele>
        <time>2023-02-10T14:41:27Z</time>
      </trkpt>
      <trkpt lat="43.57629" lon="1.33657">
        <ele>170.6</ele>
        <time>2023-02-10T14:41:35Z</time>
      </trkpt>
      <trkpt lat="43.57619" lon="1.33577">
        <ele>170.8</ele>
        <time>2023-02-10T14:41:44Z</time>
      </trkpt>
      <trkpt lat="43.57613" lon="1.33549">
        <ele>171.2</ele>
        <time>2023-02-10T14:41:47Z</time>
      </trkpt>
      <trkpt lat="43.57607" lon="1.33535">
        <ele>171.2</ele>
        <time>2023-02-10T14:41:49Z</time>
      </trkpt>
      <trkpt lat="43.57589" lon="1.33497">
        <ele>171.2</ele>
        <time>2023-02-10T14:41:54Z</time>
      </trkpt>
      <trkpt lat="43.57565" lon="1.33442">
        <ele>171.2</ele>
        <time>2023-02-10T14:42:01Z</time>
      </trkpt>
      <trkpt lat="43.57537" lon="1.33389">
        <ele>171.2</ele>
        <time>2023-02-10T14:42:08Z</time>
      </trkpt>
      <trkpt lat="43.57516" lon="1.33354">
        <ele>171.2</ele>
        <time>2023-02-10T14:42:13Z</time>
      </trkpt>
      <trkpt lat="43.57513" lon="1.33345">
        <ele>171.2</ele>
        <time>2023-02-10T14:42:14Z</time>
      </trkpt>
      <trkpt lat="43.57512" lon="1.33338">
        <ele>171.2</ele>
        <time>2023-02-10T14:42:15Z</time>
      </trkpt>
      <trkpt lat="43.57505" lon="1.33293">
        <ele>171.2</ele>
        <time>2023-02-10T14:42:20Z</time>
      </trkpt>
      <trkpt lat="43.5749" lon="1.33243">
        <ele>171.6</ele>
        <time>2023-02-10T14:42:26Z</time>
      </trkpt>
      <trkpt lat="43.57463" lon="1.33196">
        <ele>171.6</ele>
        <time>2023-02-10T14:42:33Z</time>
      </trkpt>
      <trkpt lat="43.57447" lon="1.33171">
        <ele>171.6</ele>
        <time>2023-02-10T14:42:37Z</time>
      </trkpt>
      <trkpt lat="43.57443" lon="1.33161">
        <ele>171.6</ele>
        <time>2023-02-10T14:42:39Z</time>
      </trkpt>
      <trkpt lat="43.57442" lon="1.33155">
        <ele>171.8</ele>
        <time>2023-02-10T14:42:40Z</time>
      </trkpt>
      <trkpt lat="43.5744" lon="1.33145">
        <ele>171.8</ele>
        <time>2023-02-10T14:42:42Z</time>
      </trkpt>
      <trkpt lat="43.57439" lon="1.33133">
        <ele>172</ele>
        <time>2023-02-10T14:42:44Z</time>
      </trkpt>
      <trkpt lat="43.57435" lon="1.33121">
        <ele>172.2</ele>
        <time>2023-02-10T14:42:46Z</time>
      </trkpt>
      <trkpt lat="43.57417" lon="1.33081">
        <ele>172.8</ele>
        <time>2023-02-10T14:42:53Z</time>
      </trkpt>
      <trkpt lat="43.57412" lon="1.33069">
        <ele>173.2</ele>
        <time>2023-02-10T14:42:55Z</time>
      </trkpt>
      <trkpt lat="43.57405" lon="1.33056">
        <ele>173.4</ele>
        <time>2023-02-10T14:42:57Z</time>
      </trkpt>
      <trkpt lat="43.57398" lon="1.33046">
        <ele>173.8</ele>
        <time>2023-02-10T14:42:59Z</time>
      </trkpt>
      <trkpt lat="43.57398" lon="1.33046">
        <ele>173.8</ele>
        <time>2023-02-10T14:43:00Z</time>
      </trkpt>
      <trkpt lat="43.57382" lon="1.33035">
        <ele>173.8</ele>
        <time>2023-02-10T14:43:02Z</time>
      </trkpt>
      <trkpt lat="43.57371" lon="1.33025">
        <ele>173.6</ele>
        <time>2023-02-10T14:43:04Z</time>
      </trkpt>
      <trkpt lat="43.57364" lon="1.33015">
        <ele>173.4</ele>
        <time>2023-02-10T14:43:06Z</time>
      </trkpt>
      <trkpt lat="43.57358" lon="1.33005">
        <ele>172.6</ele>
        <time>2023-02-10T14:43:08Z</time>
      </trkpt>
      <trkpt lat="43.57355" lon="1.33001">
        <ele>172.4</ele>
        <time>2023-02-10T14:43:09Z</time>
      </trkpt>
      <trkpt lat="43.57348" lon="1.32991">
        <ele>172.4</ele>
        <time>2023-02-10T14:43:11Z</time>
      </trkpt>
      <trkpt lat="43.5734" lon="1.3298">
        <ele>172.4</ele>
        <time>2023-02-10T14:43:13Z</time>
      </trkpt>
      <trkpt lat="43.57318" lon="1.32938">
        <ele>172.8</ele>
        <time>2023-02-10T14:43:20Z</time>
      </trkpt>
      <trkpt lat="43.57293" lon="1.32904">
        <ele>173</ele>
        <time>2023-02-10T14:43:26Z</time>
      </trkpt>
      <trkpt lat="43.57257" lon="1.32871">
        <ele>172.8</ele>
        <time>2023-02-10T14:43:33Z</time>
      </trkpt>
      <trkpt lat="43.5721" lon="1.32831">
        <ele>172.8</ele>
        <time>2023-02-10T14:43:42Z</time>
      </trkpt>
      <trkpt lat="43.572" lon="1.32823">
        <ele>173</ele>
        <time>2023-02-10T14:43:44Z</time>
      </trkpt>
      <trkpt lat="43.57154" lon="1.32773">
        <ele>173.4</ele>
        <time>2023-02-10T14:43:53Z</time>
      </trkpt>
      <trkpt lat="43.57124" lon="1.32726">
        <ele>173.4</ele>
        <time>2023-02-10T14:44:00Z</time>
      </trkpt>
      <trkpt lat="43.5712" lon="1.32719">
        <ele>173.4</ele>
        <time>2023-02-10T14:44:01Z</time>
      </trkpt>
      <trkpt lat="43.57114" lon="1.32694">
        <ele>173.2</ele>
        <time>2023-02-10T14:44:04Z</time>
      </trkpt>
      <trkpt lat="43.57114" lon="1.32677">
        <ele>173.4</ele>
        <time>2023-02-10T14:44:06Z</time>
      </trkpt>
      <trkpt lat="43.57117" lon="1.32659">
        <ele>173.2</ele>
        <time>2023-02-10T14:44:08Z</time>
      </trkpt>
      <trkpt lat="43.5713" lon="1.32599">
        <ele>173.6</ele>
        <time>2023-02-10T14:44:15Z</time>
      </trkpt>
      <trkpt lat="43.57139" lon="1.32566">
        <ele>173.6</ele>
        <time>2023-02-10T14:44:19Z</time>
      </trkpt>
      <trkpt lat="43.57144" lon="1.3255">
        <ele>173.6</ele>
        <time>2023-02-10T14:44:21Z</time>
      </trkpt>
      <trkpt lat="43.5715" lon="1.32527">
        <ele>174</ele>
        <time>2023-02-10T14:44:24Z</time>
      </trkpt>
      <trkpt lat="43.57155" lon="1.32505">
        <ele>174.4</ele>
        <time>2023-02-10T14:44:27Z</time>
      </trkpt>
      <trkpt lat="43.57174" lon="1.32427">
        <ele>174.6</ele>
        <time>2023-02-10T14:44:37Z</time>
      </trkpt>
      <trkpt lat="43.57181" lon="1.32374">
        <ele>174.6</ele>
        <time>2023-02-10T14:44:43Z</time>
      </trkpt>
      <trkpt lat="43.57177" lon="1.32318">
        <ele>174.6</ele>
        <time>2023-02-10T14:44:49Z</time>
      </trkpt>
      <trkpt lat="43.57174" lon="1.32264">
        <ele>174.6</ele>
        <time>2023-02-10T14:44:55Z</time>
      </trkpt>
      <trkpt lat="43.57175" lon="1.32246">
        <ele>174.6</ele>
        <time>2023-02-10T14:44:57Z</time>
      </trkpt>
      <trkpt lat="43.57186" lon="1.32206">
        <ele>175.2</ele>
        <time>2023-02-10T14:45:02Z</time>
      </trkpt>
      <trkpt lat="43.57188" lon="1.32198">
        <ele>175.4</ele>
        <time>2023-02-10T14:45:03Z</time>
      </trkpt>
      <trkpt lat="43.57194" lon="1.32157">
        <ele>175.6</ele>
        <time>2023-02-10T14:45:08Z</time>
      </trkpt>
      <trkpt lat="43.57197" lon="1.32124">
        <ele>175.6</ele>
        <time>2023-02-10T14:45:12Z</time>
      </trkpt>
      <trkpt lat="43.57194" lon="1.32108">
        <ele>175.6</ele>
        <time>2023-02-10T14:45:14Z</time>
      </trkpt>
      <trkpt lat="43.57179" lon="1.3206">
        <ele>175.4</ele>
        <time>2023-02-10T14:45:20Z</time>
      </trkpt>
      <trkpt lat="43.57169" lon="1.32037">
        <ele>175.2</ele>
        <time>2023-02-10T14:45:23Z</time>
      </trkpt>
      <trkpt lat="43.5716" lon="1.32025">
        <ele>175.2</ele>
        <time>2023-02-10T14:45:25Z</time>
      </trkpt>
      <trkpt lat="43.57121" lon="1.31997">
        <ele>174.8</ele>
        <time>2023-02-10T14:45:32Z</time>
      </trkpt>
      <trkpt lat="43.57116" lon="1.31994">
        <ele>174.4</ele>
        <time>2023-02-10T14:45:33Z</time>
      </trkpt>
      <trkpt lat="43.57103" lon="1.31989">
        <ele>174</ele>
        <time>2023-02-10T14:45:35Z</time>
      </trkpt>
      <trkpt lat="43.57091" lon="1.31983">
        <ele>173.6</ele>
        <time>2023-02-10T14:45:37Z</time>
      </trkpt>
      <trkpt lat="43.57057" lon="1.31959">
        <ele>173.4</ele>
        <time>2023-02-10T14:45:43Z</time>
      </trkpt>
      <trkpt lat="43.57022" lon="1.31935">
        <ele>173.4</ele>
        <time>2023-02-10T14:45:50Z</time>
      </trkpt>
      <trkpt lat="43.57013" lon="1.3193">
        <ele>173.4</ele>
        <time>2023-02-10T14:45:52Z</time>
      </trkpt>
      <trkpt lat="43.57008" lon="1.31929">
        <ele>173.4</ele>
        <time>2023-02-10T14:45:53Z</time>
      </trkpt>
      <trkpt lat="43.57003" lon="1.31927">
        <ele>173.4</ele>
        <time>2023-02-10T14:45:54Z</time>
      </trkpt>
      <trkpt lat="43.56982" lon="1.31916">
        <ele>173.6</ele>
        <time>2023-02-10T14:45:58Z</time>
      </trkpt>
      <trkpt lat="43.56966" lon="1.31908">
        <ele>173.6</ele>
        <time>2023-02-10T14:46:01Z</time>
      </trkpt>
      <trkpt lat="43.56959" lon="1.31899">
        <ele>173.6</ele>
        <time>2023-02-10T14:46:03Z</time>
      </trkpt>
      <trkpt lat="43.5695" lon="1.31886">
        <ele>173.8</ele>
        <time>2023-02-10T14:46:07Z</time>
      </trkpt>
      <trkpt lat="43.56942" lon="1.31873">
        <ele>173.8</ele>
        <time>2023-02-10T14:46:11Z</time>
      </trkpt>
      <trkpt lat="43.56941" lon="1.31867">
        <ele>173.8</ele>
        <time>2023-02-10T14:46:12Z</time>
      </trkpt>
      <trkpt lat="43.56934" lon="1.31835">
        <ele>173.4</ele>
        <time>2023-02-10T14:46:17Z</time>
      </trkpt>
      <trkpt lat="43.56932" lon="1.31821">
        <ele>173.4</ele>
        <time>2023-02-10T14:46:19Z</time>
      </trkpt>
      <trkpt lat="43.56931" lon="1.31812">
        <ele>173.6</ele>
        <time>2023-02-10T14:46:20Z</time>
      </trkpt>
      <trkpt lat="43.56925" lon="1.31796">
        <ele>173.6</ele>
        <time>2023-02-10T14:46:22Z</time>
      </trkpt>
      <trkpt lat="43.56919" lon="1.31779">
        <ele>173.6</ele>
        <time>2023-02-10T14:46:24Z</time>
      </trkpt>
      <trkpt lat="43.56912" lon="1.31742">
        <ele>174</ele>
        <time>2023-02-10T14:46:28Z</time>
      </trkpt>
      <trkpt lat="43.5691" lon="1.31733">
        <ele>174</ele>
        <time>2023-02-10T14:46:29Z</time>
      </trkpt>
      <trkpt lat="43.56893" lon="1.31663">
        <ele>174</ele>
        <time>2023-02-10T14:46:37Z</time>
      </trkpt>
      <trkpt lat="43.56891" lon="1.31654">
        <ele>174</ele>
        <time>2023-02-10T14:46:38Z</time>
      </trkpt>
      <trkpt lat="43.56889" lon="1.31646">
        <ele>174</ele>
        <time>2023-02-10T14:46:39Z</time>
      </trkpt>
      <trkpt lat="43.56887" lon="1.31631">
        <ele>174</ele>
        <time>2023-02-10T14:46:41Z</time>
      </trkpt>
      <trkpt lat="43.56888" lon="1.31618">
        <ele>174</ele>
        <time>2023-02-10T14:46:43Z</time>
      </trkpt>
      <trkpt lat="43.56887" lon="1.3161">
        <ele>174</ele>
        <time>2023-02-10T14:46:45Z</time>
      </trkpt>
      <trkpt lat="43.5688" lon="1.31605">
        <ele>174</ele>
        <time>2023-02-10T14:46:47Z</time>
      </trkpt>
      <trkpt lat="43.56875" lon="1.31604">
        <ele>174</ele>
        <time>2023-02-10T14:46:48Z</time>
      </trkpt>
      <trkpt lat="43.56869" lon="1.31604">
        <ele>174.2</ele>
        <time>2023-02-10T14:46:49Z</time>
      </trkpt>
      <trkpt lat="43.56857" lon="1.31604">
        <ele>174</ele>
        <time>2023-02-10T14:46:51Z</time>
      </trkpt>
      <trkpt lat="43.56848" lon="1.31601">
        <ele>174</ele>
        <time>2023-02-10T14:46:52Z</time>
      </trkpt>
      <trkpt lat="43.56828" lon="1.31586">
        <ele>173.8</ele>
        <time>2023-02-10T14:46:56Z</time>
      </trkpt>
      <trkpt lat="43.56824" lon="1.31581">
        <ele>173.8</ele>
        <time>2023-02-10T14:46:57Z</time>
      </trkpt>
      <trkpt lat="43.56821" lon="1.31575">
        <ele>173.8</ele>
        <time>2023-02-10T14:46:58Z</time>
      </trkpt>
      <trkpt lat="43.5681" lon="1.31553">
        <ele>173.8</ele>
        <time>2023-02-10T14:47:01Z</time>
      </trkpt>
      <trkpt lat="43.56794" lon="1.31517">
        <ele>174</ele>
        <time>2023-02-10T14:47:06Z</time>
      </trkpt>
      <trkpt lat="43.56769" lon="1.31475">
        <ele>174.4</ele>
        <time>2023-02-10T14:47:12Z</time>
      </trkpt>
      <trkpt lat="43.56744" lon="1.31433">
        <ele>174.8</ele>
        <time>2023-02-10T14:47:18Z</time>
      </trkpt>
      <trkpt lat="43.56734" lon="1.31414">
        <ele>174.8</ele>
        <time>2023-02-10T14:47:21Z</time>
      </trkpt>
      <trkpt lat="43.5672" lon="1.31397">
        <ele>175</ele>
        <time>2023-02-10T14:47:24Z</time>
      </trkpt>
      <trkpt lat="43.56688" lon="1.31356">
        <ele>175</ele>
        <time>2023-02-10T14:47:31Z</time>
      </trkpt>
      <trkpt lat="43.5668" lon="1.31342">
        <ele>175</ele>
        <time>2023-02-10T14:47:33Z</time>
      </trkpt>
      <trkpt lat="43.56675" lon="1.31326">
        <ele>175</ele>
        <time>2023-02-10T14:47:35Z</time>
      </trkpt>
      <trkpt lat="43.56668" lon="1.31278">
        <ele>175.4</ele>
        <time>2023-02-10T14:47:41Z</time>
      </trkpt>
      <trkpt lat="43.56666" lon="1.31272">
        <ele>175.4</ele>
        <time>2023-02-10T14:47:42Z</time>
      </trkpt>
      <trkpt lat="43.56663" lon="1.31265">
        <ele>175.4</ele>
        <time>2023-02-10T14:47:43Z</time>
      </trkpt>
      <trkpt lat="43.56652" lon="1.31249">
        <ele>175.6</ele>
        <time>2023-02-10T14:47:46Z</time>
      </trkpt>
      <trkpt lat="43.56648" lon="1.31243">
        <ele>175.8</ele>
        <time>2023-02-10T14:47:47Z</time>
      </trkpt>
      <trkpt lat="43.5663" lon="1.31219">
        <ele>175.8</ele>
        <time>2023-02-10T14:47:51Z</time>
      </trkpt>
      <trkpt lat="43.56602" lon="1.31193">
        <ele>175.8</ele>
        <time>2023-02-10T14:47:56Z</time>
      </trkpt>
      <trkpt lat="43.56597" lon="1.31189">
        <ele>175.6</ele>
        <time>2023-02-10T14:47:57Z</time>
      </trkpt>
      <trkpt lat="43.56585" lon="1.31188">
        <ele>175.6</ele>
        <time>2023-02-10T14:47:59Z</time>
      </trkpt>
      <trkpt lat="43.56555" lon="1.312">
        <ele>175.8</ele>
        <time>2023-02-10T14:48:05Z</time>
      </trkpt>
      <trkpt lat="43.56518" lon="1.31202">
        <ele>175.8</ele>
        <time>2023-02-10T14:48:11Z</time>
      </trkpt>
      <trkpt lat="43.56513" lon="1.312">
        <ele>175.6</ele>
        <time>2023-02-10T14:48:12Z</time>
      </trkpt>
      <trkpt lat="43.56503" lon="1.31194">
        <ele>175.4</ele>
        <time>2023-02-10T14:48:14Z</time>
      </trkpt>
      <trkpt lat="43.56499" lon="1.31192">
        <ele>175.2</ele>
        <time>2023-02-10T14:48:15Z</time>
      </trkpt>
      <trkpt lat="43.56489" lon="1.31189">
        <ele>174.6</ele>
        <time>2023-02-10T14:48:17Z</time>
      </trkpt>
      <trkpt lat="43.56484" lon="1.31187">
        <ele>174.4</ele>
        <time>2023-02-10T14:48:18Z</time>
      </trkpt>
      <trkpt lat="43.5648" lon="1.31184">
        <ele>174.4</ele>
        <time>2023-02-10T14:48:19Z</time>
      </trkpt>
      <trkpt lat="43.56473" lon="1.31177">
        <ele>174.4</ele>
        <time>2023-02-10T14:48:21Z</time>
      </trkpt>
      <trkpt lat="43.5647" lon="1.31173">
        <ele>174.4</ele>
        <time>2023-02-10T14:48:22Z</time>
      </trkpt>
      <trkpt lat="43.56468" lon="1.31168">
        <ele>174.4</ele>
        <time>2023-02-10T14:48:23Z</time>
      </trkpt>
      <trkpt lat="43.56461" lon="1.31153">
        <ele>175</ele>
        <time>2023-02-10T14:48:26Z</time>
      </trkpt>
      <trkpt lat="43.56453" lon="1.31142">
        <ele>175.4</ele>
        <time>2023-02-10T14:48:28Z</time>
      </trkpt>
      <trkpt lat="43.56449" lon="1.31136">
        <ele>175.6</ele>
        <time>2023-02-10T14:48:29Z</time>
      </trkpt>
      <trkpt lat="43.5644" lon="1.31108">
        <ele>175.8</ele>
        <time>2023-02-10T14:48:33Z</time>
      </trkpt>
      <trkpt lat="43.56437" lon="1.31104">
        <ele>175.8</ele>
        <time>2023-02-10T14:48:34Z</time>
      </trkpt>
      <trkpt lat="43.56434" lon="1.31103">
        <ele>176</ele>
        <time>2023-02-10T14:48:35Z</time>
      </trkpt>
      <trkpt lat="43.56431" lon="1.31102">
        <ele>176</ele>
        <time>2023-02-10T14:48:36Z</time>
      </trkpt>
      <trkpt lat="43.5643" lon="1.31102">
        <ele>176</ele>
        <time>2023-02-10T14:48:37Z</time>
      </trkpt>
      <trkpt lat="43.56425" lon="1.31108">
        <ele>177</ele>
        <time>2023-02-10T14:48:41Z</time>
      </trkpt>
      <trkpt lat="43.56422" lon="1.3111">
        <ele>177.2</ele>
        <time>2023-02-10T14:48:42Z</time>
      </trkpt>
      <trkpt lat="43.56415" lon="1.31117">
        <ele>177.6</ele>
        <time>2023-02-10T14:48:45Z</time>
      </trkpt>
      <trkpt lat="43.56414" lon="1.31118">
        <ele>177.8</ele>
        <time>2023-02-10T14:48:46Z</time>
      </trkpt>
      <trkpt lat="43.56411" lon="1.31117">
        <ele>178</ele>
        <time>2023-02-10T14:48:48Z</time>
      </trkpt>
      <trkpt lat="43.5641" lon="1.31114">
        <ele>178</ele>
        <time>2023-02-10T14:48:49Z</time>
      </trkpt>
      <trkpt lat="43.56403" lon="1.31091">
        <ele>178</ele>
        <time>2023-02-10T14:48:53Z</time>
      </trkpt>
      <trkpt lat="43.5639" lon="1.31059">
        <ele>176.8</ele>
        <time>2023-02-10T14:48:58Z</time>
      </trkpt>
      <trkpt lat="43.56383" lon="1.31039">
        <ele>176.8</ele>
        <time>2023-02-10T14:49:01Z</time>
      </trkpt>
      <trkpt lat="43.56379" lon="1.31024">
        <ele>176.8</ele>
        <time>2023-02-10T14:49:03Z</time>
      </trkpt>
      <trkpt lat="43.56378" lon="1.31016">
        <ele>176.8</ele>
        <time>2023-02-10T14:49:04Z</time>
      </trkpt>
      <trkpt lat="43.56373" lon="1.30998">
        <ele>176.8</ele>
        <time>2023-02-10T14:49:06Z</time>
      </trkpt>
      <trkpt lat="43.56373" lon="1.30977">
        <ele>176.8</ele>
        <time>2023-02-10T14:49:08Z</time>
      </trkpt>
      <trkpt lat="43.56375" lon="1.30953">
        <ele>177</ele>
        <time>2023-02-10T14:49:11Z</time>
      </trkpt>
      <trkpt lat="43.56375" lon="1.30936">
        <ele>177</ele>
        <time>2023-02-10T14:49:13Z</time>
      </trkpt>
      <trkpt lat="43.56374" lon="1.30927">
        <ele>176.8</ele>
        <time>2023-02-10T14:49:14Z</time>
      </trkpt>
      <trkpt lat="43.56371" lon="1.30908">
        <ele>176.8</ele>
        <time>2023-02-10T14:49:16Z</time>
      </trkpt>
      <trkpt lat="43.56367" lon="1.30882">
        <ele>176.6</ele>
        <time>2023-02-10T14:49:19Z</time>
      </trkpt>
      <trkpt lat="43.56364" lon="1.30865">
        <ele>176.6</ele>
        <time>2023-02-10T14:49:21Z</time>
      </trkpt>
      <trkpt lat="43.56361" lon="1.30838">
        <ele>176.6</ele>
        <time>2023-02-10T14:49:24Z</time>
      </trkpt>
      <trkpt lat="43.56365" lon="1.3079">
        <ele>176.4</ele>
        <time>2023-02-10T14:49:30Z</time>
      </trkpt>
      <trkpt lat="43.56367" lon="1.30779">
        <ele>176.4</ele>
        <time>2023-02-10T14:49:32Z</time>
      </trkpt>
      <trkpt lat="43.5637" lon="1.30763">
        <ele>176.4</ele>
        <time>2023-02-10T14:49:34Z</time>
      </trkpt>
      <trkpt lat="43.56376" lon="1.3074">
        <ele>176.2</ele>
        <time>2023-02-10T14:49:37Z</time>
      </trkpt>
      <trkpt lat="43.5638" lon="1.30709">
        <ele>176.4</ele>
        <time>2023-02-10T14:49:41Z</time>
      </trkpt>
      <trkpt lat="43.56385" lon="1.30694">
        <ele>176.6</ele>
        <time>2023-02-10T14:49:43Z</time>
      </trkpt>
      <trkpt lat="43.56394" lon="1.30672">
        <ele>176.8</ele>
        <time>2023-02-10T14:49:46Z</time>
      </trkpt>
      <trkpt lat="43.5641" lon="1.30626">
        <ele>177</ele>
        <time>2023-02-10T14:49:52Z</time>
      </trkpt>
      <trkpt lat="43.56418" lon="1.30582">
        <ele>177.2</ele>
        <time>2023-02-10T14:49:57Z</time>
      </trkpt>
      <trkpt lat="43.56424" lon="1.30567">
        <ele>177.2</ele>
        <time>2023-02-10T14:49:59Z</time>
      </trkpt>
      <trkpt lat="43.56432" lon="1.30554">
        <ele>177.4</ele>
        <time>2023-02-10T14:50:01Z</time>
      </trkpt>
      <trkpt lat="43.56445" lon="1.30535">
        <ele>177.4</ele>
        <time>2023-02-10T14:50:04Z</time>
      </trkpt>
      <trkpt lat="43.56459" lon="1.3052">
        <ele>177.4</ele>
        <time>2023-02-10T14:50:07Z</time>
      </trkpt>
      <trkpt lat="43.5648" lon="1.30506">
        <ele>176.8</ele>
        <time>2023-02-10T14:50:11Z</time>
      </trkpt>
      <trkpt lat="43.56492" lon="1.30502">
        <ele>176.4</ele>
        <time>2023-02-10T14:50:13Z</time>
      </trkpt>
      <trkpt lat="43.56504" lon="1.30496">
        <ele>176.2</ele>
        <time>2023-02-10T14:50:15Z</time>
      </trkpt>
      <trkpt lat="43.56519" lon="1.30482">
        <ele>176.2</ele>
        <time>2023-02-10T14:50:18Z</time>
      </trkpt>
      <trkpt lat="43.56525" lon="1.30468">
        <ele>176.4</ele>
        <time>2023-02-10T14:50:20Z</time>
      </trkpt>
      <trkpt lat="43.56527" lon="1.3046">
        <ele>176.4</ele>
        <time>2023-02-10T14:50:21Z</time>
      </trkpt>
      <trkpt lat="43.56542" lon="1.30399">
        <ele>177.4</ele>
        <time>2023-02-10T14:50:28Z</time>
      </trkpt>
      <trkpt lat="43.56555" lon="1.3034">
        <ele>177.4</ele>
        <time>2023-02-10T14:50:35Z</time>
      </trkpt>
      <trkpt lat="43.56559" lon="1.3032">
        <ele>177.4</ele>
        <time>2023-02-10T14:50:38Z</time>
      </trkpt>
      <trkpt lat="43.5656" lon="1.30305">
        <ele>177.6</ele>
        <time>2023-02-10T14:50:40Z</time>
      </trkpt>
      <trkpt lat="43.56561" lon="1.30271">
        <ele>177.6</ele>
        <time>2023-02-10T14:50:45Z</time>
      </trkpt>
      <trkpt lat="43.5656" lon="1.30264">
        <ele>177.6</ele>
        <time>2023-02-10T14:50:46Z</time>
      </trkpt>
      <trkpt lat="43.56555" lon="1.30225">
        <ele>177.8</ele>
        <time>2023-02-10T14:50:51Z</time>
      </trkpt>
      <trkpt lat="43.56553" lon="1.30217">
        <ele>177.8</ele>
        <time>2023-02-10T14:50:52Z</time>
      </trkpt>
      <trkpt lat="43.5655" lon="1.302">
        <ele>177.8</ele>
        <time>2023-02-10T14:50:54Z</time>
      </trkpt>
      <trkpt lat="43.56545" lon="1.30183">
        <ele>178</ele>
        <time>2023-02-10T14:50:56Z</time>
      </trkpt>
      <trkpt lat="43.56537" lon="1.30168">
        <ele>178</ele>
        <time>2023-02-10T14:50:58Z</time>
      </trkpt>
      <trkpt lat="43.56526" lon="1.30155">
        <ele>178.2</ele>
        <time>2023-02-10T14:51:00Z</time>
      </trkpt>
      <trkpt lat="43.56516" lon="1.30147">
        <ele>178.4</ele>
        <time>2023-02-10T14:51:02Z</time>
      </trkpt>
      <trkpt lat="43.56509" lon="1.30143">
        <ele>178.8</ele>
        <time>2023-02-10T14:51:04Z</time>
      </trkpt>
      <trkpt lat="43.56489" lon="1.30133">
        <ele>179.4</ele>
        <time>2023-02-10T14:51:08Z</time>
      </trkpt>
      <trkpt lat="43.56483" lon="1.3013">
        <ele>179.4</ele>
        <time>2023-02-10T14:51:09Z</time>
      </trkpt>
      <trkpt lat="43.56448" lon="1.30107">
        <ele>179.6</ele>
        <time>2023-02-10T14:51:15Z</time>
      </trkpt>
      <trkpt lat="43.56401" lon="1.30075">
        <ele>178.2</ele>
        <time>2023-02-10T14:51:23Z</time>
      </trkpt>
      <trkpt lat="43.56354" lon="1.30054">
        <ele>177.8</ele>
        <time>2023-02-10T14:51:31Z</time>
      </trkpt>
      <trkpt lat="43.56325" lon="1.30032">
        <ele>177.8</ele>
        <time>2023-02-10T14:51:37Z</time>
      </trkpt>
      <trkpt lat="43.56321" lon="1.30025">
        <ele>177.8</ele>
        <time>2023-02-10T14:51:40Z</time>
      </trkpt>
      <trkpt lat="43.56315" lon="1.30018">
        <ele>177.8</ele>
        <time>2023-02-10T14:51:43Z</time>
      </trkpt>
      <trkpt lat="43.56307" lon="1.30016">
        <ele>177.6</ele>
        <time>2023-02-10T14:51:45Z</time>
      </trkpt>
      <trkpt lat="43.56294" lon="1.30005">
        <ele>177.6</ele>
        <time>2023-02-10T14:51:50Z</time>
      </trkpt>
      <trkpt lat="43.56283" lon="1.29993">
        <ele>177.8</ele>
        <time>2023-02-10T14:51:53Z</time>
      </trkpt>
      <trkpt lat="43.56276" lon="1.29985">
        <ele>178</ele>
        <time>2023-02-10T14:51:55Z</time>
      </trkpt>
      <trkpt lat="43.56256" lon="1.29956">
        <ele>178.6</ele>
        <time>2023-02-10T14:52:00Z</time>
      </trkpt>
      <trkpt lat="43.56237" lon="1.29914">
        <ele>178.4</ele>
        <time>2023-02-10T14:52:06Z</time>
      </trkpt>
      <trkpt lat="43.56229" lon="1.29896">
        <ele>178.2</ele>
        <time>2023-02-10T14:52:09Z</time>
      </trkpt>
      <trkpt lat="43.56218" lon="1.29877">
        <ele>178.4</ele>
        <time>2023-02-10T14:52:12Z</time>
      </trkpt>
      <trkpt lat="43.56202" lon="1.29851">
        <ele>178.6</ele>
        <time>2023-02-10T14:52:16Z</time>
      </trkpt>
      <trkpt lat="43.56196" lon="1.29848">
        <ele>178.8</ele>
        <time>2023-02-10T14:52:17Z</time>
      </trkpt>
      <trkpt lat="43.5619" lon="1.29847">
        <ele>178.8</ele>
        <time>2023-02-10T14:52:18Z</time>
      </trkpt>
      <trkpt lat="43.56179" lon="1.29848">
        <ele>178.6</ele>
        <time>2023-02-10T14:52:20Z</time>
      </trkpt>
      <trkpt lat="43.56167" lon="1.29843">
        <ele>178.4</ele>
        <time>2023-02-10T14:52:22Z</time>
      </trkpt>
      <trkpt lat="43.56161" lon="1.29839">
        <ele>178.2</ele>
        <time>2023-02-10T14:52:23Z</time>
      </trkpt>
      <trkpt lat="43.56156" lon="1.29835">
        <ele>178.2</ele>
        <time>2023-02-10T14:52:24Z</time>
      </trkpt>
      <trkpt lat="43.56136" lon="1.29816">
        <ele>177.6</ele>
        <time>2023-02-10T14:52:28Z</time>
      </trkpt>
      <trkpt lat="43.56101" lon="1.29785">
        <ele>177.8</ele>
        <time>2023-02-10T14:52:35Z</time>
      </trkpt>
      <trkpt lat="43.56097" lon="1.29781">
        <ele>177.6</ele>
        <time>2023-02-10T14:52:36Z</time>
      </trkpt>
      <trkpt lat="43.56083" lon="1.2977">
        <ele>178.4</ele>
        <time>2023-02-10T14:52:40Z</time>
      </trkpt>
      <trkpt lat="43.56082" lon="1.29767">
        <ele>178.6</ele>
        <time>2023-02-10T14:52:41Z</time>
      </trkpt>
      <trkpt lat="43.56083" lon="1.29762">
        <ele>178.8</ele>
        <time>2023-02-10T14:52:43Z</time>
      </trkpt>
      <trkpt lat="43.56087" lon="1.29744">
        <ele>179.6</ele>
        <time>2023-02-10T14:52:48Z</time>
      </trkpt>
      <trkpt lat="43.56083" lon="1.2973">
        <ele>180</ele>
        <time>2023-02-10T14:52:52Z</time>
      </trkpt>
      <trkpt lat="43.5609" lon="1.29722">
        <ele>180.4</ele>
        <time>2023-02-10T14:52:55Z</time>
      </trkpt>
      <trkpt lat="43.56097" lon="1.29716">
        <ele>180.6</ele>
        <time>2023-02-10T14:52:57Z</time>
      </trkpt>
      <trkpt lat="43.56108" lon="1.29707">
        <ele>181</ele>
        <time>2023-02-10T14:53:00Z</time>
      </trkpt>
      <trkpt lat="43.5612" lon="1.29694">
        <ele>181.4</ele>
        <time>2023-02-10T14:53:04Z</time>
      </trkpt>
      <trkpt lat="43.56125" lon="1.29687">
        <ele>181.6</ele>
        <time>2023-02-10T14:53:06Z</time>
      </trkpt>
      <trkpt lat="43.56131" lon="1.29681">
        <ele>181.8</ele>
        <time>2023-02-10T14:53:08Z</time>
      </trkpt>
      <trkpt lat="43.56148" lon="1.2967">
        <ele>182</ele>
        <time>2023-02-10T14:53:13Z</time>
      </trkpt>
      <trkpt lat="43.5615" lon="1.29669">
        <ele>182.2</ele>
        <time>2023-02-10T14:53:14Z</time>
      </trkpt>
      <trkpt lat="43.56149" lon="1.29664">
        <ele>182.2</ele>
        <time>2023-02-10T14:53:16Z</time>
      </trkpt>
      <trkpt lat="43.56141" lon="1.29653">
        <ele>182.2</ele>
        <time>2023-02-10T14:53:19Z</time>
      </trkpt>
      <trkpt lat="43.56138" lon="1.29646">
        <ele>182.2</ele>
        <time>2023-02-10T14:53:20Z</time>
      </trkpt>
      <trkpt lat="43.56131" lon="1.29632">
        <ele>182</ele>
        <time>2023-02-10T14:53:22Z</time>
      </trkpt>
      <trkpt lat="43.5612" lon="1.29613">
        <ele>181.4</ele>
        <time>2023-02-10T14:53:25Z</time>
      </trkpt>
      <trkpt lat="43.5611" lon="1.29594">
        <ele>180.8</ele>
        <time>2023-02-10T14:53:28Z</time>
      </trkpt>
      <trkpt lat="43.56098" lon="1.29574">
        <ele>180</ele>
        <time>2023-02-10T14:53:31Z</time>
      </trkpt>
      <trkpt lat="43.56087" lon="1.29556">
        <ele>180</ele>
        <time>2023-02-10T14:53:34Z</time>
      </trkpt>
      <trkpt lat="43.56081" lon="1.29544">
        <ele>180</ele>
        <time>2023-02-10T14:53:36Z</time>
      </trkpt>
      <trkpt lat="43.56077" lon="1.29538">
        <ele>179.8</ele>
        <time>2023-02-10T14:53:37Z</time>
      </trkpt>
      <trkpt lat="43.56061" lon="1.29516">
        <ele>179.6</ele>
        <time>2023-02-10T14:53:41Z</time>
      </trkpt>
      <trkpt lat="43.56048" lon="1.295">
        <ele>179.6</ele>
        <time>2023-02-10T14:53:44Z</time>
      </trkpt>
      <trkpt lat="43.56018" lon="1.29461">
        <ele>179.6</ele>
        <time>2023-02-10T14:53:51Z</time>
      </trkpt>
      <trkpt lat="43.56013" lon="1.29457">
        <ele>179.6</ele>
        <time>2023-02-10T14:53:52Z</time>
      </trkpt>
      <trkpt lat="43.5601" lon="1.29451">
        <ele>179.6</ele>
        <time>2023-02-10T14:53:53Z</time>
      </trkpt>
      <trkpt lat="43.56004" lon="1.29439">
        <ele>179.6</ele>
        <time>2023-02-10T14:53:55Z</time>
      </trkpt>
      <trkpt lat="43.55997" lon="1.29427">
        <ele>179.6</ele>
        <time>2023-02-10T14:53:57Z</time>
      </trkpt>
      <trkpt lat="43.55987" lon="1.29424">
        <ele>179.6</ele>
        <time>2023-02-10T14:53:59Z</time>
      </trkpt>
      <trkpt lat="43.55981" lon="1.29424">
        <ele>179.6</ele>
        <time>2023-02-10T14:54:00Z</time>
      </trkpt>
      <trkpt lat="43.55974" lon="1.29423">
        <ele>179.6</ele>
        <time>2023-02-10T14:54:01Z</time>
      </trkpt>
      <trkpt lat="43.55963" lon="1.29418">
        <ele>179.6</ele>
        <time>2023-02-10T14:54:03Z</time>
      </trkpt>
      <trkpt lat="43.55959" lon="1.29413">
        <ele>179.6</ele>
        <time>2023-02-10T14:54:04Z</time>
      </trkpt>
      <trkpt lat="43.5594" lon="1.29397">
        <ele>179.6</ele>
        <time>2023-02-10T14:54:08Z</time>
      </trkpt>
      <trkpt lat="43.55929" lon="1.29394">
        <ele>179.8</ele>
        <time>2023-02-10T14:54:10Z</time>
      </trkpt>
      <trkpt lat="43.55907" lon="1.29398">
        <ele>179.8</ele>
        <time>2023-02-10T14:54:14Z</time>
      </trkpt>
      <trkpt lat="43.5589" lon="1.294">
        <ele>179.8</ele>
        <time>2023-02-10T14:54:17Z</time>
      </trkpt>
      <trkpt lat="43.55882" lon="1.29395">
        <ele>179.8</ele>
        <time>2023-02-10T14:54:19Z</time>
      </trkpt>
      <trkpt lat="43.55879" lon="1.29383">
        <ele>179.8</ele>
        <time>2023-02-10T14:54:21Z</time>
      </trkpt>
      <trkpt lat="43.55879" lon="1.29377">
        <ele>180</ele>
        <time>2023-02-10T14:54:22Z</time>
      </trkpt>
      <trkpt lat="43.55879" lon="1.29363">
        <ele>180</ele>
        <time>2023-02-10T14:54:24Z</time>
      </trkpt>
      <trkpt lat="43.55876" lon="1.29341">
        <ele>180.2</ele>
        <time>2023-02-10T14:54:27Z</time>
      </trkpt>
      <trkpt lat="43.55875" lon="1.29333">
        <ele>180.2</ele>
        <time>2023-02-10T14:54:28Z</time>
      </trkpt>
      <trkpt lat="43.55869" lon="1.29312">
        <ele>180.2</ele>
        <time>2023-02-10T14:54:31Z</time>
      </trkpt>
      <trkpt lat="43.55864" lon="1.29281">
        <ele>180.4</ele>
        <time>2023-02-10T14:54:35Z</time>
      </trkpt>
      <trkpt lat="43.55862" lon="1.29266">
        <ele>180.4</ele>
        <time>2023-02-10T14:54:37Z</time>
      </trkpt>
      <trkpt lat="43.55858" lon="1.29248">
        <ele>180.4</ele>
        <time>2023-02-10T14:54:40Z</time>
      </trkpt>
      <trkpt lat="43.55852" lon="1.29225">
        <ele>180.4</ele>
        <time>2023-02-10T14:54:45Z</time>
      </trkpt>
      <trkpt lat="43.55843" lon="1.29197">
        <ele>180.8</ele>
        <time>2023-02-10T14:54:49Z</time>
      </trkpt>
      <trkpt lat="43.55842" lon="1.29192">
        <ele>180.8</ele>
        <time>2023-02-10T14:54:50Z</time>
      </trkpt>
      <trkpt lat="43.55839" lon="1.29181">
        <ele>180.8</ele>
        <time>2023-02-10T14:54:52Z</time>
      </trkpt>
      <trkpt lat="43.5583" lon="1.29174">
        <ele>181</ele>
        <time>2023-02-10T14:54:54Z</time>
      </trkpt>
      <trkpt lat="43.55814" lon="1.29167">
        <ele>181.2</ele>
        <time>2023-02-10T14:54:57Z</time>
      </trkpt>
      <trkpt lat="43.55804" lon="1.29158">
        <ele>181.2</ele>
        <time>2023-02-10T14:54:59Z</time>
      </trkpt>
      <trkpt lat="43.55774" lon="1.2912">
        <ele>181</ele>
        <time>2023-02-10T14:55:06Z</time>
      </trkpt>
      <trkpt lat="43.55734" lon="1.29073">
        <ele>181</ele>
        <time>2023-02-10T14:55:14Z</time>
      </trkpt>
      <trkpt lat="43.55689" lon="1.29021">
        <ele>181.2</ele>
        <time>2023-02-10T14:55:23Z</time>
      </trkpt>
      <trkpt lat="43.55647" lon="1.28972">
        <ele>181.4</ele>
        <time>2023-02-10T14:55:31Z</time>
      </trkpt>
      <trkpt lat="43.55637" lon="1.2896">
        <ele>181.4</ele>
        <time>2023-02-10T14:55:33Z</time>
      </trkpt>
      <trkpt lat="43.55595" lon="1.28912">
        <ele>181.6</ele>
        <time>2023-02-10T14:55:41Z</time>
      </trkpt>
      <trkpt lat="43.55574" lon="1.28889">
        <ele>181.6</ele>
        <time>2023-02-10T14:55:45Z</time>
      </trkpt>
      <trkpt lat="43.55551" lon="1.2887">
        <ele>181.8</ele>
        <time>2023-02-10T14:55:49Z</time>
      </trkpt>
      <trkpt lat="43.55539" lon="1.28863">
        <ele>181.8</ele>
        <time>2023-02-10T14:55:51Z</time>
      </trkpt>
      <trkpt lat="43.555" lon="1.28853">
        <ele>182.6</ele>
        <time>2023-02-10T14:55:57Z</time>
      </trkpt>
      <trkpt lat="43.55481" lon="1.28849">
        <ele>182.8</ele>
        <time>2023-02-10T14:56:00Z</time>
      </trkpt>
      <trkpt lat="43.55462" lon="1.28843">
        <ele>182.8</ele>
        <time>2023-02-10T14:56:03Z</time>
      </trkpt>
      <trkpt lat="43.55456" lon="1.28838">
        <ele>182.8</ele>
        <time>2023-02-10T14:56:04Z</time>
      </trkpt>
      <trkpt lat="43.55423" lon="1.28803">
        <ele>182.8</ele>
        <time>2023-02-10T14:56:10Z</time>
      </trkpt>
      <trkpt lat="43.55379" lon="1.28752">
        <ele>182.6</ele>
        <time>2023-02-10T14:56:18Z</time>
      </trkpt>
      <trkpt lat="43.55369" lon="1.28738">
        <ele>182.8</ele>
        <time>2023-02-10T14:56:20Z</time>
      </trkpt>
      <trkpt lat="43.55332" lon="1.28678">
        <ele>183</ele>
        <time>2023-02-10T14:56:28Z</time>
      </trkpt>
      <trkpt lat="43.55328" lon="1.28671">
        <ele>182.8</ele>
        <time>2023-02-10T14:56:29Z</time>
      </trkpt>
      <trkpt lat="43.55296" lon="1.28629">
        <ele>182.6</ele>
        <time>2023-02-10T14:56:35Z</time>
      </trkpt>
      <trkpt lat="43.5525" lon="1.2859">
        <ele>182.6</ele>
        <time>2023-02-10T14:56:42Z</time>
      </trkpt>
      <trkpt lat="43.55196" lon="1.28551">
        <ele>182.8</ele>
        <time>2023-02-10T14:56:50Z</time>
      </trkpt>
      <trkpt lat="43.55142" lon="1.28514">
        <ele>183</ele>
        <time>2023-02-10T14:56:58Z</time>
      </trkpt>
      <trkpt lat="43.55107" lon="1.2849">
        <ele>183</ele>
        <time>2023-02-10T14:57:03Z</time>
      </trkpt>
      <trkpt lat="43.55084" lon="1.28481">
        <ele>183</ele>
        <time>2023-02-10T14:57:06Z</time>
      </trkpt>
      <trkpt lat="43.55077" lon="1.2848">
        <ele>183</ele>
        <time>2023-02-10T14:57:07Z</time>
      </trkpt>
      <trkpt lat="43.55016" lon="1.28474">
        <ele>183.2</ele>
        <time>2023-02-10T14:57:15Z</time>
      </trkpt>
      <trkpt lat="43.55001" lon="1.28471">
        <ele>183.4</ele>
        <time>2023-02-10T14:57:17Z</time>
      </trkpt>
      <trkpt lat="43.54942" lon="1.2846">
        <ele>183.8</ele>
        <time>2023-02-10T14:57:25Z</time>
      </trkpt>
      <trkpt lat="43.54885" lon="1.28448">
        <ele>183.8</ele>
        <time>2023-02-10T14:57:33Z</time>
      </trkpt>
      <trkpt lat="43.54864" lon="1.28445">
        <ele>183.8</ele>
        <time>2023-02-10T14:57:36Z</time>
      </trkpt>
      <trkpt lat="43.54811" lon="1.2843">
        <ele>184</ele>
        <time>2023-02-10T14:57:44Z</time>
      </trkpt>
      <trkpt lat="43.54804" lon="1.28429">
        <ele>184</ele>
        <time>2023-02-10T14:57:45Z</time>
      </trkpt>
      <trkpt lat="43.54747" lon="1.28418">
        <ele>184.2</ele>
        <time>2023-02-10T14:57:53Z</time>
      </trkpt>
      <trkpt lat="43.54706" lon="1.28409">
        <ele>183.8</ele>
        <time>2023-02-10T14:57:59Z</time>
      </trkpt>
      <trkpt lat="43.547" lon="1.28406">
        <ele>183.6</ele>
        <time>2023-02-10T14:58:00Z</time>
      </trkpt>
      <trkpt lat="43.5465" lon="1.28375">
        <ele>183.4</ele>
        <time>2023-02-10T14:58:08Z</time>
      </trkpt>
      <trkpt lat="43.54644" lon="1.2837">
        <ele>183.4</ele>
        <time>2023-02-10T14:58:09Z</time>
      </trkpt>
      <trkpt lat="43.54638" lon="1.28365">
        <ele>183.4</ele>
        <time>2023-02-10T14:58:10Z</time>
      </trkpt>
      <trkpt lat="43.54624" lon="1.28346">
        <ele>183.6</ele>
        <time>2023-02-10T14:58:13Z</time>
      </trkpt>
      <trkpt lat="43.54589" lon="1.28286">
        <ele>183.8</ele>
        <time>2023-02-10T14:58:21Z</time>
      </trkpt>
      <trkpt lat="43.54553" lon="1.28227">
        <ele>184</ele>
        <time>2023-02-10T14:58:29Z</time>
      </trkpt>
      <trkpt lat="43.54539" lon="1.28207">
        <ele>184</ele>
        <time>2023-02-10T14:58:32Z</time>
      </trkpt>
      <trkpt lat="43.545" lon="1.28152">
        <ele>184.2</ele>
        <time>2023-02-10T14:58:40Z</time>
      </trkpt>
      <trkpt lat="43.54495" lon="1.28145">
        <ele>184.2</ele>
        <time>2023-02-10T14:58:41Z</time>
      </trkpt>
      <trkpt lat="43.54456" lon="1.28089">
        <ele>184.2</ele>
        <time>2023-02-10T14:58:49Z</time>
      </trkpt>
      <trkpt lat="43.54447" lon="1.28075">
        <ele>184.4</ele>
        <time>2023-02-10T14:58:51Z</time>
      </trkpt>
      <trkpt lat="43.54413" lon="1.28014">
        <ele>184.4</ele>
        <time>2023-02-10T14:58:59Z</time>
      </trkpt>
      <trkpt lat="43.54402" lon="1.27992">
        <ele>184.4</ele>
        <time>2023-02-10T14:59:02Z</time>
      </trkpt>
      <trkpt lat="43.54372" lon="1.2793">
        <ele>184.8</ele>
        <time>2023-02-10T14:59:10Z</time>
      </trkpt>
      <trkpt lat="43.54368" lon="1.27922">
        <ele>185</ele>
        <time>2023-02-10T14:59:11Z</time>
      </trkpt>
      <trkpt lat="43.54337" lon="1.27858">
        <ele>185.2</ele>
        <time>2023-02-10T14:59:19Z</time>
      </trkpt>
      <trkpt lat="43.54333" lon="1.2785">
        <ele>185.2</ele>
        <time>2023-02-10T14:59:20Z</time>
      </trkpt>
      <trkpt lat="43.5433" lon="1.27841">
        <ele>185.2</ele>
        <time>2023-02-10T14:59:21Z</time>
      </trkpt>
      <trkpt lat="43.54302" lon="1.27774">
        <ele>185.4</ele>
        <time>2023-02-10T14:59:29Z</time>
      </trkpt>
      <trkpt lat="43.543" lon="1.27765">
        <ele>185.4</ele>
        <time>2023-02-10T14:59:30Z</time>
      </trkpt>
      <trkpt lat="43.54286" lon="1.27698">
        <ele>185.4</ele>
        <time>2023-02-10T14:59:37Z</time>
      </trkpt>
      <trkpt lat="43.54272" lon="1.27623">
        <ele>185.6</ele>
        <time>2023-02-10T14:59:45Z</time>
      </trkpt>
      <trkpt lat="43.54271" lon="1.27615">
        <ele>185.6</ele>
        <time>2023-02-10T14:59:46Z</time>
      </trkpt>
      <trkpt lat="43.54262" lon="1.27566">
        <ele>185.8</ele>
        <time>2023-02-10T14:59:52Z</time>
      </trkpt>
      <trkpt lat="43.54256" lon="1.27538">
        <ele>185.8</ele>
        <time>2023-02-10T14:59:56Z</time>
      </trkpt>
      <trkpt lat="43.54257" lon="1.27533">
        <ele>185.8</ele>
        <time>2023-02-10T14:59:57Z</time>
      </trkpt>
      <trkpt lat="43.54258" lon="1.2753">
        <ele>185.8</ele>
        <time>2023-02-10T14:59:58Z</time>
      </trkpt>
      <trkpt lat="43.54262" lon="1.27527">
        <ele>185.8</ele>
        <time>2023-02-10T15:00:00Z</time>
      </trkpt>
      <trkpt lat="43.54272" lon="1.2751">
        <ele>185.6</ele>
        <time>2023-02-10T15:00:05Z</time>
      </trkpt>
      <trkpt lat="43.54275" lon="1.27505">
        <ele>185.6</ele>
        <time>2023-02-10T15:00:06Z</time>
      </trkpt>
      <trkpt lat="43.5429" lon="1.27485">
        <ele>185.6</ele>
        <time>2023-02-10T15:00:10Z</time>
      </trkpt>
      <trkpt lat="43.54319" lon="1.27439">
        <ele>186</ele>
        <time>2023-02-10T15:00:18Z</time>
      </trkpt>
      <trkpt lat="43.54331" lon="1.2742">
        <ele>186.2</ele>
        <time>2023-02-10T15:00:21Z</time>
      </trkpt>
      <trkpt lat="43.54351" lon="1.27387">
        <ele>186.4</ele>
        <time>2023-02-10T15:00:26Z</time>
      </trkpt>
      <trkpt lat="43.54391" lon="1.27326">
        <ele>186.4</ele>
        <time>2023-02-10T15:00:35Z</time>
      </trkpt>
      <trkpt lat="43.54395" lon="1.27319">
        <ele>186.4</ele>
        <time>2023-02-10T15:00:36Z</time>
      </trkpt>
      <trkpt lat="43.54432" lon="1.27263">
        <ele>186.6</ele>
        <time>2023-02-10T15:00:44Z</time>
      </trkpt>
      <trkpt lat="43.54436" lon="1.27255">
        <ele>186.6</ele>
        <time>2023-02-10T15:00:45Z</time>
      </trkpt>
      <trkpt lat="43.54472" lon="1.27198">
        <ele>186.6</ele>
        <time>2023-02-10T15:00:53Z</time>
      </trkpt>
      <trkpt lat="43.54485" lon="1.27176">
        <ele>186.6</ele>
        <time>2023-02-10T15:00:56Z</time>
      </trkpt>
      <trkpt lat="43.54519" lon="1.27114">
        <ele>186.6</ele>
        <time>2023-02-10T15:01:04Z</time>
      </trkpt>
      <trkpt lat="43.54527" lon="1.27098">
        <ele>186.6</ele>
        <time>2023-02-10T15:01:06Z</time>
      </trkpt>
      <trkpt lat="43.54559" lon="1.27037">
        <ele>186.6</ele>
        <time>2023-02-10T15:01:14Z</time>
      </trkpt>
      <trkpt lat="43.54566" lon="1.27023">
        <ele>186.6</ele>
        <time>2023-02-10T15:01:16Z</time>
      </trkpt>
      <trkpt lat="43.54591" lon="1.26976">
        <ele>186.2</ele>
        <time>2023-02-10T15:01:23Z</time>
      </trkpt>
      <trkpt lat="43.54608" lon="1.26943">
        <ele>186</ele>
        <time>2023-02-10T15:01:28Z</time>
      </trkpt>
      <trkpt lat="43.5461" lon="1.26929">
        <ele>186</ele>
        <time>2023-02-10T15:01:30Z</time>
      </trkpt>
      <trkpt lat="43.54606" lon="1.26918">
        <ele>186</ele>
        <time>2023-02-10T15:01:32Z</time>
      </trkpt>
      <trkpt lat="43.54606" lon="1.26915">
        <ele>186</ele>
        <time>2023-02-10T15:01:33Z</time>
      </trkpt>
      <trkpt lat="43.5461" lon="1.26912">
        <ele>186</ele>
        <time>2023-02-10T15:01:36Z</time>
      </trkpt>
      <trkpt lat="43.54621" lon="1.26909">
        <ele>185.8</ele>
        <time>2023-02-10T15:01:40Z</time>
      </trkpt>
      <trkpt lat="43.54641" lon="1.26905">
        <ele>185.8</ele>
        <time>2023-02-10T15:01:45Z</time>
      </trkpt>
      <trkpt lat="43.54652" lon="1.26887">
        <ele>185.8</ele>
        <time>2023-02-10T15:01:49Z</time>
      </trkpt>
      <trkpt lat="43.54659" lon="1.26874">
        <ele>185.8</ele>
        <time>2023-02-10T15:01:53Z</time>
      </trkpt>
      <trkpt lat="43.54676" lon="1.26843">
        <ele>185.8</ele>
        <time>2023-02-10T15:01:59Z</time>
      </trkpt>
      <trkpt lat="43.54693" lon="1.2681">
        <ele>186</ele>
        <time>2023-02-10T15:02:05Z</time>
      </trkpt>
      <trkpt lat="43.54696" lon="1.26804">
        <ele>186</ele>
        <time>2023-02-10T15:02:06Z</time>
      </trkpt>
      <trkpt lat="43.54705" lon="1.26789">
        <ele>185.8</ele>
        <time>2023-02-10T15:02:09Z</time>
      </trkpt>
      <trkpt lat="43.54708" lon="1.26784">
        <ele>185.8</ele>
        <time>2023-02-10T15:02:10Z</time>
      </trkpt>
      <trkpt lat="43.54713" lon="1.26769">
        <ele>185.8</ele>
        <time>2023-02-10T15:02:13Z</time>
      </trkpt>
      <trkpt lat="43.54712" lon="1.26757">
        <ele>185.8</ele>
        <time>2023-02-10T15:02:15Z</time>
      </trkpt>
      <trkpt lat="43.54706" lon="1.26731">
        <ele>185.8</ele>
        <time>2023-02-10T15:02:19Z</time>
      </trkpt>
      <trkpt lat="43.54699" lon="1.26693">
        <ele>186</ele>
        <time>2023-02-10T15:02:24Z</time>
      </trkpt>
      <trkpt lat="43.54698" lon="1.26685">
        <ele>186.2</ele>
        <time>2023-02-10T15:02:25Z</time>
      </trkpt>
      <trkpt lat="43.54687" lon="1.26614">
        <ele>186.4</ele>
        <time>2023-02-10T15:02:33Z</time>
      </trkpt>
      <trkpt lat="43.5468" lon="1.26531">
        <ele>186.6</ele>
        <time>2023-02-10T15:02:42Z</time>
      </trkpt>
      <trkpt lat="43.54681" lon="1.26522">
        <ele>186.6</ele>
        <time>2023-02-10T15:02:43Z</time>
      </trkpt>
      <trkpt lat="43.54682" lon="1.26504">
        <ele>186.6</ele>
        <time>2023-02-10T15:02:45Z</time>
      </trkpt>
      <trkpt lat="43.5468" lon="1.26486">
        <ele>186.6</ele>
        <time>2023-02-10T15:02:47Z</time>
      </trkpt>
      <trkpt lat="43.54672" lon="1.26472">
        <ele>186.6</ele>
        <time>2023-02-10T15:02:49Z</time>
      </trkpt>
      <trkpt lat="43.54665" lon="1.26468">
        <ele>186.6</ele>
        <time>2023-02-10T15:02:50Z</time>
      </trkpt>
      <trkpt lat="43.54642" lon="1.26447">
        <ele>186.6</ele>
        <time>2023-02-10T15:02:54Z</time>
      </trkpt>
      <trkpt lat="43.54639" lon="1.26441">
        <ele>186.6</ele>
        <time>2023-02-10T15:02:55Z</time>
      </trkpt>
      <trkpt lat="43.54626" lon="1.26419">
        <ele>186.6</ele>
        <time>2023-02-10T15:02:58Z</time>
      </trkpt>
      <trkpt lat="43.54615" lon="1.26407">
        <ele>186.6</ele>
        <time>2023-02-10T15:03:00Z</time>
      </trkpt>
      <trkpt lat="43.5459" lon="1.26376">
        <ele>186.8</ele>
        <time>2023-02-10T15:03:05Z</time>
      </trkpt>
      <trkpt lat="43.54586" lon="1.26367">
        <ele>186.8</ele>
        <time>2023-02-10T15:03:06Z</time>
      </trkpt>
      <trkpt lat="43.54585" lon="1.26358">
        <ele>186.8</ele>
        <time>2023-02-10T15:03:07Z</time>
      </trkpt>
      <trkpt lat="43.54587" lon="1.2635">
        <ele>186.8</ele>
        <time>2023-02-10T15:03:08Z</time>
      </trkpt>
      <trkpt lat="43.546" lon="1.26299">
        <ele>186.8</ele>
        <time>2023-02-10T15:03:14Z</time>
      </trkpt>
      <trkpt lat="43.54614" lon="1.2622">
        <ele>187.4</ele>
        <time>2023-02-10T15:03:23Z</time>
      </trkpt>
      <trkpt lat="43.5462" lon="1.26157">
        <ele>187.4</ele>
        <time>2023-02-10T15:03:30Z</time>
      </trkpt>
      <trkpt lat="43.5462" lon="1.26074">
        <ele>187.4</ele>
        <time>2023-02-10T15:03:39Z</time>
      </trkpt>
      <trkpt lat="43.54619" lon="1.26017">
        <ele>187.4</ele>
        <time>2023-02-10T15:03:45Z</time>
      </trkpt>
      <trkpt lat="43.5462" lon="1.26008">
        <ele>187.4</ele>
        <time>2023-02-10T15:03:46Z</time>
      </trkpt>
      <trkpt lat="43.54621" lon="1.25998">
        <ele>187.4</ele>
        <time>2023-02-10T15:03:47Z</time>
      </trkpt>
      <trkpt lat="43.54621" lon="1.25979">
        <ele>187.4</ele>
        <time>2023-02-10T15:03:49Z</time>
      </trkpt>
      <trkpt lat="43.54619" lon="1.2597">
        <ele>187.4</ele>
        <time>2023-02-10T15:03:50Z</time>
      </trkpt>
      <trkpt lat="43.54609" lon="1.25906">
        <ele>187.4</ele>
        <time>2023-02-10T15:03:57Z</time>
      </trkpt>
      <trkpt lat="43.54609" lon="1.25851">
        <ele>187.6</ele>
        <time>2023-02-10T15:04:03Z</time>
      </trkpt>
      <trkpt lat="43.5461" lon="1.25843">
        <ele>187.6</ele>
        <time>2023-02-10T15:04:04Z</time>
      </trkpt>
      <trkpt lat="43.5462" lon="1.25772">
        <ele>187.6</ele>
        <time>2023-02-10T15:04:12Z</time>
      </trkpt>
      <trkpt lat="43.54623" lon="1.25758">
        <ele>188</ele>
        <time>2023-02-10T15:04:14Z</time>
      </trkpt>
      <trkpt lat="43.54629" lon="1.25743">
        <ele>188</ele>
        <time>2023-02-10T15:04:16Z</time>
      </trkpt>
      <trkpt lat="43.54633" lon="1.25736">
        <ele>187.6</ele>
        <time>2023-02-10T15:04:17Z</time>
      </trkpt>
      <trkpt lat="43.54671" lon="1.25671">
        <ele>187.6</ele>
        <time>2023-02-10T15:04:26Z</time>
      </trkpt>
      <trkpt lat="43.54684" lon="1.25649">
        <ele>187.6</ele>
        <time>2023-02-10T15:04:29Z</time>
      </trkpt>
      <trkpt lat="43.5472" lon="1.25593">
        <ele>187.6</ele>
        <time>2023-02-10T15:04:37Z</time>
      </trkpt>
      <trkpt lat="43.54762" lon="1.25533">
        <ele>187.8</ele>
        <time>2023-02-10T15:04:46Z</time>
      </trkpt>
      <trkpt lat="43.54772" lon="1.25521">
        <ele>187.8</ele>
        <time>2023-02-10T15:04:48Z</time>
      </trkpt>
      <trkpt lat="43.54806" lon="1.25471">
        <ele>188.2</ele>
        <time>2023-02-10T15:04:56Z</time>
      </trkpt>
      <trkpt lat="43.54809" lon="1.25466">
        <ele>188</ele>
        <time>2023-02-10T15:04:57Z</time>
      </trkpt>
      <trkpt lat="43.54815" lon="1.25457">
        <ele>188</ele>
        <time>2023-02-10T15:05:00Z</time>
      </trkpt>
      <trkpt lat="43.54815" lon="1.25456">
        <ele>188.2</ele>
        <time>2023-02-10T15:05:02Z</time>
      </trkpt>
      <trkpt lat="43.54818" lon="1.25449">
        <ele>188.4</ele>
        <time>2023-02-10T15:05:14Z</time>
      </trkpt>
      <trkpt lat="43.54812" lon="1.25432">
        <ele>188.4</ele>
        <time>2023-02-10T15:05:18Z</time>
      </trkpt>
      <trkpt lat="43.54796" lon="1.2539">
        <ele>188.4</ele>
        <time>2023-02-10T15:05:25Z</time>
      </trkpt>
      <trkpt lat="43.54779" lon="1.25349">
        <ele>188.8</ele>
        <time>2023-02-10T15:05:31Z</time>
      </trkpt>
      <trkpt lat="43.54772" lon="1.25334">
        <ele>188.8</ele>
        <time>2023-02-10T15:05:33Z</time>
      </trkpt>
      <trkpt lat="43.54749" lon="1.25279">
        <ele>189</ele>
        <time>2023-02-10T15:05:40Z</time>
      </trkpt>
      <trkpt lat="43.54721" lon="1.25214">
        <ele>189.2</ele>
        <time>2023-02-10T15:05:48Z</time>
      </trkpt>
      <trkpt lat="43.54692" lon="1.25147">
        <ele>189.2</ele>
        <time>2023-02-10T15:05:56Z</time>
      </trkpt>
      <trkpt lat="43.54689" lon="1.25139">
        <ele>189.2</ele>
        <time>2023-02-10T15:05:57Z</time>
      </trkpt>
      <trkpt lat="43.54686" lon="1.2513">
        <ele>189.2</ele>
        <time>2023-02-10T15:05:58Z</time>
      </trkpt>
      <trkpt lat="43.54682" lon="1.25112">
        <ele>189.2</ele>
        <time>2023-02-10T15:06:00Z</time>
      </trkpt>
      <trkpt lat="43.54684" lon="1.25094">
        <ele>189.4</ele>
        <time>2023-02-10T15:06:02Z</time>
      </trkpt>
      <trkpt lat="43.54694" lon="1.25086">
        <ele>189.4</ele>
        <time>2023-02-10T15:06:04Z</time>
      </trkpt>
      <trkpt lat="43.54705" lon="1.25092">
        <ele>189.2</ele>
        <time>2023-02-10T15:06:06Z</time>
      </trkpt>
      <trkpt lat="43.54739" lon="1.25113">
        <ele>189.2</ele>
        <time>2023-02-10T15:06:12Z</time>
      </trkpt>
      <trkpt lat="43.54744" lon="1.25114">
        <ele>189.2</ele>
        <time>2023-02-10T15:06:13Z</time>
      </trkpt>
      <trkpt lat="43.54755" lon="1.2511">
        <ele>189.2</ele>
        <time>2023-02-10T15:06:15Z</time>
      </trkpt>
      <trkpt lat="43.54766" lon="1.25093">
        <ele>189.2</ele>
        <time>2023-02-10T15:06:18Z</time>
      </trkpt>
      <trkpt lat="43.54793" lon="1.25034">
        <ele>189.6</ele>
        <time>2023-02-10T15:06:27Z</time>
      </trkpt>
      <trkpt lat="43.54808" lon="1.25001">
        <ele>190</ele>
        <time>2023-02-10T15:06:32Z</time>
      </trkpt>
      <trkpt lat="43.54827" lon="1.2496">
        <ele>190.2</ele>
        <time>2023-02-10T15:06:38Z</time>
      </trkpt>
      <trkpt lat="43.54854" lon="1.249">
        <ele>191</ele>
        <time>2023-02-10T15:06:47Z</time>
      </trkpt>
      <trkpt lat="43.54859" lon="1.2489">
        <ele>191.2</ele>
        <time>2023-02-10T15:06:49Z</time>
      </trkpt>
      <trkpt lat="43.54872" lon="1.24866">
        <ele>191.6</ele>
        <time>2023-02-10T15:06:53Z</time>
      </trkpt>
      <trkpt lat="43.54879" lon="1.24848">
        <ele>192</ele>
        <time>2023-02-10T15:06:56Z</time>
      </trkpt>
      <trkpt lat="43.54881" lon="1.24842">
        <ele>192.2</ele>
        <time>2023-02-10T15:06:57Z</time>
      </trkpt>
      <trkpt lat="43.54893" lon="1.24815">
        <ele>193.4</ele>
        <time>2023-02-10T15:07:02Z</time>
      </trkpt>
      <trkpt lat="43.54895" lon="1.24811">
        <ele>193.6</ele>
        <time>2023-02-10T15:07:03Z</time>
      </trkpt>
      <trkpt lat="43.54898" lon="1.24807">
        <ele>193.8</ele>
        <time>2023-02-10T15:07:04Z</time>
      </trkpt>
      <trkpt lat="43.54909" lon="1.24802">
        <ele>194.4</ele>
        <time>2023-02-10T15:07:07Z</time>
      </trkpt>
      <trkpt lat="43.54921" lon="1.24803">
        <ele>195.6</ele>
        <time>2023-02-10T15:07:11Z</time>
      </trkpt>
      <trkpt lat="43.54927" lon="1.24804">
        <ele>196.4</ele>
        <time>2023-02-10T15:07:13Z</time>
      </trkpt>
      <trkpt lat="43.54934" lon="1.24805">
        <ele>197</ele>
        <time>2023-02-10T15:07:15Z</time>
      </trkpt>
      <trkpt lat="43.54952" lon="1.24808">
        <ele>198.2</ele>
        <time>2023-02-10T15:07:20Z</time>
      </trkpt>
      <trkpt lat="43.54954" lon="1.24808">
        <ele>198.2</ele>
        <time>2023-02-10T15:07:21Z</time>
      </trkpt>
      <trkpt lat="43.54968" lon="1.24809">
        <ele>199.2</ele>
        <time>2023-02-10T15:07:25Z</time>
      </trkpt>
      <trkpt lat="43.54982" lon="1.24808">
        <ele>200.2</ele>
        <time>2023-02-10T15:07:29Z</time>
      </trkpt>
      <trkpt lat="43.54986" lon="1.24807">
        <ele>200.4</ele>
        <time>2023-02-10T15:07:30Z</time>
      </trkpt>
      <trkpt lat="43.55018" lon="1.24798">
        <ele>201.2</ele>
        <time>2023-02-10T15:07:38Z</time>
      </trkpt>
      <trkpt lat="43.55026" lon="1.24795">
        <ele>201.4</ele>
        <time>2023-02-10T15:07:40Z</time>
      </trkpt>
      <trkpt lat="43.55052" lon="1.24783">
        <ele>202.2</ele>
        <time>2023-02-10T15:07:47Z</time>
      </trkpt>
      <trkpt lat="43.55062" lon="1.24776">
        <ele>202.6</ele>
        <time>2023-02-10T15:07:50Z</time>
      </trkpt>
      <trkpt lat="43.55067" lon="1.24769">
        <ele>203.2</ele>
        <time>2023-02-10T15:07:52Z</time>
      </trkpt>
      <trkpt lat="43.55078" lon="1.24749">
        <ele>203.8</ele>
        <time>2023-02-10T15:07:57Z</time>
      </trkpt>
      <trkpt lat="43.55082" lon="1.24742">
        <ele>204.2</ele>
        <time>2023-02-10T15:07:59Z</time>
      </trkpt>
      <trkpt lat="43.55088" lon="1.2473">
        <ele>205</ele>
        <time>2023-02-10T15:08:02Z</time>
      </trkpt>
      <trkpt lat="43.55102" lon="1.24705">
        <ele>206</ele>
        <time>2023-02-10T15:08:08Z</time>
      </trkpt>
      <trkpt lat="43.5512" lon="1.24677">
        <ele>207</ele>
        <time>2023-02-10T15:08:15Z</time>
      </trkpt>
      <trkpt lat="43.55134" lon="1.24651">
        <ele>208.2</ele>
        <time>2023-02-10T15:08:22Z</time>
      </trkpt>
      <trkpt lat="43.55143" lon="1.24628">
        <ele>208.8</ele>
        <time>2023-02-10T15:08:27Z</time>
      </trkpt>
      <trkpt lat="43.55144" lon="1.24616">
        <ele>209.4</ele>
        <time>2023-02-10T15:08:29Z</time>
      </trkpt>
      <trkpt lat="43.5515" lon="1.24591">
        <ele>210.4</ele>
        <time>2023-02-10T15:08:34Z</time>
      </trkpt>
      <trkpt lat="43.5515" lon="1.24553">
        <ele>211.4</ele>
        <time>2023-02-10T15:08:41Z</time>
      </trkpt>
      <trkpt lat="43.55138" lon="1.24527">
        <ele>212.2</ele>
        <time>2023-02-10T15:08:47Z</time>
      </trkpt>
      <trkpt lat="43.55135" lon="1.24518">
        <ele>212.6</ele>
        <time>2023-02-10T15:08:49Z</time>
      </trkpt>
      <trkpt lat="43.55133" lon="1.24503">
        <ele>213</ele>
        <time>2023-02-10T15:08:52Z</time>
      </trkpt>
      <trkpt lat="43.55138" lon="1.24489">
        <ele>213.4</ele>
        <time>2023-02-10T15:08:55Z</time>
      </trkpt>
      <trkpt lat="43.55142" lon="1.24486">
        <ele>213.6</ele>
        <time>2023-02-10T15:08:57Z</time>
      </trkpt>
      <trkpt lat="43.55144" lon="1.24485">
        <ele>213.8</ele>
        <time>2023-02-10T15:08:58Z</time>
      </trkpt>
      <trkpt lat="43.55159" lon="1.24475">
        <ele>214</ele>
        <time>2023-02-10T15:09:03Z</time>
      </trkpt>
      <trkpt lat="43.55162" lon="1.24471">
        <ele>214.2</ele>
        <time>2023-02-10T15:09:04Z</time>
      </trkpt>
      <trkpt lat="43.55165" lon="1.24459">
        <ele>214.2</ele>
        <time>2023-02-10T15:09:06Z</time>
      </trkpt>
      <trkpt lat="43.55166" lon="1.24452">
        <ele>214.2</ele>
        <time>2023-02-10T15:09:07Z</time>
      </trkpt>
      <trkpt lat="43.55166" lon="1.24439">
        <ele>214.4</ele>
        <time>2023-02-10T15:09:09Z</time>
      </trkpt>
      <trkpt lat="43.5517" lon="1.24425">
        <ele>214.6</ele>
        <time>2023-02-10T15:09:11Z</time>
      </trkpt>
      <trkpt lat="43.55173" lon="1.24418">
        <ele>214.6</ele>
        <time>2023-02-10T15:09:12Z</time>
      </trkpt>
      <trkpt lat="43.55184" lon="1.24391">
        <ele>214.8</ele>
        <time>2023-02-10T15:09:16Z</time>
      </trkpt>
      <trkpt lat="43.55191" lon="1.2437">
        <ele>214.8</ele>
        <time>2023-02-10T15:09:19Z</time>
      </trkpt>
      <trkpt lat="43.55208" lon="1.24295">
        <ele>215.2</ele>
        <time>2023-02-10T15:09:28Z</time>
      </trkpt>
      <trkpt lat="43.55223" lon="1.24233">
        <ele>215.4</ele>
        <time>2023-02-10T15:09:35Z</time>
      </trkpt>
      <trkpt lat="43.55243" lon="1.24159">
        <ele>215.4</ele>
        <time>2023-02-10T15:09:43Z</time>
      </trkpt>
      <trkpt lat="43.55247" lon="1.24141">
        <ele>215.4</ele>
        <time>2023-02-10T15:09:45Z</time>
      </trkpt>
      <trkpt lat="43.55262" lon="1.24068">
        <ele>216</ele>
        <time>2023-02-10T15:09:53Z</time>
      </trkpt>
      <trkpt lat="43.55263" lon="1.24059">
        <ele>216</ele>
        <time>2023-02-10T15:09:54Z</time>
      </trkpt>
      <trkpt lat="43.55269" lon="1.2398">
        <ele>216.2</ele>
        <time>2023-02-10T15:10:02Z</time>
      </trkpt>
      <trkpt lat="43.5527" lon="1.2396">
        <ele>216.2</ele>
        <time>2023-02-10T15:10:04Z</time>
      </trkpt>
      <trkpt lat="43.55276" lon="1.23886">
        <ele>215.6</ele>
        <time>2023-02-10T15:10:11Z</time>
      </trkpt>
      <trkpt lat="43.55279" lon="1.23856">
        <ele>215.2</ele>
        <time>2023-02-10T15:10:14Z</time>
      </trkpt>
      <trkpt lat="43.5528" lon="1.23845">
        <ele>214.8</ele>
        <time>2023-02-10T15:10:15Z</time>
      </trkpt>
      <trkpt lat="43.55284" lon="1.238">
        <ele>213.8</ele>
        <time>2023-02-10T15:10:19Z</time>
      </trkpt>
      <trkpt lat="43.55287" lon="1.23768">
        <ele>212.6</ele>
        <time>2023-02-10T15:10:22Z</time>
      </trkpt>
      <trkpt lat="43.55289" lon="1.23746">
        <ele>212</ele>
        <time>2023-02-10T15:10:24Z</time>
      </trkpt>
      <trkpt lat="43.55291" lon="1.23723">
        <ele>211.6</ele>
        <time>2023-02-10T15:10:26Z</time>
      </trkpt>
      <trkpt lat="43.55295" lon="1.23666">
        <ele>211.2</ele>
        <time>2023-02-10T15:10:32Z</time>
      </trkpt>
      <trkpt lat="43.55294" lon="1.23616">
        <ele>211.4</ele>
        <time>2023-02-10T15:10:38Z</time>
      </trkpt>
      <trkpt lat="43.55295" lon="1.23609">
        <ele>211.4</ele>
        <time>2023-02-10T15:10:39Z</time>
      </trkpt>
      <trkpt lat="43.55298" lon="1.23605">
        <ele>211.4</ele>
        <time>2023-02-10T15:10:40Z</time>
      </trkpt>
      <trkpt lat="43.55301" lon="1.23605">
        <ele>211.6</ele>
        <time>2023-02-10T15:10:41Z</time>
      </trkpt>
      <trkpt lat="43.55309" lon="1.23607">
        <ele>211.8</ele>
        <time>2023-02-10T15:10:43Z</time>
      </trkpt>
      <trkpt lat="43.55316" lon="1.23612">
        <ele>211.8</ele>
        <time>2023-02-10T15:10:45Z</time>
      </trkpt>
      <trkpt lat="43.55327" lon="1.23625">
        <ele>212.4</ele>
        <time>2023-02-10T15:10:48Z</time>
      </trkpt>
      <trkpt lat="43.55336" lon="1.2364">
        <ele>212.8</ele>
        <time>2023-02-10T15:10:51Z</time>
      </trkpt>
      <trkpt lat="43.55347" lon="1.23657">
        <ele>213.4</ele>
        <time>2023-02-10T15:10:54Z</time>
      </trkpt>
      <trkpt lat="43.55354" lon="1.23669">
        <ele>214</ele>
        <time>2023-02-10T15:10:56Z</time>
      </trkpt>
      <trkpt lat="43.55363" lon="1.23682">
        <ele>214</ele>
        <time>2023-02-10T15:10:58Z</time>
      </trkpt>
      <trkpt lat="43.55376" lon="1.23698">
        <ele>214.2</ele>
        <time>2023-02-10T15:11:01Z</time>
      </trkpt>
      <trkpt lat="43.55409" lon="1.23744">
        <ele>214.8</ele>
        <time>2023-02-10T15:11:09Z</time>
      </trkpt>
      <trkpt lat="43.55418" lon="1.23759">
        <ele>215</ele>
        <time>2023-02-10T15:11:11Z</time>
      </trkpt>
      <trkpt lat="43.5543" lon="1.23789">
        <ele>215.2</ele>
        <time>2023-02-10T15:11:15Z</time>
      </trkpt>
      <trkpt lat="43.5545" lon="1.23843">
        <ele>215.4</ele>
        <time>2023-02-10T15:11:22Z</time>
      </trkpt>
      <trkpt lat="43.55466" lon="1.239">
        <ele>215.2</ele>
        <time>2023-02-10T15:11:29Z</time>
      </trkpt>
      <trkpt lat="43.55486" lon="1.23968">
        <ele>215.4</ele>
        <time>2023-02-10T15:11:37Z</time>
      </trkpt>
      <trkpt lat="43.55508" lon="1.24046">
        <ele>215.8</ele>
        <time>2023-02-10T15:11:46Z</time>
      </trkpt>
      <trkpt lat="43.55528" lon="1.24114">
        <ele>215.4</ele>
        <time>2023-02-10T15:11:54Z</time>
      </trkpt>
      <trkpt lat="43.55531" lon="1.24123">
        <ele>215.4</ele>
        <time>2023-02-10T15:11:55Z</time>
      </trkpt>
      <trkpt lat="43.55538" lon="1.24138">
        <ele>215.4</ele>
        <time>2023-02-10T15:11:57Z</time>
      </trkpt>
      <trkpt lat="43.55543" lon="1.24145">
        <ele>215.2</ele>
        <time>2023-02-10T15:11:58Z</time>
      </trkpt>
      <trkpt lat="43.55548" lon="1.2415">
        <ele>215.2</ele>
        <time>2023-02-10T15:11:59Z</time>
      </trkpt>
      <trkpt lat="43.55563" lon="1.24156">
        <ele>215.2</ele>
        <time>2023-02-10T15:12:01Z</time>
      </trkpt>
      <trkpt lat="43.55602" lon="1.24161">
        <ele>214.6</ele>
        <time>2023-02-10T15:12:07Z</time>
      </trkpt>
      <trkpt lat="43.5565" lon="1.2417">
        <ele>214</ele>
        <time>2023-02-10T15:12:14Z</time>
      </trkpt>
      <trkpt lat="43.55694" lon="1.24186">
        <ele>213.6</ele>
        <time>2023-02-10T15:12:20Z</time>
      </trkpt>
      <trkpt lat="43.55752" lon="1.24203">
        <ele>213</ele>
        <time>2023-02-10T15:12:28Z</time>
      </trkpt>
      <trkpt lat="43.55762" lon="1.24207">
        <ele>212.8</ele>
        <time>2023-02-10T15:12:29Z</time>
      </trkpt>
      <trkpt lat="43.5579" lon="1.24213">
        <ele>211.6</ele>
        <time>2023-02-10T15:12:33Z</time>
      </trkpt>
      <trkpt lat="43.55811" lon="1.24217">
        <ele>211.2</ele>
        <time>2023-02-10T15:12:36Z</time>
      </trkpt>
      <trkpt lat="43.55842" lon="1.24224">
        <ele>210.6</ele>
        <time>2023-02-10T15:12:40Z</time>
      </trkpt>
      <trkpt lat="43.55863" lon="1.2423">
        <ele>210.4</ele>
        <time>2023-02-10T15:12:43Z</time>
      </trkpt>
      <trkpt lat="43.55916" lon="1.24245">
        <ele>210</ele>
        <time>2023-02-10T15:12:50Z</time>
      </trkpt>
      <trkpt lat="43.55922" lon="1.24249">
        <ele>209.8</ele>
        <time>2023-02-10T15:12:51Z</time>
      </trkpt>
      <trkpt lat="43.55932" lon="1.24259">
        <ele>209.6</ele>
        <time>2023-02-10T15:12:53Z</time>
      </trkpt>
      <trkpt lat="43.55948" lon="1.24277">
        <ele>209.2</ele>
        <time>2023-02-10T15:12:56Z</time>
      </trkpt>
      <trkpt lat="43.55975" lon="1.24302">
        <ele>209.2</ele>
        <time>2023-02-10T15:13:01Z</time>
      </trkpt>
      <trkpt lat="43.55993" lon="1.24313">
        <ele>209.2</ele>
        <time>2023-02-10T15:13:04Z</time>
      </trkpt>
      <trkpt lat="43.56009" lon="1.24326">
        <ele>209.4</ele>
        <time>2023-02-10T15:13:07Z</time>
      </trkpt>
      <trkpt lat="43.56044" lon="1.24364">
        <ele>209.8</ele>
        <time>2023-02-10T15:13:14Z</time>
      </trkpt>
      <trkpt lat="43.56069" lon="1.24386">
        <ele>209.8</ele>
        <time>2023-02-10T15:13:19Z</time>
      </trkpt>
      <trkpt lat="43.56075" lon="1.24389">
        <ele>209.2</ele>
        <time>2023-02-10T15:13:22Z</time>
      </trkpt>
      <trkpt lat="43.56089" lon="1.24398">
        <ele>209</ele>
        <time>2023-02-10T15:13:28Z</time>
      </trkpt>
      <trkpt lat="43.56106" lon="1.24412">
        <ele>209</ele>
        <time>2023-02-10T15:13:33Z</time>
      </trkpt>
      <trkpt lat="43.56136" lon="1.24435">
        <ele>209.4</ele>
        <time>2023-02-10T15:13:40Z</time>
      </trkpt>
      <trkpt lat="43.56145" lon="1.24437">
        <ele>209.4</ele>
        <time>2023-02-10T15:13:42Z</time>
      </trkpt>
      <trkpt lat="43.56154" lon="1.24435">
        <ele>209.6</ele>
        <time>2023-02-10T15:13:44Z</time>
      </trkpt>
      <trkpt lat="43.56163" lon="1.2443">
        <ele>209.6</ele>
        <time>2023-02-10T15:13:46Z</time>
      </trkpt>
      <trkpt lat="43.5618" lon="1.24422">
        <ele>210.6</ele>
        <time>2023-02-10T15:13:50Z</time>
      </trkpt>
      <trkpt lat="43.56183" lon="1.2442">
        <ele>210.8</ele>
        <time>2023-02-10T15:13:51Z</time>
      </trkpt>
      <trkpt lat="43.56218" lon="1.24401">
        <ele>211.6</ele>
        <time>2023-02-10T15:13:58Z</time>
      </trkpt>
      <trkpt lat="43.56253" lon="1.2438">
        <ele>211.8</ele>
        <time>2023-02-10T15:14:04Z</time>
      </trkpt>
      <trkpt lat="43.56268" lon="1.24375">
        <ele>211.6</ele>
        <time>2023-02-10T15:14:06Z</time>
      </trkpt>
      <trkpt lat="43.56282" lon="1.24375">
        <ele>211.4</ele>
        <time>2023-02-10T15:14:08Z</time>
      </trkpt>
      <trkpt lat="43.56294" lon="1.24378">
        <ele>210.4</ele>
        <time>2023-02-10T15:14:10Z</time>
      </trkpt>
      <trkpt lat="43.56298" lon="1.24382">
        <ele>209.4</ele>
        <time>2023-02-10T15:14:11Z</time>
      </trkpt>
      <trkpt lat="43.56301" lon="1.24388">
        <ele>208.6</ele>
        <time>2023-02-10T15:14:12Z</time>
      </trkpt>
      <trkpt lat="43.56305" lon="1.24396">
        <ele>208</ele>
        <time>2023-02-10T15:14:13Z</time>
      </trkpt>
      <trkpt lat="43.5631" lon="1.24411">
        <ele>207.4</ele>
        <time>2023-02-10T15:14:15Z</time>
      </trkpt>
      <trkpt lat="43.56313" lon="1.24421">
        <ele>206.8</ele>
        <time>2023-02-10T15:14:16Z</time>
      </trkpt>
      <trkpt lat="43.56316" lon="1.24428">
        <ele>206.6</ele>
        <time>2023-02-10T15:14:17Z</time>
      </trkpt>
      <trkpt lat="43.56324" lon="1.24443">
        <ele>206</ele>
        <time>2023-02-10T15:14:19Z</time>
      </trkpt>
      <trkpt lat="43.56328" lon="1.24452">
        <ele>205.6</ele>
        <time>2023-02-10T15:14:20Z</time>
      </trkpt>
      <trkpt lat="43.56332" lon="1.24461">
        <ele>205.4</ele>
        <time>2023-02-10T15:14:21Z</time>
      </trkpt>
      <trkpt lat="43.56336" lon="1.24481">
        <ele>204.8</ele>
        <time>2023-02-10T15:14:23Z</time>
      </trkpt>
      <trkpt lat="43.56338" lon="1.24491">
        <ele>204.4</ele>
        <time>2023-02-10T15:14:24Z</time>
      </trkpt>
      <trkpt lat="43.56343" lon="1.24519">
        <ele>203.4</ele>
        <time>2023-02-10T15:14:27Z</time>
      </trkpt>
      <trkpt lat="43.56344" lon="1.24528">
        <ele>203.2</ele>
        <time>2023-02-10T15:14:28Z</time>
      </trkpt>
      <trkpt lat="43.56347" lon="1.24548">
        <ele>202.8</ele>
        <time>2023-02-10T15:14:30Z</time>
      </trkpt>
      <trkpt lat="43.56348" lon="1.2456">
        <ele>202.6</ele>
        <time>2023-02-10T15:14:31Z</time>
      </trkpt>
      <trkpt lat="43.56344" lon="1.24576">
        <ele>202.2</ele>
        <time>2023-02-10T15:14:33Z</time>
      </trkpt>
      <trkpt lat="43.56339" lon="1.24592">
        <ele>201.8</ele>
        <time>2023-02-10T15:14:35Z</time>
      </trkpt>
      <trkpt lat="43.56334" lon="1.24607">
        <ele>201.4</ele>
        <time>2023-02-10T15:14:37Z</time>
      </trkpt>
      <trkpt lat="43.5633" lon="1.24623">
        <ele>201.2</ele>
        <time>2023-02-10T15:14:39Z</time>
      </trkpt>
      <trkpt lat="43.56328" lon="1.24631">
        <ele>201</ele>
        <time>2023-02-10T15:14:40Z</time>
      </trkpt>
      <trkpt lat="43.56327" lon="1.24637">
        <ele>201</ele>
        <time>2023-02-10T15:14:41Z</time>
      </trkpt>
      <trkpt lat="43.56327" lon="1.24644">
        <ele>201</ele>
        <time>2023-02-10T15:14:42Z</time>
      </trkpt>
      <trkpt lat="43.56328" lon="1.24661">
        <ele>201</ele>
        <time>2023-02-10T15:14:44Z</time>
      </trkpt>
      <trkpt lat="43.56333" lon="1.24677">
        <ele>201</ele>
        <time>2023-02-10T15:14:46Z</time>
      </trkpt>
      <trkpt lat="43.56352" lon="1.24727">
        <ele>201.6</ele>
        <time>2023-02-10T15:14:52Z</time>
      </trkpt>
      <trkpt lat="43.56359" lon="1.24748">
        <ele>201.8</ele>
        <time>2023-02-10T15:14:55Z</time>
      </trkpt>
      <trkpt lat="43.56365" lon="1.2476">
        <ele>201.8</ele>
        <time>2023-02-10T15:14:57Z</time>
      </trkpt>
      <trkpt lat="43.56369" lon="1.24765">
        <ele>201.6</ele>
        <time>2023-02-10T15:14:58Z</time>
      </trkpt>
      <trkpt lat="43.5639" lon="1.24796">
        <ele>200.6</ele>
        <time>2023-02-10T15:15:03Z</time>
      </trkpt>
      <trkpt lat="43.56403" lon="1.24815">
        <ele>199.8</ele>
        <time>2023-02-10T15:15:06Z</time>
      </trkpt>
      <trkpt lat="43.56411" lon="1.24828">
        <ele>199</ele>
        <time>2023-02-10T15:15:08Z</time>
      </trkpt>
      <trkpt lat="43.56415" lon="1.24833">
        <ele>198.6</ele>
        <time>2023-02-10T15:15:09Z</time>
      </trkpt>
      <trkpt lat="43.56421" lon="1.24839">
        <ele>198.4</ele>
        <time>2023-02-10T15:15:10Z</time>
      </trkpt>
      <trkpt lat="43.56432" lon="1.24843">
        <ele>197.6</ele>
        <time>2023-02-10T15:15:12Z</time>
      </trkpt>
      <trkpt lat="43.56438" lon="1.24844">
        <ele>197.6</ele>
        <time>2023-02-10T15:15:13Z</time>
      </trkpt>
      <trkpt lat="43.56449" lon="1.24844">
        <ele>197.2</ele>
        <time>2023-02-10T15:15:15Z</time>
      </trkpt>
      <trkpt lat="43.5646" lon="1.24845">
        <ele>196.8</ele>
        <time>2023-02-10T15:15:17Z</time>
      </trkpt>
      <trkpt lat="43.56466" lon="1.24845">
        <ele>196.4</ele>
        <time>2023-02-10T15:15:18Z</time>
      </trkpt>
      <trkpt lat="43.56497" lon="1.24836">
        <ele>195.6</ele>
        <time>2023-02-10T15:15:23Z</time>
      </trkpt>
      <trkpt lat="43.56504" lon="1.24833">
        <ele>195.6</ele>
        <time>2023-02-10T15:15:24Z</time>
      </trkpt>
      <trkpt lat="43.56511" lon="1.24832">
        <ele>195.4</ele>
        <time>2023-02-10T15:15:25Z</time>
      </trkpt>
      <trkpt lat="43.56532" lon="1.24829">
        <ele>194.6</ele>
        <time>2023-02-10T15:15:29Z</time>
      </trkpt>
      <trkpt lat="43.56542" lon="1.24841">
        <ele>194.4</ele>
        <time>2023-02-10T15:15:32Z</time>
      </trkpt>
      <trkpt lat="43.56545" lon="1.24847">
        <ele>194.4</ele>
        <time>2023-02-10T15:15:33Z</time>
      </trkpt>
      <trkpt lat="43.56556" lon="1.24861">
        <ele>194.4</ele>
        <time>2023-02-10T15:15:36Z</time>
      </trkpt>
      <trkpt lat="43.56562" lon="1.24866">
        <ele>194.6</ele>
        <time>2023-02-10T15:15:37Z</time>
      </trkpt>
      <trkpt lat="43.5659" lon="1.24891">
        <ele>195</ele>
        <time>2023-02-10T15:15:43Z</time>
      </trkpt>
      <trkpt lat="43.56594" lon="1.24896">
        <ele>195.2</ele>
        <time>2023-02-10T15:15:44Z</time>
      </trkpt>
      <trkpt lat="43.56597" lon="1.24901">
        <ele>195.2</ele>
        <time>2023-02-10T15:15:45Z</time>
      </trkpt>
      <trkpt lat="43.5661" lon="1.24929">
        <ele>195.2</ele>
        <time>2023-02-10T15:15:49Z</time>
      </trkpt>
      <trkpt lat="43.56631" lon="1.24991">
        <ele>195.8</ele>
        <time>2023-02-10T15:15:58Z</time>
      </trkpt>
      <trkpt lat="43.56647" lon="1.25041">
        <ele>196.6</ele>
        <time>2023-02-10T15:16:05Z</time>
      </trkpt>
      <trkpt lat="43.56649" lon="1.25048">
        <ele>196.8</ele>
        <time>2023-02-10T15:16:06Z</time>
      </trkpt>
      <trkpt lat="43.56658" lon="1.25077">
        <ele>197.4</ele>
        <time>2023-02-10T15:16:11Z</time>
      </trkpt>
      <trkpt lat="43.56666" lon="1.25102">
        <ele>197.8</ele>
        <time>2023-02-10T15:16:15Z</time>
      </trkpt>
      <trkpt lat="43.56671" lon="1.25119">
        <ele>198.2</ele>
        <time>2023-02-10T15:16:18Z</time>
      </trkpt>
      <trkpt lat="43.56673" lon="1.25129">
        <ele>198.8</ele>
        <time>2023-02-10T15:16:20Z</time>
      </trkpt>
      <trkpt lat="43.56678" lon="1.25144">
        <ele>199.4</ele>
        <time>2023-02-10T15:16:23Z</time>
      </trkpt>
      <trkpt lat="43.56682" lon="1.25153">
        <ele>199.8</ele>
        <time>2023-02-10T15:16:25Z</time>
      </trkpt>
      <trkpt lat="43.56692" lon="1.25179">
        <ele>200.8</ele>
        <time>2023-02-10T15:16:29Z</time>
      </trkpt>
      <trkpt lat="43.56694" lon="1.25185">
        <ele>201</ele>
        <time>2023-02-10T15:16:30Z</time>
      </trkpt>
      <trkpt lat="43.5671" lon="1.2523">
        <ele>201.8</ele>
        <time>2023-02-10T15:16:36Z</time>
      </trkpt>
      <trkpt lat="43.56712" lon="1.25238">
        <ele>201.8</ele>
        <time>2023-02-10T15:16:37Z</time>
      </trkpt>
      <trkpt lat="43.56718" lon="1.25273">
        <ele>201.6</ele>
        <time>2023-02-10T15:16:41Z</time>
      </trkpt>
      <trkpt lat="43.56719" lon="1.2528">
        <ele>201.6</ele>
        <time>2023-02-10T15:16:42Z</time>
      </trkpt>
      <trkpt lat="43.56723" lon="1.25301">
        <ele>201.4</ele>
        <time>2023-02-10T15:16:44Z</time>
      </trkpt>
      <trkpt lat="43.56724" lon="1.25311">
        <ele>201.4</ele>
        <time>2023-02-10T15:16:45Z</time>
      </trkpt>
      <trkpt lat="43.56729" lon="1.25357">
        <ele>201</ele>
        <time>2023-02-10T15:16:50Z</time>
      </trkpt>
      <trkpt lat="43.56741" lon="1.25428">
        <ele>200.2</ele>
        <time>2023-02-10T15:16:58Z</time>
      </trkpt>
      <trkpt lat="43.5675" lon="1.2547">
        <ele>199.8</ele>
        <time>2023-02-10T15:17:03Z</time>
      </trkpt>
      <trkpt lat="43.56753" lon="1.25486">
        <ele>199.6</ele>
        <time>2023-02-10T15:17:05Z</time>
      </trkpt>
      <trkpt lat="43.56761" lon="1.25547">
        <ele>199.8</ele>
        <time>2023-02-10T15:17:12Z</time>
      </trkpt>
      <trkpt lat="43.5677" lon="1.25612">
        <ele>199.6</ele>
        <time>2023-02-10T15:17:19Z</time>
      </trkpt>
      <trkpt lat="43.56777" lon="1.25659">
        <ele>198.8</ele>
        <time>2023-02-10T15:17:24Z</time>
      </trkpt>
      <trkpt lat="43.56779" lon="1.25678">
        <ele>198.6</ele>
        <time>2023-02-10T15:17:26Z</time>
      </trkpt>
      <trkpt lat="43.56778" lon="1.25719">
        <ele>198.2</ele>
        <time>2023-02-10T15:17:31Z</time>
      </trkpt>
      <trkpt lat="43.56764" lon="1.25774">
        <ele>198.6</ele>
        <time>2023-02-10T15:17:38Z</time>
      </trkpt>
      <trkpt lat="43.56759" lon="1.25809">
        <ele>198.8</ele>
        <time>2023-02-10T15:17:43Z</time>
      </trkpt>
      <trkpt lat="43.56759" lon="1.25822">
        <ele>199</ele>
        <time>2023-02-10T15:17:45Z</time>
      </trkpt>
      <trkpt lat="43.5676" lon="1.25842">
        <ele>199.2</ele>
        <time>2023-02-10T15:17:48Z</time>
      </trkpt>
      <trkpt lat="43.56765" lon="1.25882">
        <ele>200</ele>
        <time>2023-02-10T15:17:54Z</time>
      </trkpt>
      <trkpt lat="43.56767" lon="1.25894">
        <ele>200.2</ele>
        <time>2023-02-10T15:17:56Z</time>
      </trkpt>
      <trkpt lat="43.56769" lon="1.25916">
        <ele>201.2</ele>
        <time>2023-02-10T15:18:00Z</time>
      </trkpt>
      <trkpt lat="43.56769" lon="1.25921">
        <ele>201.4</ele>
        <time>2023-02-10T15:18:01Z</time>
      </trkpt>
      <trkpt lat="43.56769" lon="1.25933">
        <ele>202.4</ele>
        <time>2023-02-10T15:18:03Z</time>
      </trkpt>
      <trkpt lat="43.56769" lon="1.25951">
        <ele>203.4</ele>
        <time>2023-02-10T15:18:06Z</time>
      </trkpt>
      <trkpt lat="43.56768" lon="1.25962">
        <ele>203.4</ele>
        <time>2023-02-10T15:18:08Z</time>
      </trkpt>
      <trkpt lat="43.56763" lon="1.25996">
        <ele>204.8</ele>
        <time>2023-02-10T15:18:13Z</time>
      </trkpt>
      <trkpt lat="43.56762" lon="1.26002">
        <ele>205</ele>
        <time>2023-02-10T15:18:14Z</time>
      </trkpt>
      <trkpt lat="43.56759" lon="1.26023">
        <ele>205.8</ele>
        <time>2023-02-10T15:18:18Z</time>
      </trkpt>
      <trkpt lat="43.56758" lon="1.26034">
        <ele>206</ele>
        <time>2023-02-10T15:18:20Z</time>
      </trkpt>
      <trkpt lat="43.5676" lon="1.26038">
        <ele>206.2</ele>
        <time>2023-02-10T15:18:22Z</time>
      </trkpt>
      <trkpt lat="43.56759" lon="1.26042">
        <ele>206.2</ele>
        <time>2023-02-10T15:18:24Z</time>
      </trkpt>
      <trkpt lat="43.5676" lon="1.26061">
        <ele>206.4</ele>
        <time>2023-02-10T15:18:29Z</time>
      </trkpt>
      <trkpt lat="43.56762" lon="1.26089">
        <ele>206.6</ele>
        <time>2023-02-10T15:18:35Z</time>
      </trkpt>
      <trkpt lat="43.56763" lon="1.26094">
        <ele>206.8</ele>
        <time>2023-02-10T15:18:36Z</time>
      </trkpt>
      <trkpt lat="43.56763" lon="1.2612">
        <ele>207.2</ele>
        <time>2023-02-10T15:18:41Z</time>
      </trkpt>
      <trkpt lat="43.56764" lon="1.26144">
        <ele>208.2</ele>
        <time>2023-02-10T15:18:45Z</time>
      </trkpt>
      <trkpt lat="43.56763" lon="1.26174">
        <ele>209.2</ele>
        <time>2023-02-10T15:18:50Z</time>
      </trkpt>
      <trkpt lat="43.56763" lon="1.26181">
        <ele>209.6</ele>
        <time>2023-02-10T15:18:51Z</time>
      </trkpt>
      <trkpt lat="43.5676" lon="1.26223">
        <ele>210.2</ele>
        <time>2023-02-10T15:18:57Z</time>
      </trkpt>
      <trkpt lat="43.56758" lon="1.26254">
        <ele>210.6</ele>
        <time>2023-02-10T15:19:01Z</time>
      </trkpt>
      <trkpt lat="43.56749" lon="1.26334">
        <ele>211.2</ele>
        <time>2023-02-10T15:19:12Z</time>
      </trkpt>
      <trkpt lat="43.56749" lon="1.26341">
        <ele>211.4</ele>
        <time>2023-02-10T15:19:13Z</time>
      </trkpt>
      <trkpt lat="43.5675" lon="1.26396">
        <ele>211.4</ele>
        <time>2023-02-10T15:19:20Z</time>
      </trkpt>
      <trkpt lat="43.56757" lon="1.26473">
        <ele>211.4</ele>
        <time>2023-02-10T15:19:29Z</time>
      </trkpt>
      <trkpt lat="43.56758" lon="1.26482">
        <ele>211.4</ele>
        <time>2023-02-10T15:19:30Z</time>
      </trkpt>
      <trkpt lat="43.56765" lon="1.2656">
        <ele>211.4</ele>
        <time>2023-02-10T15:19:39Z</time>
      </trkpt>
      <trkpt lat="43.56767" lon="1.26575">
        <ele>211.4</ele>
        <time>2023-02-10T15:19:41Z</time>
      </trkpt>
      <trkpt lat="43.56776" lon="1.26625">
        <ele>211.4</ele>
        <time>2023-02-10T15:19:48Z</time>
      </trkpt>
      <trkpt lat="43.56783" lon="1.26636">
        <ele>211.6</ele>
        <time>2023-02-10T15:19:50Z</time>
      </trkpt>
      <trkpt lat="43.56789" lon="1.2664">
        <ele>211.6</ele>
        <time>2023-02-10T15:19:51Z</time>
      </trkpt>
      <trkpt lat="43.56827" lon="1.26655">
        <ele>211.8</ele>
        <time>2023-02-10T15:19:57Z</time>
      </trkpt>
      <trkpt lat="43.56879" lon="1.26684">
        <ele>211.6</ele>
        <time>2023-02-10T15:20:05Z</time>
      </trkpt>
      <trkpt lat="43.56927" lon="1.26719">
        <ele>211.8</ele>
        <time>2023-02-10T15:20:13Z</time>
      </trkpt>
      <trkpt lat="43.56978" lon="1.26755">
        <ele>211.8</ele>
        <time>2023-02-10T15:20:21Z</time>
      </trkpt>
      <trkpt lat="43.56984" lon="1.26759">
        <ele>211.8</ele>
        <time>2023-02-10T15:20:22Z</time>
      </trkpt>
      <trkpt lat="43.57037" lon="1.26798">
        <ele>211.8</ele>
        <time>2023-02-10T15:20:30Z</time>
      </trkpt>
      <trkpt lat="43.57088" lon="1.26836">
        <ele>211.6</ele>
        <time>2023-02-10T15:20:38Z</time>
      </trkpt>
      <trkpt lat="43.57106" lon="1.26849">
        <ele>211.6</ele>
        <time>2023-02-10T15:20:41Z</time>
      </trkpt>
      <trkpt lat="43.57157" lon="1.26887">
        <ele>211.6</ele>
        <time>2023-02-10T15:20:50Z</time>
      </trkpt>
      <trkpt lat="43.57206" lon="1.26922">
        <ele>211.6</ele>
        <time>2023-02-10T15:20:58Z</time>
      </trkpt>
      <trkpt lat="43.57224" lon="1.26936">
        <ele>211.6</ele>
        <time>2023-02-10T15:21:01Z</time>
      </trkpt>
      <trkpt lat="43.57272" lon="1.26973">
        <ele>211.6</ele>
        <time>2023-02-10T15:21:09Z</time>
      </trkpt>
      <trkpt lat="43.57314" lon="1.27014">
        <ele>211.4</ele>
        <time>2023-02-10T15:21:17Z</time>
      </trkpt>
      <trkpt lat="43.57317" lon="1.27028">
        <ele>211.4</ele>
        <time>2023-02-10T15:21:19Z</time>
      </trkpt>
      <trkpt lat="43.57315" lon="1.27036">
        <ele>211.4</ele>
        <time>2023-02-10T15:21:20Z</time>
      </trkpt>
      <trkpt lat="43.57312" lon="1.27043">
        <ele>211.2</ele>
        <time>2023-02-10T15:21:21Z</time>
      </trkpt>
      <trkpt lat="43.57297" lon="1.2707">
        <ele>211.2</ele>
        <time>2023-02-10T15:21:25Z</time>
      </trkpt>
      <trkpt lat="43.5728" lon="1.27107">
        <ele>211</ele>
        <time>2023-02-10T15:21:30Z</time>
      </trkpt>
      <trkpt lat="43.57278" lon="1.27126">
        <ele>211</ele>
        <time>2023-02-10T15:21:32Z</time>
      </trkpt>
      <trkpt lat="43.57276" lon="1.27204">
        <ele>211.4</ele>
        <time>2023-02-10T15:21:41Z</time>
      </trkpt>
      <trkpt lat="43.57275" lon="1.27213">
        <ele>211.4</ele>
        <time>2023-02-10T15:21:42Z</time>
      </trkpt>
      <trkpt lat="43.57274" lon="1.27222">
        <ele>211.4</ele>
        <time>2023-02-10T15:21:43Z</time>
      </trkpt>
      <trkpt lat="43.57269" lon="1.27238">
        <ele>211.4</ele>
        <time>2023-02-10T15:21:45Z</time>
      </trkpt>
      <trkpt lat="43.57265" lon="1.27246">
        <ele>211.4</ele>
        <time>2023-02-10T15:21:46Z</time>
      </trkpt>
      <trkpt lat="43.57251" lon="1.27277">
        <ele>211.4</ele>
        <time>2023-02-10T15:21:50Z</time>
      </trkpt>
      <trkpt lat="43.57242" lon="1.273">
        <ele>211.2</ele>
        <time>2023-02-10T15:21:53Z</time>
      </trkpt>
      <trkpt lat="43.57226" lon="1.27334">
        <ele>211.2</ele>
        <time>2023-02-10T15:21:58Z</time>
      </trkpt>
      <trkpt lat="43.57225" lon="1.27342">
        <ele>211.2</ele>
        <time>2023-02-10T15:21:59Z</time>
      </trkpt>
      <trkpt lat="43.57227" lon="1.27349">
        <ele>211</ele>
        <time>2023-02-10T15:22:00Z</time>
      </trkpt>
      <trkpt lat="43.5723" lon="1.27355">
        <ele>211</ele>
        <time>2023-02-10T15:22:01Z</time>
      </trkpt>
      <trkpt lat="43.57235" lon="1.2736">
        <ele>211</ele>
        <time>2023-02-10T15:22:02Z</time>
      </trkpt>
      <trkpt lat="43.57252" lon="1.27373">
        <ele>210.8</ele>
        <time>2023-02-10T15:22:05Z</time>
      </trkpt>
      <trkpt lat="43.57258" lon="1.27377">
        <ele>210.8</ele>
        <time>2023-02-10T15:22:06Z</time>
      </trkpt>
      <trkpt lat="43.57285" lon="1.2739">
        <ele>210.6</ele>
        <time>2023-02-10T15:22:10Z</time>
      </trkpt>
      <trkpt lat="43.57327" lon="1.27411">
        <ele>210.6</ele>
        <time>2023-02-10T15:22:17Z</time>
      </trkpt>
      <trkpt lat="43.57371" lon="1.27427">
        <ele>210.6</ele>
        <time>2023-02-10T15:22:24Z</time>
      </trkpt>
      <trkpt lat="43.57425" lon="1.27452">
        <ele>211</ele>
        <time>2023-02-10T15:22:33Z</time>
      </trkpt>
      <trkpt lat="43.5747" lon="1.27473">
        <ele>210.8</ele>
        <time>2023-02-10T15:22:41Z</time>
      </trkpt>
      <trkpt lat="43.57477" lon="1.27484">
        <ele>210.6</ele>
        <time>2023-02-10T15:22:44Z</time>
      </trkpt>
      <trkpt lat="43.57479" lon="1.27488">
        <ele>210.4</ele>
        <time>2023-02-10T15:22:45Z</time>
      </trkpt>
      <trkpt lat="43.57481" lon="1.2749">
        <ele>210.4</ele>
        <time>2023-02-10T15:22:46Z</time>
      </trkpt>
      <trkpt lat="43.57488" lon="1.27493">
        <ele>210.2</ele>
        <time>2023-02-10T15:22:48Z</time>
      </trkpt>
      <trkpt lat="43.57501" lon="1.27501">
        <ele>210</ele>
        <time>2023-02-10T15:22:52Z</time>
      </trkpt>
      <trkpt lat="43.57504" lon="1.27503">
        <ele>210</ele>
        <time>2023-02-10T15:22:53Z</time>
      </trkpt>
      <trkpt lat="43.57517" lon="1.27512">
        <ele>210</ele>
        <time>2023-02-10T15:22:56Z</time>
      </trkpt>
      <trkpt lat="43.57543" lon="1.27529">
        <ele>210.2</ele>
        <time>2023-02-10T15:23:03Z</time>
      </trkpt>
      <trkpt lat="43.57557" lon="1.27539">
        <ele>210.2</ele>
        <time>2023-02-10T15:23:09Z</time>
      </trkpt>
      <trkpt lat="43.57565" lon="1.27554">
        <ele>210.2</ele>
        <time>2023-02-10T15:23:13Z</time>
      </trkpt>
      <trkpt lat="43.57573" lon="1.27565">
        <ele>210</ele>
        <time>2023-02-10T15:23:16Z</time>
      </trkpt>
      <trkpt lat="43.57579" lon="1.27575">
        <ele>210</ele>
        <time>2023-02-10T15:23:18Z</time>
      </trkpt>
      <trkpt lat="43.57581" lon="1.27579">
        <ele>210</ele>
        <time>2023-02-10T15:23:19Z</time>
      </trkpt>
      <trkpt lat="43.57583" lon="1.27583">
        <ele>210</ele>
        <time>2023-02-10T15:23:20Z</time>
      </trkpt>
      <trkpt lat="43.57589" lon="1.27587">
        <ele>210.2</ele>
        <time>2023-02-10T15:23:22Z</time>
      </trkpt>
      <trkpt lat="43.57592" lon="1.27595">
        <ele>210.2</ele>
        <time>2023-02-10T15:23:24Z</time>
      </trkpt>
      <trkpt lat="43.57591" lon="1.276">
        <ele>210.2</ele>
        <time>2023-02-10T15:23:25Z</time>
      </trkpt>
      <trkpt lat="43.57581" lon="1.27631">
        <ele>210.2</ele>
        <time>2023-02-10T15:23:30Z</time>
      </trkpt>
      <trkpt lat="43.57575" lon="1.27651">
        <ele>210.4</ele>
        <time>2023-02-10T15:23:33Z</time>
      </trkpt>
      <trkpt lat="43.57576" lon="1.27664">
        <ele>210.4</ele>
        <time>2023-02-10T15:23:35Z</time>
      </trkpt>
      <trkpt lat="43.57579" lon="1.27678">
        <ele>210.2</ele>
        <time>2023-02-10T15:23:37Z</time>
      </trkpt>
      <trkpt lat="43.57576" lon="1.27693">
        <ele>210.2</ele>
        <time>2023-02-10T15:23:39Z</time>
      </trkpt>
      <trkpt lat="43.57561" lon="1.2774">
        <ele>210</ele>
        <time>2023-02-10T15:23:45Z</time>
      </trkpt>
      <trkpt lat="43.57555" lon="1.27763">
        <ele>210</ele>
        <time>2023-02-10T15:23:48Z</time>
      </trkpt>
      <trkpt lat="43.57557" lon="1.27768">
        <ele>210</ele>
        <time>2023-02-10T15:23:49Z</time>
      </trkpt>
      <trkpt lat="43.57562" lon="1.27778">
        <ele>210</ele>
        <time>2023-02-10T15:23:52Z</time>
      </trkpt>
      <trkpt lat="43.57562" lon="1.27781">
        <ele>210</ele>
        <time>2023-02-10T15:23:53Z</time>
      </trkpt>
      <trkpt lat="43.57561" lon="1.27793">
        <ele>209.8</ele>
        <time>2023-02-10T15:23:59Z</time>
      </trkpt>
      <trkpt lat="43.57556" lon="1.27813">
        <ele>209.8</ele>
        <time>2023-02-10T15:24:04Z</time>
      </trkpt>
      <trkpt lat="43.57544" lon="1.27853">
        <ele>209.8</ele>
        <time>2023-02-10T15:24:10Z</time>
      </trkpt>
      <trkpt lat="43.5753" lon="1.27898">
        <ele>209.8</ele>
        <time>2023-02-10T15:24:16Z</time>
      </trkpt>
      <trkpt lat="43.57513" lon="1.27956">
        <ele>210</ele>
        <time>2023-02-10T15:24:23Z</time>
      </trkpt>
      <trkpt lat="43.57497" lon="1.28006">
        <ele>210.2</ele>
        <time>2023-02-10T15:24:29Z</time>
      </trkpt>
      <trkpt lat="43.57479" lon="1.28064">
        <ele>210.2</ele>
        <time>2023-02-10T15:24:36Z</time>
      </trkpt>
      <trkpt lat="43.57477" lon="1.28071">
        <ele>210.2</ele>
        <time>2023-02-10T15:24:37Z</time>
      </trkpt>
      <trkpt lat="43.57473" lon="1.28085">
        <ele>210</ele>
        <time>2023-02-10T15:24:39Z</time>
      </trkpt>
      <trkpt lat="43.57473" lon="1.28092">
        <ele>210</ele>
        <time>2023-02-10T15:24:40Z</time>
      </trkpt>
      <trkpt lat="43.57475" lon="1.28097">
        <ele>210</ele>
        <time>2023-02-10T15:24:41Z</time>
      </trkpt>
      <trkpt lat="43.57483" lon="1.28107">
        <ele>209.8</ele>
        <time>2023-02-10T15:24:43Z</time>
      </trkpt>
      <trkpt lat="43.57503" lon="1.28121">
        <ele>209.8</ele>
        <time>2023-02-10T15:24:47Z</time>
      </trkpt>
      <trkpt lat="43.57547" lon="1.2815">
        <ele>209.8</ele>
        <time>2023-02-10T15:24:55Z</time>
      </trkpt>
      <trkpt lat="43.57599" lon="1.28189">
        <ele>210</ele>
        <time>2023-02-10T15:25:04Z</time>
      </trkpt>
      <trkpt lat="43.57634" lon="1.28214">
        <ele>210</ele>
        <time>2023-02-10T15:25:10Z</time>
      </trkpt>
      <trkpt lat="43.57684" lon="1.28252">
        <ele>210</ele>
        <time>2023-02-10T15:25:19Z</time>
      </trkpt>
      <trkpt lat="43.5769" lon="1.28256">
        <ele>210</ele>
        <time>2023-02-10T15:25:20Z</time>
      </trkpt>
      <trkpt lat="43.57722" lon="1.28288">
        <ele>210.2</ele>
        <time>2023-02-10T15:25:26Z</time>
      </trkpt>
      <trkpt lat="43.57741" lon="1.28314">
        <ele>210.2</ele>
        <time>2023-02-10T15:25:30Z</time>
      </trkpt>
      <trkpt lat="43.57752" lon="1.28325">
        <ele>210.4</ele>
        <time>2023-02-10T15:25:32Z</time>
      </trkpt>
      <trkpt lat="43.57786" lon="1.28349">
        <ele>210</ele>
        <time>2023-02-10T15:25:38Z</time>
      </trkpt>
      <trkpt lat="43.57825" lon="1.28376">
        <ele>209.8</ele>
        <time>2023-02-10T15:25:45Z</time>
      </trkpt>
      <trkpt lat="43.57837" lon="1.28375">
        <ele>209.8</ele>
        <time>2023-02-10T15:25:47Z</time>
      </trkpt>
      <trkpt lat="43.57842" lon="1.28371">
        <ele>209.8</ele>
        <time>2023-02-10T15:25:48Z</time>
      </trkpt>
      <trkpt lat="43.57875" lon="1.28331">
        <ele>209.6</ele>
        <time>2023-02-10T15:25:55Z</time>
      </trkpt>
      <trkpt lat="43.57886" lon="1.28325">
        <ele>209.4</ele>
        <time>2023-02-10T15:25:57Z</time>
      </trkpt>
      <trkpt lat="43.57891" lon="1.28326">
        <ele>209.4</ele>
        <time>2023-02-10T15:25:58Z</time>
      </trkpt>
      <trkpt lat="43.57896" lon="1.28329">
        <ele>209.2</ele>
        <time>2023-02-10T15:25:59Z</time>
      </trkpt>
      <trkpt lat="43.57901" lon="1.28342">
        <ele>209.2</ele>
        <time>2023-02-10T15:26:01Z</time>
      </trkpt>
      <trkpt lat="43.57909" lon="1.28408">
        <ele>209.2</ele>
        <time>2023-02-10T15:26:09Z</time>
      </trkpt>
      <trkpt lat="43.57917" lon="1.28473">
        <ele>209</ele>
        <time>2023-02-10T15:26:16Z</time>
      </trkpt>
      <trkpt lat="43.57925" lon="1.28529">
        <ele>209</ele>
        <time>2023-02-10T15:26:23Z</time>
      </trkpt>
      <trkpt lat="43.57928" lon="1.2854">
        <ele>208.8</ele>
        <time>2023-02-10T15:26:26Z</time>
      </trkpt>
      <trkpt lat="43.57939" lon="1.28559">
        <ele>208.8</ele>
        <time>2023-02-10T15:26:30Z</time>
      </trkpt>
      <trkpt lat="43.57957" lon="1.28588">
        <ele>208.8</ele>
        <time>2023-02-10T15:26:35Z</time>
      </trkpt>
      <trkpt lat="43.57984" lon="1.28634">
        <ele>209</ele>
        <time>2023-02-10T15:26:42Z</time>
      </trkpt>
      <trkpt lat="43.58021" lon="1.28699">
        <ele>209.4</ele>
        <time>2023-02-10T15:26:51Z</time>
      </trkpt>
      <trkpt lat="43.5805" lon="1.28766">
        <ele>209.2</ele>
        <time>2023-02-10T15:26:59Z</time>
      </trkpt>
      <trkpt lat="43.58063" lon="1.28825">
        <ele>209</ele>
        <time>2023-02-10T15:27:05Z</time>
      </trkpt>
      <trkpt lat="43.5807" lon="1.28884">
        <ele>208.8</ele>
        <time>2023-02-10T15:27:11Z</time>
      </trkpt>
      <trkpt lat="43.58072" lon="1.28904">
        <ele>208.4</ele>
        <time>2023-02-10T15:27:13Z</time>
      </trkpt>
      <trkpt lat="43.58081" lon="1.28975">
        <ele>208.2</ele>
        <time>2023-02-10T15:27:21Z</time>
      </trkpt>
      <trkpt lat="43.58083" lon="1.29002">
        <ele>207.8</ele>
        <time>2023-02-10T15:27:26Z</time>
      </trkpt>
      <trkpt lat="43.58081" lon="1.29007">
        <ele>207.8</ele>
        <time>2023-02-10T15:27:28Z</time>
      </trkpt>
      <trkpt lat="43.58082" lon="1.29015">
        <ele>207.8</ele>
        <time>2023-02-10T15:27:30Z</time>
      </trkpt>
      <trkpt lat="43.58085" lon="1.29026">
        <ele>207.8</ele>
        <time>2023-02-10T15:27:32Z</time>
      </trkpt>
      <trkpt lat="43.58086" lon="1.2904">
        <ele>207.8</ele>
        <time>2023-02-10T15:27:34Z</time>
      </trkpt>
      <trkpt lat="43.58092" lon="1.29094">
        <ele>207.4</ele>
        <time>2023-02-10T15:27:41Z</time>
      </trkpt>
      <trkpt lat="43.58092" lon="1.29102">
        <ele>207.4</ele>
        <time>2023-02-10T15:27:42Z</time>
      </trkpt>
      <trkpt lat="43.58089" lon="1.29119">
        <ele>207.4</ele>
        <time>2023-02-10T15:27:44Z</time>
      </trkpt>
      <trkpt lat="43.58071" lon="1.29157">
        <ele>207.4</ele>
        <time>2023-02-10T15:27:49Z</time>
      </trkpt>
      <trkpt lat="43.58067" lon="1.29164">
        <ele>207.6</ele>
        <time>2023-02-10T15:27:50Z</time>
      </trkpt>
      <trkpt lat="43.58047" lon="1.29202">
        <ele>207.8</ele>
        <time>2023-02-10T15:27:55Z</time>
      </trkpt>
      <trkpt lat="43.58014" lon="1.29266">
        <ele>208.4</ele>
        <time>2023-02-10T15:28:03Z</time>
      </trkpt>
      <trkpt lat="43.57981" lon="1.29328">
        <ele>208.4</ele>
        <time>2023-02-10T15:28:11Z</time>
      </trkpt>
      <trkpt lat="43.57946" lon="1.29396">
        <ele>208</ele>
        <time>2023-02-10T15:28:20Z</time>
      </trkpt>
      <trkpt lat="43.57942" lon="1.29405">
        <ele>208</ele>
        <time>2023-02-10T15:28:21Z</time>
      </trkpt>
      <trkpt lat="43.57935" lon="1.29431">
        <ele>208</ele>
        <time>2023-02-10T15:28:24Z</time>
      </trkpt>
      <trkpt lat="43.57933" lon="1.29439">
        <ele>208</ele>
        <time>2023-02-10T15:28:25Z</time>
      </trkpt>
      <trkpt lat="43.57931" lon="1.29447">
        <ele>208</ele>
        <time>2023-02-10T15:28:26Z</time>
      </trkpt>
      <trkpt lat="43.57924" lon="1.29455">
        <ele>208</ele>
        <time>2023-02-10T15:28:28Z</time>
      </trkpt>
      <trkpt lat="43.57915" lon="1.29454">
        <ele>207.8</ele>
        <time>2023-02-10T15:28:30Z</time>
      </trkpt>
      <trkpt lat="43.57911" lon="1.29451">
        <ele>207.8</ele>
        <time>2023-02-10T15:28:31Z</time>
      </trkpt>
      <trkpt lat="43.57878" lon="1.29424">
        <ele>207.6</ele>
        <time>2023-02-10T15:28:38Z</time>
      </trkpt>
      <trkpt lat="43.57852" lon="1.29405">
        <ele>207.4</ele>
        <time>2023-02-10T15:28:43Z</time>
      </trkpt>
      <trkpt lat="43.57844" lon="1.29395">
        <ele>207.4</ele>
        <time>2023-02-10T15:28:45Z</time>
      </trkpt>
      <trkpt lat="43.57838" lon="1.29388">
        <ele>207.4</ele>
        <time>2023-02-10T15:28:46Z</time>
      </trkpt>
      <trkpt lat="43.57822" lon="1.29376">
        <ele>207.4</ele>
        <time>2023-02-10T15:28:49Z</time>
      </trkpt>
      <trkpt lat="43.57786" lon="1.29347">
        <ele>207.4</ele>
        <time>2023-02-10T15:28:56Z</time>
      </trkpt>
      <trkpt lat="43.57759" lon="1.29327">
        <ele>207.6</ele>
        <time>2023-02-10T15:29:01Z</time>
      </trkpt>
      <trkpt lat="43.57748" lon="1.29325">
        <ele>207.6</ele>
        <time>2023-02-10T15:29:03Z</time>
      </trkpt>
      <trkpt lat="43.57741" lon="1.29332">
        <ele>207.6</ele>
        <time>2023-02-10T15:29:05Z</time>
      </trkpt>
      <trkpt lat="43.5773" lon="1.29359">
        <ele>207.4</ele>
        <time>2023-02-10T15:29:09Z</time>
      </trkpt>
      <trkpt lat="43.57728" lon="1.29366">
        <ele>207.4</ele>
        <time>2023-02-10T15:29:10Z</time>
      </trkpt>
      <trkpt lat="43.57712" lon="1.29419">
        <ele>207.6</ele>
        <time>2023-02-10T15:29:17Z</time>
      </trkpt>
      <trkpt lat="43.57693" lon="1.29472">
        <ele>206.4</ele>
        <time>2023-02-10T15:29:24Z</time>
      </trkpt>
      <trkpt lat="43.5769" lon="1.29479">
        <ele>206.4</ele>
        <time>2023-02-10T15:29:25Z</time>
      </trkpt>
      <trkpt lat="43.57688" lon="1.29485">
        <ele>206.2</ele>
        <time>2023-02-10T15:29:26Z</time>
      </trkpt>
      <trkpt lat="43.57681" lon="1.29512">
        <ele>205.6</ele>
        <time>2023-02-10T15:29:30Z</time>
      </trkpt>
      <trkpt lat="43.57675" lon="1.29535">
        <ele>205.4</ele>
        <time>2023-02-10T15:29:33Z</time>
      </trkpt>
      <trkpt lat="43.57667" lon="1.29567">
        <ele>204.8</ele>
        <time>2023-02-10T15:29:37Z</time>
      </trkpt>
      <trkpt lat="43.57667" lon="1.29577">
        <ele>204.2</ele>
        <time>2023-02-10T15:29:39Z</time>
      </trkpt>
      <trkpt lat="43.57681" lon="1.29586">
        <ele>203.8</ele>
        <time>2023-02-10T15:29:43Z</time>
      </trkpt>
      <trkpt lat="43.57701" lon="1.29602">
        <ele>203.4</ele>
        <time>2023-02-10T15:29:48Z</time>
      </trkpt>
      <trkpt lat="43.57709" lon="1.2961">
        <ele>203.2</ele>
        <time>2023-02-10T15:29:50Z</time>
      </trkpt>
      <trkpt lat="43.57712" lon="1.29614">
        <ele>203.2</ele>
        <time>2023-02-10T15:29:51Z</time>
      </trkpt>
      <trkpt lat="43.57711" lon="1.29622">
        <ele>203.8</ele>
        <time>2023-02-10T15:29:53Z</time>
      </trkpt>
      <trkpt lat="43.57704" lon="1.29651">
        <ele>204.4</ele>
        <time>2023-02-10T15:29:58Z</time>
      </trkpt>
      <trkpt lat="43.57696" lon="1.29661">
        <ele>204.6</ele>
        <time>2023-02-10T15:30:00Z</time>
      </trkpt>
      <trkpt lat="43.57688" lon="1.29673">
        <ele>204.6</ele>
        <time>2023-02-10T15:30:02Z</time>
      </trkpt>
      <trkpt lat="43.57679" lon="1.29697">
        <ele>204.4</ele>
        <time>2023-02-10T15:30:05Z</time>
      </trkpt>
      <trkpt lat="43.57676" lon="1.29714">
        <ele>204</ele>
        <time>2023-02-10T15:30:07Z</time>
      </trkpt>
      <trkpt lat="43.57676" lon="1.29727">
        <ele>203.8</ele>
        <time>2023-02-10T15:30:09Z</time>
      </trkpt>
      <trkpt lat="43.57678" lon="1.29731">
        <ele>203.8</ele>
        <time>2023-02-10T15:30:10Z</time>
      </trkpt>
      <trkpt lat="43.57681" lon="1.29733">
        <ele>203.8</ele>
        <time>2023-02-10T15:30:11Z</time>
      </trkpt>
      <trkpt lat="43.57687" lon="1.29738">
        <ele>203.4</ele>
        <time>2023-02-10T15:30:14Z</time>
      </trkpt>
      <trkpt lat="43.57689" lon="1.29739">
        <ele>203.4</ele>
        <time>2023-02-10T15:30:15Z</time>
      </trkpt>
      <trkpt lat="43.57689" lon="1.29741">
        <ele>203.4</ele>
        <time>2023-02-10T15:30:16Z</time>
      </trkpt>
      <trkpt lat="43.57688" lon="1.29747">
        <ele>203.6</ele>
        <time>2023-02-10T15:30:19Z</time>
      </trkpt>
      <trkpt lat="43.57682" lon="1.29754">
        <ele>203.6</ele>
        <time>2023-02-10T15:30:21Z</time>
      </trkpt>
      <trkpt lat="43.57678" lon="1.2976">
        <ele>203.6</ele>
        <time>2023-02-10T15:30:22Z</time>
      </trkpt>
      <trkpt lat="43.57674" lon="1.29766">
        <ele>203.8</ele>
        <time>2023-02-10T15:30:23Z</time>
      </trkpt>
      <trkpt lat="43.57661" lon="1.29788">
        <ele>203.8</ele>
        <time>2023-02-10T15:30:26Z</time>
      </trkpt>
      <trkpt lat="43.57641" lon="1.29828">
        <ele>202.2</ele>
        <time>2023-02-10T15:30:30Z</time>
      </trkpt>
      <trkpt lat="43.57637" lon="1.29837">
        <ele>201.8</ele>
        <time>2023-02-10T15:30:31Z</time>
      </trkpt>
      <trkpt lat="43.57632" lon="1.29846">
        <ele>201</ele>
        <time>2023-02-10T15:30:32Z</time>
      </trkpt>
      <trkpt lat="43.57629" lon="1.29854">
        <ele>199.8</ele>
        <time>2023-02-10T15:30:33Z</time>
      </trkpt>
      <trkpt lat="43.57627" lon="1.29862">
        <ele>199.2</ele>
        <time>2023-02-10T15:30:34Z</time>
      </trkpt>
      <trkpt lat="43.57626" lon="1.29869">
        <ele>198.4</ele>
        <time>2023-02-10T15:30:35Z</time>
      </trkpt>
      <trkpt lat="43.57625" lon="1.29877">
        <ele>197.8</ele>
        <time>2023-02-10T15:30:36Z</time>
      </trkpt>
      <trkpt lat="43.57625" lon="1.29882">
        <ele>196.2</ele>
        <time>2023-02-10T15:30:37Z</time>
      </trkpt>
      <trkpt lat="43.57628" lon="1.29885">
        <ele>195.6</ele>
        <time>2023-02-10T15:30:38Z</time>
      </trkpt>
      <trkpt lat="43.57629" lon="1.29888">
        <ele>194.2</ele>
        <time>2023-02-10T15:30:39Z</time>
      </trkpt>
      <trkpt lat="43.5763" lon="1.29891">
        <ele>193.6</ele>
        <time>2023-02-10T15:30:40Z</time>
      </trkpt>
      <trkpt lat="43.5763" lon="1.29896">
        <ele>192.8</ele>
        <time>2023-02-10T15:30:41Z</time>
      </trkpt>
      <trkpt lat="43.5763" lon="1.29902">
        <ele>192.4</ele>
        <time>2023-02-10T15:30:42Z</time>
      </trkpt>
      <trkpt lat="43.57633" lon="1.29913">
        <ele>191.8</ele>
        <time>2023-02-10T15:30:44Z</time>
      </trkpt>
      <trkpt lat="43.57636" lon="1.29922">
        <ele>191.4</ele>
        <time>2023-02-10T15:30:46Z</time>
      </trkpt>
      <trkpt lat="43.57638" lon="1.29926">
        <ele>191.2</ele>
        <time>2023-02-10T15:30:48Z</time>
      </trkpt>
      <trkpt lat="43.57641" lon="1.29928">
        <ele>191</ele>
        <time>2023-02-10T15:30:49Z</time>
      </trkpt>
      <trkpt lat="43.57643" lon="1.29931">
        <ele>191</ele>
        <time>2023-02-10T15:30:50Z</time>
      </trkpt>
      <trkpt lat="43.57643" lon="1.29938">
        <ele>190.6</ele>
        <time>2023-02-10T15:30:52Z</time>
      </trkpt>
      <trkpt lat="43.57643" lon="1.29944">
        <ele>190.4</ele>
        <time>2023-02-10T15:30:53Z</time>
      </trkpt>
      <trkpt lat="43.57645" lon="1.29954">
        <ele>190.2</ele>
        <time>2023-02-10T15:30:55Z</time>
      </trkpt>
      <trkpt lat="43.57645" lon="1.29958">
        <ele>190</ele>
        <time>2023-02-10T15:30:56Z</time>
      </trkpt>
      <trkpt lat="43.57643" lon="1.2997">
        <ele>189.4</ele>
        <time>2023-02-10T15:30:59Z</time>
      </trkpt>
      <trkpt lat="43.57643" lon="1.29974">
        <ele>189.4</ele>
        <time>2023-02-10T15:31:00Z</time>
      </trkpt>
      <trkpt lat="43.57645" lon="1.29985">
        <ele>189</ele>
        <time>2023-02-10T15:31:02Z</time>
      </trkpt>
      <trkpt lat="43.5765" lon="1.29992">
        <ele>188.6</ele>
        <time>2023-02-10T15:31:04Z</time>
      </trkpt>
      <trkpt lat="43.57662" lon="1.30005">
        <ele>188.4</ele>
        <time>2023-02-10T15:31:08Z</time>
      </trkpt>
      <trkpt lat="43.57664" lon="1.30008">
        <ele>188.4</ele>
        <time>2023-02-10T15:31:09Z</time>
      </trkpt>
      <trkpt lat="43.5767" lon="1.30019">
        <ele>188</ele>
        <time>2023-02-10T15:31:12Z</time>
      </trkpt>
      <trkpt lat="43.5767" lon="1.30031">
        <ele>187.4</ele>
        <time>2023-02-10T15:31:15Z</time>
      </trkpt>
      <trkpt lat="43.57669" lon="1.30036">
        <ele>187.2</ele>
        <time>2023-02-10T15:31:16Z</time>
      </trkpt>
      <trkpt lat="43.57669" lon="1.30041">
        <ele>187</ele>
        <time>2023-02-10T15:31:17Z</time>
      </trkpt>
      <trkpt lat="43.57673" lon="1.30049">
        <ele>186.8</ele>
        <time>2023-02-10T15:31:19Z</time>
      </trkpt>
      <trkpt lat="43.57671" lon="1.3006">
        <ele>186.8</ele>
        <time>2023-02-10T15:31:21Z</time>
      </trkpt>
      <trkpt lat="43.57669" lon="1.30063">
        <ele>186.4</ele>
        <time>2023-02-10T15:31:22Z</time>
      </trkpt>
      <trkpt lat="43.57662" lon="1.30075">
        <ele>186.2</ele>
        <time>2023-02-10T15:31:24Z</time>
      </trkpt>
      <trkpt lat="43.57659" lon="1.30087">
        <ele>185.8</ele>
        <time>2023-02-10T15:31:26Z</time>
      </trkpt>
      <trkpt lat="43.57656" lon="1.30094">
        <ele>185.8</ele>
        <time>2023-02-10T15:31:27Z</time>
      </trkpt>
      <trkpt lat="43.57644" lon="1.30122">
        <ele>185.2</ele>
        <time>2023-02-10T15:31:31Z</time>
      </trkpt>
      <trkpt lat="43.5764" lon="1.30128">
        <ele>185.2</ele>
        <time>2023-02-10T15:31:32Z</time>
      </trkpt>
      <trkpt lat="43.57636" lon="1.30134">
        <ele>185.2</ele>
        <time>2023-02-10T15:31:33Z</time>
      </trkpt>
      <trkpt lat="43.57618" lon="1.30165">
        <ele>184.8</ele>
        <time>2023-02-10T15:31:38Z</time>
      </trkpt>
      <trkpt lat="43.57611" lon="1.30175">
        <ele>184.6</ele>
        <time>2023-02-10T15:31:40Z</time>
      </trkpt>
      <trkpt lat="43.57603" lon="1.3018">
        <ele>184</ele>
        <time>2023-02-10T15:31:42Z</time>
      </trkpt>
      <trkpt lat="43.57599" lon="1.30182">
        <ele>184</ele>
        <time>2023-02-10T15:31:43Z</time>
      </trkpt>
      <trkpt lat="43.57594" lon="1.30185">
        <ele>183.6</ele>
        <time>2023-02-10T15:31:45Z</time>
      </trkpt>
      <trkpt lat="43.57589" lon="1.30185">
        <ele>183.4</ele>
        <time>2023-02-10T15:31:47Z</time>
      </trkpt>
      <trkpt lat="43.57586" lon="1.3019">
        <ele>183</ele>
        <time>2023-02-10T15:31:49Z</time>
      </trkpt>
      <trkpt lat="43.57586" lon="1.30194">
        <ele>183</ele>
        <time>2023-02-10T15:31:50Z</time>
      </trkpt>
      <trkpt lat="43.57587" lon="1.30202">
        <ele>183</ele>
        <time>2023-02-10T15:31:52Z</time>
      </trkpt>
      <trkpt lat="43.57585" lon="1.30206">
        <ele>182.8</ele>
        <time>2023-02-10T15:31:53Z</time>
      </trkpt>
      <trkpt lat="43.57576" lon="1.30228">
        <ele>182.8</ele>
        <time>2023-02-10T15:31:58Z</time>
      </trkpt>
      <trkpt lat="43.57575" lon="1.3024">
        <ele>182.6</ele>
        <time>2023-02-10T15:32:00Z</time>
      </trkpt>
      <trkpt lat="43.5757" lon="1.30251">
        <ele>182.6</ele>
        <time>2023-02-10T15:32:02Z</time>
      </trkpt>
      <trkpt lat="43.57565" lon="1.30264">
        <ele>182.4</ele>
        <time>2023-02-10T15:32:04Z</time>
      </trkpt>
      <trkpt lat="43.57557" lon="1.30276">
        <ele>182.2</ele>
        <time>2023-02-10T15:32:06Z</time>
      </trkpt>
      <trkpt lat="43.57528" lon="1.30323">
        <ele>182</ele>
        <time>2023-02-10T15:32:13Z</time>
      </trkpt>
      <trkpt lat="43.57506" lon="1.30364">
        <ele>181.6</ele>
        <time>2023-02-10T15:32:19Z</time>
      </trkpt>
      <trkpt lat="43.57507" lon="1.30375">
        <ele>181.6</ele>
        <time>2023-02-10T15:32:21Z</time>
      </trkpt>
      <trkpt lat="43.57511" lon="1.3038">
        <ele>181.6</ele>
        <time>2023-02-10T15:32:22Z</time>
      </trkpt>
      <trkpt lat="43.57517" lon="1.30391">
        <ele>181.4</ele>
        <time>2023-02-10T15:32:24Z</time>
      </trkpt>
      <trkpt lat="43.57518" lon="1.30405">
        <ele>181.4</ele>
        <time>2023-02-10T15:32:26Z</time>
      </trkpt>
      <trkpt lat="43.57507" lon="1.30433">
        <ele>181.4</ele>
        <time>2023-02-10T15:32:30Z</time>
      </trkpt>
      <trkpt lat="43.57484" lon="1.30476">
        <ele>181.4</ele>
        <time>2023-02-10T15:32:36Z</time>
      </trkpt>
      <trkpt lat="43.57477" lon="1.30491">
        <ele>181.4</ele>
        <time>2023-02-10T15:32:38Z</time>
      </trkpt>
      <trkpt lat="43.57461" lon="1.30517">
        <ele>181</ele>
        <time>2023-02-10T15:32:42Z</time>
      </trkpt>
      <trkpt lat="43.57451" lon="1.30537">
        <ele>180.8</ele>
        <time>2023-02-10T15:32:45Z</time>
      </trkpt>
      <trkpt lat="43.57444" lon="1.30548">
        <ele>180.8</ele>
        <time>2023-02-10T15:32:47Z</time>
      </trkpt>
      <trkpt lat="43.57436" lon="1.30552">
        <ele>180.4</ele>
        <time>2023-02-10T15:32:49Z</time>
      </trkpt>
      <trkpt lat="43.57426" lon="1.30545">
        <ele>180.4</ele>
        <time>2023-02-10T15:32:52Z</time>
      </trkpt>
      <trkpt lat="43.57424" lon="1.30542">
        <ele>180.4</ele>
        <time>2023-02-10T15:32:54Z</time>
      </trkpt>
      <trkpt lat="43.57423" lon="1.30542">
        <ele>180.4</ele>
        <time>2023-02-10T15:32:55Z</time>
      </trkpt>
      <trkpt lat="43.57422" lon="1.3054">
        <ele>180.2</ele>
        <time>2023-02-10T15:32:59Z</time>
      </trkpt>
      <trkpt lat="43.5742" lon="1.30542">
        <ele>180.2</ele>
        <time>2023-02-10T15:33:01Z</time>
      </trkpt>
      <trkpt lat="43.5742" lon="1.30543">
        <ele>180.2</ele>
        <time>2023-02-10T15:33:02Z</time>
      </trkpt>
      <trkpt lat="43.57422" lon="1.30549">
        <ele>180</ele>
        <time>2023-02-10T15:33:06Z</time>
      </trkpt>
      <trkpt lat="43.57425" lon="1.30552">
        <ele>180</ele>
        <time>2023-02-10T15:33:08Z</time>
      </trkpt>
      <trkpt lat="43.57438" lon="1.30567">
        <ele>180.2</ele>
        <time>2023-02-10T15:33:13Z</time>
      </trkpt>
      <trkpt lat="43.57458" lon="1.30588">
        <ele>180.2</ele>
        <time>2023-02-10T15:33:18Z</time>
      </trkpt>
      <trkpt lat="43.57493" lon="1.30622">
        <ele>180.4</ele>
        <time>2023-02-10T15:33:25Z</time>
      </trkpt>
      <trkpt lat="43.57535" lon="1.30668">
        <ele>180.4</ele>
        <time>2023-02-10T15:33:33Z</time>
      </trkpt>
      <trkpt lat="43.57579" lon="1.30725">
        <ele>180.8</ele>
        <time>2023-02-10T15:33:42Z</time>
      </trkpt>
      <trkpt lat="43.57589" lon="1.30737">
        <ele>180.8</ele>
        <time>2023-02-10T15:33:44Z</time>
      </trkpt>
      <trkpt lat="43.57633" lon="1.30794">
        <ele>180.8</ele>
        <time>2023-02-10T15:33:53Z</time>
      </trkpt>
      <trkpt lat="43.57667" lon="1.30835">
        <ele>180.8</ele>
        <time>2023-02-10T15:34:00Z</time>
      </trkpt>
      <trkpt lat="43.57712" lon="1.30881">
        <ele>180.8</ele>
        <time>2023-02-10T15:34:09Z</time>
      </trkpt>
      <trkpt lat="43.57722" lon="1.30892">
        <ele>180.8</ele>
        <time>2023-02-10T15:34:11Z</time>
      </trkpt>
      <trkpt lat="43.57767" lon="1.3094">
        <ele>180.6</ele>
        <time>2023-02-10T15:34:20Z</time>
      </trkpt>
      <trkpt lat="43.57777" lon="1.3095">
        <ele>180.8</ele>
        <time>2023-02-10T15:34:22Z</time>
      </trkpt>
      <trkpt lat="43.57812" lon="1.30988">
        <ele>180.6</ele>
        <time>2023-02-10T15:34:29Z</time>
      </trkpt>
      <trkpt lat="43.57842" lon="1.31019">
        <ele>180.4</ele>
        <time>2023-02-10T15:34:35Z</time>
      </trkpt>
      <trkpt lat="43.5788" lon="1.31059">
        <ele>180.4</ele>
        <time>2023-02-10T15:34:43Z</time>
      </trkpt>
      <trkpt lat="43.57919" lon="1.31095">
        <ele>180.6</ele>
        <time>2023-02-10T15:34:51Z</time>
      </trkpt>
      <trkpt lat="43.57923" lon="1.31097">
        <ele>180.6</ele>
        <time>2023-02-10T15:34:52Z</time>
      </trkpt>
      <trkpt lat="43.57927" lon="1.31097">
        <ele>180.6</ele>
        <time>2023-02-10T15:34:53Z</time>
      </trkpt>
      <trkpt lat="43.57933" lon="1.31094">
        <ele>180.6</ele>
        <time>2023-02-10T15:34:55Z</time>
      </trkpt>
      <trkpt lat="43.57947" lon="1.31075">
        <ele>180.4</ele>
        <time>2023-02-10T15:35:00Z</time>
      </trkpt>
      <trkpt lat="43.57974" lon="1.31037">
        <ele>180.4</ele>
        <time>2023-02-10T15:35:08Z</time>
      </trkpt>
      <trkpt lat="43.57978" lon="1.31033">
        <ele>180.4</ele>
        <time>2023-02-10T15:35:09Z</time>
      </trkpt>
      <trkpt lat="43.57987" lon="1.31028">
        <ele>180.6</ele>
        <time>2023-02-10T15:35:11Z</time>
      </trkpt>
      <trkpt lat="43.57991" lon="1.31026">
        <ele>180.6</ele>
        <time>2023-02-10T15:35:12Z</time>
      </trkpt>
      <trkpt lat="43.57996" lon="1.31025">
        <ele>180.6</ele>
        <time>2023-02-10T15:35:13Z</time>
      </trkpt>
      <trkpt lat="43.58005" lon="1.3102">
        <ele>180.6</ele>
        <time>2023-02-10T15:35:15Z</time>
      </trkpt>
      <trkpt lat="43.58008" lon="1.31018">
        <ele>180.6</ele>
        <time>2023-02-10T15:35:16Z</time>
      </trkpt>
      <trkpt lat="43.58016" lon="1.31014">
        <ele>180.6</ele>
        <time>2023-02-10T15:35:18Z</time>
      </trkpt>
      <trkpt lat="43.58029" lon="1.31008">
        <ele>180.6</ele>
        <time>2023-02-10T15:35:21Z</time>
      </trkpt>
      <trkpt lat="43.58033" lon="1.31006">
        <ele>180.6</ele>
        <time>2023-02-10T15:35:22Z</time>
      </trkpt>
      <trkpt lat="43.58038" lon="1.31004">
        <ele>180.6</ele>
        <time>2023-02-10T15:35:23Z</time>
      </trkpt>
      <trkpt lat="43.58062" lon="1.30995">
        <ele>181.2</ele>
        <time>2023-02-10T15:35:29Z</time>
      </trkpt>
      <trkpt lat="43.5807" lon="1.30991">
        <ele>181.4</ele>
        <time>2023-02-10T15:35:31Z</time>
      </trkpt>
      <trkpt lat="43.58086" lon="1.30987">
        <ele>181.8</ele>
        <time>2023-02-10T15:35:35Z</time>
      </trkpt>
      <trkpt lat="43.5811" lon="1.30978">
        <ele>182.6</ele>
        <time>2023-02-10T15:35:42Z</time>
      </trkpt>
      <trkpt lat="43.58126" lon="1.30972">
        <ele>183.6</ele>
        <time>2023-02-10T15:35:47Z</time>
      </trkpt>
      <trkpt lat="43.58136" lon="1.30965">
        <ele>184.2</ele>
        <time>2023-02-10T15:35:51Z</time>
      </trkpt>
      <trkpt lat="43.58146" lon="1.3096">
        <ele>184.8</ele>
        <time>2023-02-10T15:35:55Z</time>
      </trkpt>
      <trkpt lat="43.58148" lon="1.30957">
        <ele>185</ele>
        <time>2023-02-10T15:35:56Z</time>
      </trkpt>
      <trkpt lat="43.5816" lon="1.30949">
        <ele>185.8</ele>
        <time>2023-02-10T15:36:01Z</time>
      </trkpt>
      <trkpt lat="43.58164" lon="1.30946">
        <ele>186.4</ele>
        <time>2023-02-10T15:36:03Z</time>
      </trkpt>
      <trkpt lat="43.58168" lon="1.30944">
        <ele>187</ele>
        <time>2023-02-10T15:36:05Z</time>
      </trkpt>
      <trkpt lat="43.58174" lon="1.3094">
        <ele>188.2</ele>
        <time>2023-02-10T15:36:08Z</time>
      </trkpt>
      <trkpt lat="43.58181" lon="1.30938">
        <ele>189.2</ele>
        <time>2023-02-10T15:36:11Z</time>
      </trkpt>
      <trkpt lat="43.58188" lon="1.30935">
        <ele>190</ele>
        <time>2023-02-10T15:36:14Z</time>
      </trkpt>
      <trkpt lat="43.58196" lon="1.30933">
        <ele>190.4</ele>
        <time>2023-02-10T15:36:17Z</time>
      </trkpt>
      <trkpt lat="43.58207" lon="1.30933">
        <ele>191.6</ele>
        <time>2023-02-10T15:36:21Z</time>
      </trkpt>
      <trkpt lat="43.58212" lon="1.30936">
        <ele>192</ele>
        <time>2023-02-10T15:36:23Z</time>
      </trkpt>
      <trkpt lat="43.58217" lon="1.30942">
        <ele>192.4</ele>
        <time>2023-02-10T15:36:25Z</time>
      </trkpt>
      <trkpt lat="43.58219" lon="1.30944">
        <ele>192.8</ele>
        <time>2023-02-10T15:36:26Z</time>
      </trkpt>
      <trkpt lat="43.58237" lon="1.30972">
        <ele>193.6</ele>
        <time>2023-02-10T15:36:34Z</time>
      </trkpt>
      <trkpt lat="43.58239" lon="1.30976">
        <ele>193.8</ele>
        <time>2023-02-10T15:36:35Z</time>
      </trkpt>
      <trkpt lat="43.58254" lon="1.31006">
        <ele>194.4</ele>
        <time>2023-02-10T15:36:42Z</time>
      </trkpt>
      <trkpt lat="43.58262" lon="1.31023">
        <ele>194.8</ele>
        <time>2023-02-10T15:36:46Z</time>
      </trkpt>
      <trkpt lat="43.58268" lon="1.31035">
        <ele>195.2</ele>
        <time>2023-02-10T15:36:49Z</time>
      </trkpt>
      <trkpt lat="43.58279" lon="1.31057">
        <ele>195.8</ele>
        <time>2023-02-10T15:36:55Z</time>
      </trkpt>
      <trkpt lat="43.5828" lon="1.3106">
        <ele>195.8</ele>
        <time>2023-02-10T15:36:56Z</time>
      </trkpt>
      <trkpt lat="43.58288" lon="1.3108">
        <ele>196.8</ele>
        <time>2023-02-10T15:37:02Z</time>
      </trkpt>
      <trkpt lat="43.5829" lon="1.31084">
        <ele>196.8</ele>
        <time>2023-02-10T15:37:03Z</time>
      </trkpt>
      <trkpt lat="43.58303" lon="1.31111">
        <ele>197.6</ele>
        <time>2023-02-10T15:37:09Z</time>
      </trkpt>
      <trkpt lat="43.58312" lon="1.31129">
        <ele>198</ele>
        <time>2023-02-10T15:37:13Z</time>
      </trkpt>
      <trkpt lat="43.58323" lon="1.31149">
        <ele>198.6</ele>
        <time>2023-02-10T15:37:18Z</time>
      </trkpt>
      <trkpt lat="43.58327" lon="1.31158">
        <ele>199</ele>
        <time>2023-02-10T15:37:20Z</time>
      </trkpt>
      <trkpt lat="43.58339" lon="1.31184">
        <ele>200.2</ele>
        <time>2023-02-10T15:37:26Z</time>
      </trkpt>
      <trkpt lat="43.58351" lon="1.31204">
        <ele>201.6</ele>
        <time>2023-02-10T15:37:31Z</time>
      </trkpt>
      <trkpt lat="43.58354" lon="1.31206">
        <ele>201.8</ele>
        <time>2023-02-10T15:37:32Z</time>
      </trkpt>
      <trkpt lat="43.58364" lon="1.31202">
        <ele>202.6</ele>
        <time>2023-02-10T15:37:35Z</time>
      </trkpt>
      <trkpt lat="43.58368" lon="1.31199">
        <ele>203</ele>
        <time>2023-02-10T15:37:36Z</time>
      </trkpt>
      <trkpt lat="43.58396" lon="1.31173">
        <ele>204</ele>
        <time>2023-02-10T15:37:43Z</time>
      </trkpt>
      <trkpt lat="43.58401" lon="1.31169">
        <ele>204.2</ele>
        <time>2023-02-10T15:37:44Z</time>
      </trkpt>
      <trkpt lat="43.58432" lon="1.31136">
        <ele>205</ele>
        <time>2023-02-10T15:37:51Z</time>
      </trkpt>
      <trkpt lat="43.58466" lon="1.31096">
        <ele>205.2</ele>
        <time>2023-02-10T15:37:59Z</time>
      </trkpt>
      <trkpt lat="43.58491" lon="1.31071">
        <ele>205</ele>
        <time>2023-02-10T15:38:05Z</time>
      </trkpt>
      <trkpt lat="43.58498" lon="1.31063">
        <ele>205</ele>
        <time>2023-02-10T15:38:07Z</time>
      </trkpt>
      <trkpt lat="43.58503" lon="1.31059">
        <ele>205</ele>
        <time>2023-02-10T15:38:09Z</time>
      </trkpt>
      <trkpt lat="43.58505" lon="1.31058">
        <ele>204.8</ele>
        <time>2023-02-10T15:38:11Z</time>
      </trkpt>
      <trkpt lat="43.58508" lon="1.3106">
        <ele>204.6</ele>
        <time>2023-02-10T15:38:13Z</time>
      </trkpt>
      <trkpt lat="43.58518" lon="1.3108">
        <ele>204.6</ele>
        <time>2023-02-10T15:38:18Z</time>
      </trkpt>
      <trkpt lat="43.58532" lon="1.31109">
        <ele>204.6</ele>
        <time>2023-02-10T15:38:23Z</time>
      </trkpt>
      <trkpt lat="43.58552" lon="1.31155">
        <ele>204.4</ele>
        <time>2023-02-10T15:38:30Z</time>
      </trkpt>
      <trkpt lat="43.58554" lon="1.31158">
        <ele>204.4</ele>
        <time>2023-02-10T15:38:31Z</time>
      </trkpt>
      <trkpt lat="43.58559" lon="1.31161">
        <ele>204.2</ele>
        <time>2023-02-10T15:38:34Z</time>
      </trkpt>
      <trkpt lat="43.5856" lon="1.3116">
        <ele>204</ele>
        <time>2023-02-10T15:38:36Z</time>
      </trkpt>
      <trkpt lat="43.58565" lon="1.31157">
        <ele>203.8</ele>
        <time>2023-02-10T15:38:38Z</time>
      </trkpt>
      <trkpt lat="43.58573" lon="1.31166">
        <ele>203.8</ele>
        <time>2023-02-10T15:38:41Z</time>
      </trkpt>
      <trkpt lat="43.58584" lon="1.31187">
        <ele>203.6</ele>
        <time>2023-02-10T15:38:45Z</time>
      </trkpt>
      <trkpt lat="43.58587" lon="1.31193">
        <ele>203.6</ele>
        <time>2023-02-10T15:38:46Z</time>
      </trkpt>
      <trkpt lat="43.586" lon="1.31224">
        <ele>203.8</ele>
        <time>2023-02-10T15:38:51Z</time>
      </trkpt>
      <trkpt lat="43.58603" lon="1.31229">
        <ele>203.8</ele>
        <time>2023-02-10T15:38:52Z</time>
      </trkpt>
      <trkpt lat="43.58608" lon="1.31232">
        <ele>203.8</ele>
        <time>2023-02-10T15:38:53Z</time>
      </trkpt>
      <trkpt lat="43.58623" lon="1.31236">
        <ele>204.2</ele>
        <time>2023-02-10T15:38:56Z</time>
      </trkpt>
      <trkpt lat="43.58634" lon="1.31241">
        <ele>204.4</ele>
        <time>2023-02-10T15:38:58Z</time>
      </trkpt>
      <trkpt lat="43.58642" lon="1.31247">
        <ele>204.4</ele>
        <time>2023-02-10T15:39:00Z</time>
      </trkpt>
      <trkpt lat="43.58645" lon="1.31249">
        <ele>204.4</ele>
        <time>2023-02-10T15:39:01Z</time>
      </trkpt>
      <trkpt lat="43.5865" lon="1.31252">
        <ele>204.6</ele>
        <time>2023-02-10T15:39:02Z</time>
      </trkpt>
      <trkpt lat="43.58654" lon="1.31263">
        <ele>204.6</ele>
        <time>2023-02-10T15:39:04Z</time>
      </trkpt>
      <trkpt lat="43.58662" lon="1.31273">
        <ele>204.6</ele>
        <time>2023-02-10T15:39:06Z</time>
      </trkpt>
      <trkpt lat="43.58667" lon="1.31275">
        <ele>204.6</ele>
        <time>2023-02-10T15:39:07Z</time>
      </trkpt>
      <trkpt lat="43.58698" lon="1.31287">
        <ele>204.8</ele>
        <time>2023-02-10T15:39:14Z</time>
      </trkpt>
      <trkpt lat="43.58704" lon="1.31286">
        <ele>204.8</ele>
        <time>2023-02-10T15:39:16Z</time>
      </trkpt>
      <trkpt lat="43.58706" lon="1.31283">
        <ele>204.8</ele>
        <time>2023-02-10T15:39:17Z</time>
      </trkpt>
      <trkpt lat="43.58709" lon="1.31272">
        <ele>204.8</ele>
        <time>2023-02-10T15:39:19Z</time>
      </trkpt>
      <trkpt lat="43.58709" lon="1.31257">
        <ele>204.8</ele>
        <time>2023-02-10T15:39:21Z</time>
      </trkpt>
      <trkpt lat="43.58713" lon="1.312">
        <ele>204.4</ele>
        <time>2023-02-10T15:39:28Z</time>
      </trkpt>
      <trkpt lat="43.58714" lon="1.31182">
        <ele>204.2</ele>
        <time>2023-02-10T15:39:30Z</time>
      </trkpt>
      <trkpt lat="43.58714" lon="1.31146">
        <ele>204.4</ele>
        <time>2023-02-10T15:39:34Z</time>
      </trkpt>
      <trkpt lat="43.58713" lon="1.31076">
        <ele>205</ele>
        <time>2023-02-10T15:39:42Z</time>
      </trkpt>
      <trkpt lat="43.58715" lon="1.31046">
        <ele>205.4</ele>
        <time>2023-02-10T15:39:46Z</time>
      </trkpt>
      <trkpt lat="43.58717" lon="1.3104">
        <ele>205.4</ele>
        <time>2023-02-10T15:39:47Z</time>
      </trkpt>
      <trkpt lat="43.5872" lon="1.31039">
        <ele>205.4</ele>
        <time>2023-02-10T15:39:48Z</time>
      </trkpt>
      <trkpt lat="43.58723" lon="1.3104">
        <ele>205.4</ele>
        <time>2023-02-10T15:39:49Z</time>
      </trkpt>
      <trkpt lat="43.5874" lon="1.31054">
        <ele>205.6</ele>
        <time>2023-02-10T15:39:53Z</time>
      </trkpt>
      <trkpt lat="43.58751" lon="1.31059">
        <ele>205.6</ele>
        <time>2023-02-10T15:39:55Z</time>
      </trkpt>
      <trkpt lat="43.58767" lon="1.31064">
        <ele>205.6</ele>
        <time>2023-02-10T15:39:58Z</time>
      </trkpt>
      <trkpt lat="43.58777" lon="1.31064">
        <ele>205.4</ele>
        <time>2023-02-10T15:40:00Z</time>
      </trkpt>
      <trkpt lat="43.58782" lon="1.31065">
        <ele>205.4</ele>
        <time>2023-02-10T15:40:01Z</time>
      </trkpt>
      <trkpt lat="43.58788" lon="1.31066">
        <ele>205.4</ele>
        <time>2023-02-10T15:40:02Z</time>
      </trkpt>
      <trkpt lat="43.588" lon="1.31072">
        <ele>205.4</ele>
        <time>2023-02-10T15:40:04Z</time>
      </trkpt>
      <trkpt lat="43.58805" lon="1.31077">
        <ele>205.4</ele>
        <time>2023-02-10T15:40:05Z</time>
      </trkpt>
      <trkpt lat="43.58845" lon="1.31113">
        <ele>205.2</ele>
        <time>2023-02-10T15:40:13Z</time>
      </trkpt>
      <trkpt lat="43.58892" lon="1.31156">
        <ele>205</ele>
        <time>2023-02-10T15:40:22Z</time>
      </trkpt>
      <trkpt lat="43.58898" lon="1.31162">
        <ele>205</ele>
        <time>2023-02-10T15:40:23Z</time>
      </trkpt>
      <trkpt lat="43.5893" lon="1.3119">
        <ele>204.8</ele>
        <time>2023-02-10T15:40:30Z</time>
      </trkpt>
      <trkpt lat="43.58936" lon="1.3119">
        <ele>204.8</ele>
        <time>2023-02-10T15:40:32Z</time>
      </trkpt>
      <trkpt lat="43.58938" lon="1.31187">
        <ele>204.6</ele>
        <time>2023-02-10T15:40:33Z</time>
      </trkpt>
      <trkpt lat="43.5895" lon="1.31167">
        <ele>204.6</ele>
        <time>2023-02-10T15:40:37Z</time>
      </trkpt>
      <trkpt lat="43.58973" lon="1.31119">
        <ele>204.6</ele>
        <time>2023-02-10T15:40:44Z</time>
      </trkpt>
      <trkpt lat="43.58985" lon="1.31098">
        <ele>204.6</ele>
        <time>2023-02-10T15:40:47Z</time>
      </trkpt>
      <trkpt lat="43.58995" lon="1.31089">
        <ele>204.4</ele>
        <time>2023-02-10T15:40:49Z</time>
      </trkpt>
      <trkpt lat="43.59009" lon="1.31089">
        <ele>204.4</ele>
        <time>2023-02-10T15:40:51Z</time>
      </trkpt>
      <trkpt lat="43.59015" lon="1.31092">
        <ele>204.4</ele>
        <time>2023-02-10T15:40:52Z</time>
      </trkpt>
      <trkpt lat="43.5902" lon="1.31095">
        <ele>204.4</ele>
        <time>2023-02-10T15:40:53Z</time>
      </trkpt>
      <trkpt lat="43.59044" lon="1.31118">
        <ele>204.4</ele>
        <time>2023-02-10T15:40:57Z</time>
      </trkpt>
      <trkpt lat="43.5907" lon="1.31145">
        <ele>204.2</ele>
        <time>2023-02-10T15:41:02Z</time>
      </trkpt>
      <trkpt lat="43.59074" lon="1.31154">
        <ele>204.2</ele>
        <time>2023-02-10T15:41:03Z</time>
      </trkpt>
      <trkpt lat="43.5908" lon="1.31169">
        <ele>204.2</ele>
        <time>2023-02-10T15:41:05Z</time>
      </trkpt>
      <trkpt lat="43.59085" lon="1.31175">
        <ele>204.2</ele>
        <time>2023-02-10T15:41:06Z</time>
      </trkpt>
      <trkpt lat="43.5909" lon="1.31179">
        <ele>204.4</ele>
        <time>2023-02-10T15:41:07Z</time>
      </trkpt>
      <trkpt lat="43.591" lon="1.31175">
        <ele>204.4</ele>
        <time>2023-02-10T15:41:09Z</time>
      </trkpt>
      <trkpt lat="43.59105" lon="1.31162">
        <ele>204.4</ele>
        <time>2023-02-10T15:41:11Z</time>
      </trkpt>
      <trkpt lat="43.59106" lon="1.31151">
        <ele>204.4</ele>
        <time>2023-02-10T15:41:12Z</time>
      </trkpt>
      <trkpt lat="43.59107" lon="1.31142">
        <ele>204.4</ele>
        <time>2023-02-10T15:41:13Z</time>
      </trkpt>
      <trkpt lat="43.59113" lon="1.31126">
        <ele>204.4</ele>
        <time>2023-02-10T15:41:15Z</time>
      </trkpt>
      <trkpt lat="43.59136" lon="1.31078">
        <ele>204.2</ele>
        <time>2023-02-10T15:41:21Z</time>
      </trkpt>
      <trkpt lat="43.59148" lon="1.31054">
        <ele>204.2</ele>
        <time>2023-02-10T15:41:24Z</time>
      </trkpt>
      <trkpt lat="43.59158" lon="1.31041">
        <ele>204.2</ele>
        <time>2023-02-10T15:41:26Z</time>
      </trkpt>
      <trkpt lat="43.59182" lon="1.30996">
        <ele>204.2</ele>
        <time>2023-02-10T15:41:32Z</time>
      </trkpt>
      <trkpt lat="43.5919" lon="1.30981">
        <ele>204.2</ele>
        <time>2023-02-10T15:41:34Z</time>
      </trkpt>
      <trkpt lat="43.59201" lon="1.30972">
        <ele>204.4</ele>
        <time>2023-02-10T15:41:36Z</time>
      </trkpt>
      <trkpt lat="43.59206" lon="1.30969">
        <ele>204.6</ele>
        <time>2023-02-10T15:41:37Z</time>
      </trkpt>
      <trkpt lat="43.59216" lon="1.30955">
        <ele>204.6</ele>
        <time>2023-02-10T15:41:39Z</time>
      </trkpt>
      <trkpt lat="43.59218" lon="1.30937">
        <ele>204.6</ele>
        <time>2023-02-10T15:41:41Z</time>
      </trkpt>
      <trkpt lat="43.59218" lon="1.30929">
        <ele>204.6</ele>
        <time>2023-02-10T15:41:42Z</time>
      </trkpt>
      <trkpt lat="43.59217" lon="1.30918">
        <ele>204.6</ele>
        <time>2023-02-10T15:41:43Z</time>
      </trkpt>
      <trkpt lat="43.59222" lon="1.30901">
        <ele>204.6</ele>
        <time>2023-02-10T15:41:45Z</time>
      </trkpt>
      <trkpt lat="43.59233" lon="1.30879">
        <ele>204.2</ele>
        <time>2023-02-10T15:41:48Z</time>
      </trkpt>
      <trkpt lat="43.59239" lon="1.30873">
        <ele>204.4</ele>
        <time>2023-02-10T15:41:49Z</time>
      </trkpt>
      <trkpt lat="43.59244" lon="1.3087">
        <ele>204.4</ele>
        <time>2023-02-10T15:41:50Z</time>
      </trkpt>
      <trkpt lat="43.59258" lon="1.30866">
        <ele>204.4</ele>
        <time>2023-02-10T15:41:52Z</time>
      </trkpt>
      <trkpt lat="43.59291" lon="1.30872">
        <ele>204.4</ele>
        <time>2023-02-10T15:41:57Z</time>
      </trkpt>
      <trkpt lat="43.59345" lon="1.30881">
        <ele>204.4</ele>
        <time>2023-02-10T15:42:05Z</time>
      </trkpt>
      <trkpt lat="43.59366" lon="1.30885">
        <ele>204.2</ele>
        <time>2023-02-10T15:42:08Z</time>
      </trkpt>
      <trkpt lat="43.5942" lon="1.30895">
        <ele>203.8</ele>
        <time>2023-02-10T15:42:16Z</time>
      </trkpt>
      <trkpt lat="43.59432" lon="1.30897">
        <ele>203.8</ele>
        <time>2023-02-10T15:42:18Z</time>
      </trkpt>
      <trkpt lat="43.59459" lon="1.30901">
        <ele>203.6</ele>
        <time>2023-02-10T15:42:22Z</time>
      </trkpt>
      <trkpt lat="43.59491" lon="1.30906">
        <ele>203.2</ele>
        <time>2023-02-10T15:42:27Z</time>
      </trkpt>
      <trkpt lat="43.59503" lon="1.30909">
        <ele>203.2</ele>
        <time>2023-02-10T15:42:29Z</time>
      </trkpt>
      <trkpt lat="43.5951" lon="1.30915">
        <ele>203</ele>
        <time>2023-02-10T15:42:31Z</time>
      </trkpt>
      <trkpt lat="43.59511" lon="1.30929">
        <ele>203</ele>
        <time>2023-02-10T15:42:33Z</time>
      </trkpt>
      <trkpt lat="43.59509" lon="1.30951">
        <ele>202.8</ele>
        <time>2023-02-10T15:42:36Z</time>
      </trkpt>
      <trkpt lat="43.59508" lon="1.30976">
        <ele>202.8</ele>
        <time>2023-02-10T15:42:39Z</time>
      </trkpt>
      <trkpt lat="43.59505" lon="1.31">
        <ele>202.8</ele>
        <time>2023-02-10T15:42:42Z</time>
      </trkpt>
      <trkpt lat="43.59502" lon="1.31015">
        <ele>202.8</ele>
        <time>2023-02-10T15:42:44Z</time>
      </trkpt>
      <trkpt lat="43.59499" lon="1.31081">
        <ele>203.4</ele>
        <time>2023-02-10T15:42:52Z</time>
      </trkpt>
      <trkpt lat="43.59496" lon="1.31143">
        <ele>203.8</ele>
        <time>2023-02-10T15:42:59Z</time>
      </trkpt>
      <trkpt lat="43.59495" lon="1.31208">
        <ele>203.6</ele>
        <time>2023-02-10T15:43:06Z</time>
      </trkpt>
      <trkpt lat="43.59494" lon="1.31287">
        <ele>204.2</ele>
        <time>2023-02-10T15:43:14Z</time>
      </trkpt>
      <trkpt lat="43.59494" lon="1.31307">
        <ele>204.2</ele>
        <time>2023-02-10T15:43:16Z</time>
      </trkpt>
      <trkpt lat="43.59492" lon="1.31382">
        <ele>203.8</ele>
        <time>2023-02-10T15:43:24Z</time>
      </trkpt>
      <trkpt lat="43.5949" lon="1.31435">
        <ele>203.6</ele>
        <time>2023-02-10T15:43:30Z</time>
      </trkpt>
      <trkpt lat="43.59487" lon="1.31442">
        <ele>203.6</ele>
        <time>2023-02-10T15:43:31Z</time>
      </trkpt>
      <trkpt lat="43.59482" lon="1.31447">
        <ele>203.6</ele>
        <time>2023-02-10T15:43:32Z</time>
      </trkpt>
      <trkpt lat="43.59472" lon="1.31452">
        <ele>203.6</ele>
        <time>2023-02-10T15:43:34Z</time>
      </trkpt>
      <trkpt lat="43.59452" lon="1.31459">
        <ele>203.4</ele>
        <time>2023-02-10T15:43:38Z</time>
      </trkpt>
      <trkpt lat="43.5945" lon="1.31461">
        <ele>203.2</ele>
        <time>2023-02-10T15:43:39Z</time>
      </trkpt>
      <trkpt lat="43.59448" lon="1.31462">
        <ele>203.2</ele>
        <time>2023-02-10T15:43:41Z</time>
      </trkpt>
      <trkpt lat="43.59443" lon="1.31462">
        <ele>203</ele>
        <time>2023-02-10T15:43:43Z</time>
      </trkpt>
      <trkpt lat="43.59428" lon="1.31469">
        <ele>202.6</ele>
        <time>2023-02-10T15:43:47Z</time>
      </trkpt>
      <trkpt lat="43.59403" lon="1.31482">
        <ele>202.6</ele>
        <time>2023-02-10T15:43:52Z</time>
      </trkpt>
      <trkpt lat="43.59351" lon="1.31507">
        <ele>202.8</ele>
        <time>2023-02-10T15:44:01Z</time>
      </trkpt>
      <trkpt lat="43.59304" lon="1.31526">
        <ele>203</ele>
        <time>2023-02-10T15:44:09Z</time>
      </trkpt>
      <trkpt lat="43.59267" lon="1.31543">
        <ele>203</ele>
        <time>2023-02-10T15:44:15Z</time>
      </trkpt>
      <trkpt lat="43.59211" lon="1.31572">
        <ele>203</ele>
        <time>2023-02-10T15:44:23Z</time>
      </trkpt>
      <trkpt lat="43.5916" lon="1.31601">
        <ele>203.2</ele>
        <time>2023-02-10T15:44:30Z</time>
      </trkpt>
      <trkpt lat="43.59139" lon="1.31614">
        <ele>203</ele>
        <time>2023-02-10T15:44:33Z</time>
      </trkpt>
      <trkpt lat="43.59085" lon="1.31643">
        <ele>203</ele>
        <time>2023-02-10T15:44:41Z</time>
      </trkpt>
      <trkpt lat="43.59071" lon="1.3165">
        <ele>203.2</ele>
        <time>2023-02-10T15:44:43Z</time>
      </trkpt>
      <trkpt lat="43.59016" lon="1.31682">
        <ele>203.4</ele>
        <time>2023-02-10T15:44:51Z</time>
      </trkpt>
      <trkpt lat="43.58995" lon="1.31694">
        <ele>203.4</ele>
        <time>2023-02-10T15:44:54Z</time>
      </trkpt>
      <trkpt lat="43.58944" lon="1.31722">
        <ele>203.8</ele>
        <time>2023-02-10T15:45:02Z</time>
      </trkpt>
      <trkpt lat="43.58891" lon="1.31751">
        <ele>203.6</ele>
        <time>2023-02-10T15:45:10Z</time>
      </trkpt>
      <trkpt lat="43.58879" lon="1.31757">
        <ele>203.6</ele>
        <time>2023-02-10T15:45:12Z</time>
      </trkpt>
      <trkpt lat="43.58867" lon="1.31754">
        <ele>203.6</ele>
        <time>2023-02-10T15:45:14Z</time>
      </trkpt>
      <trkpt lat="43.58856" lon="1.31746">
        <ele>203.6</ele>
        <time>2023-02-10T15:45:16Z</time>
      </trkpt>
      <trkpt lat="43.58846" lon="1.31733">
        <ele>203.8</ele>
        <time>2023-02-10T15:45:18Z</time>
      </trkpt>
      <trkpt lat="43.58809" lon="1.31688">
        <ele>203.8</ele>
        <time>2023-02-10T15:45:25Z</time>
      </trkpt>
      <trkpt lat="43.58789" lon="1.31665">
        <ele>203.6</ele>
        <time>2023-02-10T15:45:29Z</time>
      </trkpt>
      <trkpt lat="43.58783" lon="1.31662">
        <ele>203.6</ele>
        <time>2023-02-10T15:45:30Z</time>
      </trkpt>
      <trkpt lat="43.58777" lon="1.31662">
        <ele>203.6</ele>
        <time>2023-02-10T15:45:31Z</time>
      </trkpt>
      <trkpt lat="43.58771" lon="1.31665">
        <ele>203.6</ele>
        <time>2023-02-10T15:45:32Z</time>
      </trkpt>
      <trkpt lat="43.58767" lon="1.31671">
        <ele>203.6</ele>
        <time>2023-02-10T15:45:33Z</time>
      </trkpt>
      <trkpt lat="43.58758" lon="1.31686">
        <ele>203.6</ele>
        <time>2023-02-10T15:45:35Z</time>
      </trkpt>
      <trkpt lat="43.58729" lon="1.31743">
        <ele>203.4</ele>
        <time>2023-02-10T15:45:42Z</time>
      </trkpt>
      <trkpt lat="43.58694" lon="1.3181">
        <ele>203.4</ele>
        <time>2023-02-10T15:45:50Z</time>
      </trkpt>
      <trkpt lat="43.58671" lon="1.31859">
        <ele>203.6</ele>
        <time>2023-02-10T15:45:56Z</time>
      </trkpt>
      <trkpt lat="43.58669" lon="1.31868">
        <ele>203.6</ele>
        <time>2023-02-10T15:45:57Z</time>
      </trkpt>
      <trkpt lat="43.58669" lon="1.31885">
        <ele>203.6</ele>
        <time>2023-02-10T15:45:59Z</time>
      </trkpt>
      <trkpt lat="43.58676" lon="1.31928">
        <ele>203</ele>
        <time>2023-02-10T15:46:04Z</time>
      </trkpt>
      <trkpt lat="43.58678" lon="1.31939">
        <ele>202.6</ele>
        <time>2023-02-10T15:46:07Z</time>
      </trkpt>
      <trkpt lat="43.58678" lon="1.31941">
        <ele>202.4</ele>
        <time>2023-02-10T15:46:08Z</time>
      </trkpt>
      <trkpt lat="43.58672" lon="1.31946">
        <ele>202</ele>
        <time>2023-02-10T15:46:11Z</time>
      </trkpt>
      <trkpt lat="43.58667" lon="1.31952">
        <ele>202</ele>
        <time>2023-02-10T15:46:13Z</time>
      </trkpt>
      <trkpt lat="43.58664" lon="1.31962">
        <ele>201.8</ele>
        <time>2023-02-10T15:46:15Z</time>
      </trkpt>
      <trkpt lat="43.58671" lon="1.31974">
        <ele>201.8</ele>
        <time>2023-02-10T15:46:18Z</time>
      </trkpt>
      <trkpt lat="43.58673" lon="1.31977">
        <ele>201.8</ele>
        <time>2023-02-10T15:46:19Z</time>
      </trkpt>
      <trkpt lat="43.58679" lon="1.31986">
        <ele>201.8</ele>
        <time>2023-02-10T15:46:21Z</time>
      </trkpt>
      <trkpt lat="43.58683" lon="1.32008">
        <ele>201.6</ele>
        <time>2023-02-10T15:46:24Z</time>
      </trkpt>
      <trkpt lat="43.58686" lon="1.32034">
        <ele>201.4</ele>
        <time>2023-02-10T15:46:27Z</time>
      </trkpt>
      <trkpt lat="43.58687" lon="1.32062">
        <ele>201.2</ele>
        <time>2023-02-10T15:46:30Z</time>
      </trkpt>
      <trkpt lat="43.58683" lon="1.32134">
        <ele>201</ele>
        <time>2023-02-10T15:46:38Z</time>
      </trkpt>
      <trkpt lat="43.58677" lon="1.32211">
        <ele>201.6</ele>
        <time>2023-02-10T15:46:47Z</time>
      </trkpt>
      <trkpt lat="43.58676" lon="1.32219">
        <ele>201.6</ele>
        <time>2023-02-10T15:46:48Z</time>
      </trkpt>
      <trkpt lat="43.58675" lon="1.32225">
        <ele>201.6</ele>
        <time>2023-02-10T15:46:49Z</time>
      </trkpt>
      <trkpt lat="43.58675" lon="1.32232">
        <ele>201.6</ele>
        <time>2023-02-10T15:46:51Z</time>
      </trkpt>
      <trkpt lat="43.58678" lon="1.32235">
        <ele>201.2</ele>
        <time>2023-02-10T15:46:53Z</time>
      </trkpt>
      <trkpt lat="43.58679" lon="1.32234">
        <ele>201.2</ele>
        <time>2023-02-10T15:46:54Z</time>
      </trkpt>
      <trkpt lat="43.5868" lon="1.32229">
        <ele>200.8</ele>
        <time>2023-02-10T15:46:58Z</time>
      </trkpt>
    </trkseg>
  </trk>
</gpx>